[[{"header":{"parameterUnit":"m.s-1","parameterCategory":1,"la1":31.0,"la2":29.5877,"lo1":-88.7671,"lo2":-86.6584,"dy":0.0162,"dx":0.0185,"nx":115,"ny":88,"refTime":"2024-07-19T18:00:00:Z","depth":0,"parameterNumber":2,"parameterNumberName":"U-component_of_WINDS"},"data":[0.0,0.0,0.0,0.0,0.0,0.0,0.0,0.0,0.0,0.0,0.0,0.0,0.0,0.0,0.0,0.0,0.0,0.0,0.0,0.0,0.0,0.0,0.0,0.0,0.0,0.0,0.0,0.0,0.0,0.0,0.0,0.0,0.0,0.0,0.0,0.0,0.0,0.0,0.0,0.0,0.0,0.0,0.0,0.0,0.0,0.0,0.0,0.0,0.0,0.0,0.0,0.0,0.0,0.0,0.0,0.0,0.0,0.0,0.0,0.0,0.0,0.0,0.0,0.0,0.0,0.0,0.0,0.0,0.0,0.0,0.0,0.0,0.0,0.0,0.0,0.0,0.0,0.0,0.0,0.0,0.0,0.0,0.0,0.0,0.0,0.0,0.0,0.0,0.0,0.0,0.0,0.0,0.0,0.0,0.0,0.0,0.0,0.0,0.0,0.0,0.0,0.0,0.0,0.0,0.0,0.0,0.0,0.0,0.0,0.0,0.0,0.0,0.0,0.0,0.0,0.0,0.0,0.0,0.0,0.0,0.0,0.0,0.0,0.0,0.0,0.0,0.0,0.0,0.0,0.0,0.0,0.0,0.0,0.0,0.0,0.0,0.0,0.0,0.0,0.0,0.0,0.0,0.0,0.0,0.0,0.0,0.0,0.0,0.0,0.0,0.0,0.0,0.0,0.0,0.0,0.0,0.0,0.0,0.0,0.0,0.0,0.0,0.0,0.0,0.0,0.0,0.0,0.0,0.0,0.0,0.0,0.0,0.0,0.0,0.0,0.0,0.0,0.0,0.0,0.0,0.0,0.0,0.0,0.0,0.0,0.0,0.0,0.0,0.0,0.0,0.0,0.0,0.0,0.0,0.0,0.0,0.0,0.0,0.0,0.0,0.0,0.0,0.0,0.0,0.0,0.0,0.0,0.0,0.0,0.0,0.0,0.0,0.0,0.0,0.0,0.0,0.0,0.0,0.0,0.0,0.0,0.0,0.0,0.0,0.0,0.0,0.0,0.0,0.0,0.0,0.0,0.0,0.0,0.0,0.0,0.0,0.0,0.0,0.0,0.0,0.0,0.0,0.0,0.0,0.0,0.0,0.0,0.0,0.0,0.0,0.0,0.0,0.0,0.0,0.0,0.0,0.0,0.0,0.0,0.0,0.0,0.0,0.0,0.0,0.0,0.0,0.0,0.0,0.0,0.0,0.0,0.0,0.0,0.0,0.0,0.0,0.0,0.0,0.0,0.0,0.0,0.0,0.0,0.0,0.0,0.0,0.0,0.0,0.0,0.0,0.0,0.0,0.0,0.0,0.0,0.0,0.0,0.0,0.0,0.0,0.0,0.0,0.0,0.0,0.0,0.0,0.0,0.0,0.0,0.0,0.0,0.0,0.0,0.0,0.0,0.0,0.0,0.0,0.0,0.0,0.0,0.0,0.0,0.0,0.0,0.0,0.0,0.0,0.0,0.0,0.0,0.0,0.0,0.0,0.0,0.0,0.0,0.0,0.0,0.0,0.0,0.0,0.0,0.0,0.0,0.0,0.0,0.0,0.0,0.0,0.0,0.0,0.0,0.0,0.0,0.0,0.0,0.0,0.0,0.0,0.0,0.0,0.0,0.0,0.0,0.0,0.0,0.0,0.0,0.0,0.0,0.0,0.0,0.0,0.0,0.0,0.0,0.0,0.0,0.0,0.0,0.0,0.0,0.0,0.0,0.0,0.0,0.0,0.0,0.0,0.0,0.0,0.0,0.0,0.0,0.0,0.0,0.0,0.0,0.0,0.0,0.0,0.0,0.0,0.0,0.0,0.0,0.0,0.0,0.0,0.0,0.0,0.0,0.0,0.0,0.0,0.0,0.0,0.0,0.0,0.0,0.0,0.0,0.0,0.0,0.0,0.0,0.0,0.0,0.0,0.0,0.0,0.0,0.0,0.0,0.0,0.0,0.0,0.0,0.0,0.0,0.0,0.0,0.0,0.0,0.0,0.0,0.0,0.0,0.0,0.0,0.0,0.0,0.0,0.0,0.0,0.0,0.0,0.0,0.0,0.0,0.0,0.0,0.0,0.0,0.0,0.0,0.0,0.0,0.0,0.0,0.0,0.0,0.0,0.0,0.0,0.0,0.0,0.0,0.0,0.0,0.0,0.0,0.0,0.0,0.0,0.0,0.0,0.0,0.0,0.0,0.0,0.0,0.0,0.0,0.0,0.0,0.0,0.0,0.0,0.0,0.0,0.0,0.0,0.0,0.0,0.0,0.0,0.0,0.0,0.0,0.0,0.0,0.0,0.0,0.0,0.0,0.0,0.0,0.0,0.0,0.0,0.0,0.0,0.0,0.0,0.0,0.0,0.0,0.0,0.0,0.0,0.0,0.0,0.0,0.0,0.0,0.0,0.0,0.0,0.0,0.0,0.0,0.0,0.0,0.0,0.0,0.0,0.0,0.0,0.0,0.0,0.0,0.0,0.0,0.0,0.0,0.0,0.0,0.0,0.0,0.0,0.0,0.0,0.0,0.0,0.0,0.0,0.0,0.0,0.0,0.0,0.0,0.0,0.0,0.0,0.0,0.0,0.0,0.0,0.0,0.0,0.0,0.0,0.0,0.0,0.0,0.0,0.0,0.0,0.0,0.0,0.0,0.0,0.0,0.0,0.0,0.0,0.0,0.0,0.0,0.0,0.0,0.0,0.0,0.0,0.0,0.0,0.0,0.0,0.0,0.0,0.0,0.0,0.0,0.0,0.0,0.0,0.0,0.0,0.0,0.0,0.0,0.0,0.0,0.0,0.0,0.0,0.0,0.0,0.0,0.0,0.0,0.0,0.0,0.0,0.0,0.0,0.0,0.0,0.0,0.0,0.0,0.0,0.0,0.0,0.0,0.0,0.0,0.0,0.0,0.0,0.0,0.0,0.0,0.0,0.0,0.0,0.0,0.0,0.0,0.0,0.0,0.0,0.0,0.0,0.0,0.0,0.0,0.0,0.0,0.0,0.0,0.0,0.0,0.0,0.0,0.0,0.0,0.0,0.0,0.0,0.0,0.0,0.0,0.0,0.0,0.0,0.0,0.0,0.0,0.0,0.0,0.0,0.0,0.0,0.0,0.0,0.0,0.0,0.0,0.0,0.0,0.0,0.0,0.0,0.0,0.0,0.0,0.0,0.0,0.0,0.0,0.0,0.0,0.0,0.0,0.0,0.0,0.0,0.0,0.0,0.0,0.0,0.0,0.0,0.0,0.0,0.0,0.0,0.0,0.0,0.0,0.0,0.0,0.0,0.0,0.0,0.0,0.0,0.0,0.0,0.0,0.0,0.0,0.0,0.0,0.0,0.0,0.0,0.0,0.0,0.0,0.0,0.0,0.0,0.0,0.0,0.0,0.0,0.0,0.0,0.0,0.0,0.0,0.0,0.0,0.0,0.0,0.0,0.0,0.0,0.0,0.0,0.0,0.0,0.0,0.0,0.0,0.0,0.0,0.0,0.0,0.0,0.0,0.0,0.0,0.0,0.0,0.0,0.0,0.0,0.0,0.0,0.0,0.0,0.0,0.0,0.0,0.0,0.0,0.0,0.0,0.0,0.0,0.0,0.0,0.0,0.0,0.0,0.0,0.0,0.0,0.0,0.0,0.0,0.0,0.0,0.0,0.0,0.0,0.0,0.0,0.0,0.0,0.0,0.0,0.0,0.0,0.0,0.0,0.0,0.0,0.0,0.0,0.0,0.0,0.0,0.0,0.0,0.0,0.0,0.0,0.0,0.0,0.0,0.0,0.0,0.0,0.0,0.0,0.0,0.0,0.0,0.0,0.0,0.0,0.0,0.0,0.0,0.0,0.0,0.0,0.0,0.0,0.0,0.0,0.0,0.0,0.0,0.0,0.0,0.0,0.0,0.0,0.0,0.0,0.0,0.0,0.0,0.0,0.0,0.0,0.0,0.0,0.0,0.0,0.0,0.0,0.0,0.0,0.0,0.0,0.0,0.0,0.0,0.0,0.0,0.0,0.0,0.0,0.0,0.0,0.0,0.0,0.0,0.0,0.0,0.0,0.0,0.0,0.0,0.0,0.0,0.0,0.0,0.0,0.0,0.0,0.0,0.0,0.0,0.0,0.0,0.0,0.0,0.0,0.0,0.0,0.0,0.0,0.0,0.0,0.0,0.0,0.0,0.0,0.0,0.0,0.0,0.0,0.0,0.0,0.0,0.0,0.0,0.0,0.0,0.0,0.0,0.0,0.0,0.0,0.0,0.0,0.0,0.0,0.0,0.0,0.0,0.0,0.0,0.0,0.0,0.0,0.0,-3.0089,0.0,0.0,0.0,0.0,0.0,0.0,0.0,0.0,0.0,0.0,0.0,0.0,0.0,0.0,0.0,0.0,0.0,0.0,0.0,0.0,0.0,0.0,0.0,0.0,0.0,0.0,0.0,0.0,0.0,0.0,0.0,0.0,0.0,0.0,0.0,0.0,0.0,0.0,0.0,0.0,0.0,0.0,0.0,0.0,0.0,0.0,0.0,0.0,0.0,0.0,0.0,0.0,0.0,0.0,0.0,0.0,0.0,0.0,0.0,0.0,0.0,0.0,0.0,0.0,0.0,0.0,0.0,0.0,0.0,0.0,0.0,0.0,0.0,0.0,0.0,0.0,0.0,0.0,0.0,0.0,0.0,0.0,0.0,0.0,0.0,0.0,0.0,0.0,0.0,0.0,0.0,0.0,0.0,0.0,0.0,0.0,0.0,0.0,0.0,0.0,0.0,0.0,0.0,0.0,0.0,0.0,0.0,0.0,0.0,0.0,-3.316,-3.4834,-3.3718,-3.2557,-3.145,0.0,0.0,0.0,0.0,0.0,0.0,0.0,0.0,0.0,0.0,0.0,0.0,0.0,0.0,0.0,0.0,0.0,0.0,0.0,0.0,0.0,0.0,0.0,0.0,0.0,0.0,0.0,0.0,0.0,0.0,0.0,0.0,0.0,0.0,0.0,0.0,0.0,0.0,0.0,0.0,0.0,0.0,0.0,0.0,0.0,0.0,0.0,0.0,0.0,0.0,0.0,0.0,0.0,0.0,0.0,0.0,0.0,0.0,0.0,0.0,0.0,0.0,0.0,0.0,0.0,0.0,0.0,0.0,0.0,0.0,0.0,0.0,0.0,0.0,0.0,0.0,0.0,0.0,0.0,0.0,0.0,0.0,0.0,0.0,0.0,0.0,0.0,0.0,0.0,0.0,0.0,0.0,0.0,0.0,0.0,0.0,0.0,0.0,0.0,0.0,0.0,0.0,0.0,0.0,0.0,0.0,0.0,0.0,0.0,0.0,0.0,0.0,-3.5238,-3.3983,-3.2286,0.0,0.0,0.0,0.0,0.0,0.0,0.0,0.0,0.0,0.0,0.0,0.0,0.0,0.0,0.0,0.0,0.0,0.0,0.0,0.0,0.0,0.0,0.0,0.0,0.0,0.0,0.0,0.0,0.0,0.0,0.0,0.0,0.0,0.0,0.0,0.0,0.0,0.0,0.0,0.0,0.0,0.0,0.0,0.0,0.0,0.0,0.0,0.0,0.0,0.0,0.0,0.0,0.0,0.0,0.0,0.0,0.0,0.0,0.0,0.0,0.0,0.0,0.0,0.0,0.0,0.0,0.0,0.0,0.0,0.0,0.0,0.0,0.0,0.0,0.0,0.0,0.0,0.0,0.0,0.0,0.0,0.0,0.0,0.0,0.0,0.0,0.0,0.0,0.0,0.0,0.0,0.0,0.0,0.0,0.0,0.0,0.0,0.0,0.0,0.0,0.0,0.0,0.0,0.0,0.0,0.0,0.0,0.0,0.0,0.0,-3.4449,-3.7642,-3.6911,0.0,-3.1547,0.0,0.0,0.0,0.0,0.0,0.0,0.0,0.0,0.0,0.0,0.0,0.0,0.0,0.0,0.0,0.0,0.0,0.0,0.0,0.0,0.0,0.0,0.0,0.0,0.0,0.0,0.0,0.0,0.0,0.0,0.0,0.0,0.0,0.0,0.0,0.0,0.0,0.0,0.0,0.0,0.0,0.0,0.0,0.0,0.0,0.0,0.0,0.0,0.0,0.0,0.0,0.0,0.0,0.0,0.0,0.0,0.0,0.0,0.0,0.0,0.0,0.0,0.0,0.0,0.0,0.0,0.0,0.0,0.0,0.0,0.0,0.0,0.0,0.0,0.0,0.0,0.0,0.0,0.0,0.0,0.0,0.0,0.0,0.0,0.0,0.0,0.0,0.0,0.0,0.0,0.0,0.0,0.0,0.0,0.0,0.0,0.0,0.0,0.0,0.0,0.0,0.0,0.0,0.0,0.0,0.0,0.0,0.0,0.0,0.0,-3.5584,-3.795,-3.6425,-3.4407,0.0,0.0,0.0,0.0,0.0,0.0,0.0,0.0,0.0,0.0,0.0,0.0,0.0,0.0,0.0,0.0,0.0,0.0,0.0,0.0,0.0,0.0,0.0,0.0,0.0,0.0,0.0,0.0,0.0,0.0,0.0,0.0,0.0,0.0,0.0,0.0,0.0,0.0,0.0,0.0,0.0,0.0,0.0,0.0,0.0,0.0,0.0,0.0,0.0,0.0,0.0,0.0,0.0,0.0,0.0,0.0,0.0,0.0,0.0,0.0,0.0,0.0,0.0,0.0,0.0,0.0,0.0,0.0,0.0,0.0,0.0,0.0,0.0,0.0,0.0,0.0,0.0,0.0,0.0,0.0,0.0,0.0,0.0,0.0,0.0,0.0,0.0,0.0,0.0,0.0,0.0,0.0,0.0,0.0,0.0,0.0,0.0,0.0,0.0,0.0,0.0,0.0,0.0,0.0,0.0,0.0,0.0,0.0,0.0,0.0,-3.5103,-3.6411,-3.8146,-3.69,-3.4812,-3.2139,0.0,0.0,0.0,0.0,0.0,0.0,0.0,0.0,0.0,0.0,0.0,0.0,0.0,0.0,0.0,0.0,0.0,0.0,0.0,0.0,0.0,0.0,0.0,0.0,0.0,0.0,0.0,0.0,0.0,0.0,0.0,0.0,0.0,0.0,0.0,0.0,0.0,0.0,0.0,0.0,0.0,0.0,0.0,0.0,0.0,0.0,0.0,0.0,0.0,0.0,0.0,0.0,0.0,0.0,0.0,0.0,0.0,0.0,0.0,0.0,0.0,0.0,0.0,0.0,0.0,0.0,0.0,0.0,0.0,0.0,0.0,0.0,0.0,0.0,0.0,0.0,0.0,0.0,0.0,0.0,0.0,0.0,0.0,0.0,0.0,0.0,0.0,0.0,0.0,0.0,0.0,0.0,0.0,0.0,0.0,0.0,0.0,0.0,0.0,0.0,0.0,0.0,0.0,0.0,0.0,0.0,0.0,0.0,0.0,-3.6276,-3.6719,-3.9219,-3.9254,-3.6729,0.0,0.0,0.0,0.0,0.0,0.0,0.0,0.0,0.0,0.0,0.0,0.0,0.0,0.0,0.0,0.0,0.0,0.0,0.0,0.0,0.0,0.0,0.0,0.0,0.0,0.0,0.0,0.0,0.0,0.0,0.0,0.0,0.0,0.0,0.0,0.0,0.0,0.0,0.0,0.0,0.0,0.0,0.0,0.0,0.0,0.0,0.0,0.0,0.0,0.0,0.0,0.0,0.0,0.0,0.0,0.0,0.0,0.0,0.0,0.0,0.0,0.0,0.0,0.0,0.0,0.0,0.0,0.0,0.0,0.0,0.0,0.0,0.0,0.0,0.0,0.0,0.0,0.0,0.0,0.0,0.0,0.0,0.0,0.0,0.0,0.0,0.0,0.0,0.0,0.0,0.0,0.0,0.0,0.0,0.0,0.0,0.0,0.0,0.0,0.0,0.0,0.0,0.0,0.0,0.0,0.0,0.0,0.0,0.0,-3.4622,-3.6257,-3.8854,-4.2184,-3.8632,-3.5549,0.0,0.0,0.0,0.0,0.0,0.0,0.0,0.0,0.0,0.0,0.0,0.0,0.0,0.0,0.0,0.0,0.0,0.0,0.0,0.0,0.0,0.0,0.0,0.0,0.0,0.0,0.0,0.0,0.0,0.0,0.0,0.0,0.0,0.0,0.0,0.0,0.0,0.0,0.0,0.0,0.0,0.0,0.0,0.0,0.0,0.0,0.0,0.0,0.0,0.0,0.0,0.0,0.0,0.0,0.0,0.0,0.0,0.0,0.0,0.0,0.0,0.0,0.0,0.0,0.0,0.0,0.0,0.0,0.0,0.0,0.0,0.0,0.0,0.0,0.0,0.0,0.0,0.0,0.0,0.0,0.0,0.0,0.0,0.0,0.0,0.0,0.0,0.0,0.0,0.0,0.0,0.0,0.0,0.0,0.0,0.0,0.0,0.0,0.0,0.0,0.0,0.0,0.0,0.0,0.0,0.0,0.0,0.0,0.0,-3.4526,0.0,-4.0642,0.0,-3.8347,-3.5002,0.0,0.0,0.0,0.0,0.0,0.0,0.0,0.0,0.0,0.0,0.0,0.0,0.0,0.0,0.0,0.0,0.0,0.0,0.0,0.0,0.0,0.0,0.0,0.0,0.0,0.0,0.0,0.0,0.0,0.0,0.0,0.0,0.0,0.0,0.0,0.0,0.0,0.0,0.0,0.0,0.0,0.0,0.0,0.0,0.0,0.0,0.0,0.0,0.0,0.0,0.0,0.0,0.0,0.0,0.0,0.0,0.0,0.0,0.0,0.0,0.0,0.0,0.0,0.0,0.0,0.0,0.0,0.0,0.0,0.0,0.0,0.0,0.0,0.0,0.0,0.0,0.0,0.0,0.0,0.0,0.0,0.0,0.0,0.0,0.0,0.0,0.0,0.0,0.0,0.0,0.0,0.0,0.0,0.0,0.0,0.0,0.0,0.0,0.0,0.0,0.0,0.0,0.0,0.0,0.0,0.0,0.0,0.0,-3.2968,-3.7815,-4.1181,-4.1797,-3.9508,-3.8708,-3.5321,0.0,0.0,0.0,0.0,0.0,0.0,0.0,0.0,0.0,0.0,0.0,0.0,0.0,0.0,0.0,0.0,0.0,0.0,0.0,0.0,0.0,0.0,0.0,0.0,0.0,0.0,0.0,0.0,0.0,0.0,0.0,0.0,0.0,0.0,0.0,0.0,0.0,0.0,0.0,0.0,0.0,0.0,0.0,0.0,0.0,0.0,0.0,0.0,0.0,0.0,0.0,0.0,0.0,0.0,0.0,0.0,0.0,0.0,0.0,0.0,0.0,0.0,0.0,0.0,0.0,0.0,0.0,0.0,0.0,0.0,0.0,0.0,0.0,0.0,0.0,0.0,0.0,0.0,0.0,0.0,0.0,0.0,0.0,0.0,0.0,0.0,0.0,0.0,0.0,0.0,0.0,0.0,0.0,0.0,0.0,0.0,0.0,0.0,0.0,0.0,0.0,0.0,0.0,0.0,0.0,0.0,0.0,0.0,0.0,-3.7969,-4.0162,-4.1758,-4.2585,-3.901,-3.6007,0.0,0.0,0.0,0.0,0.0,0.0,0.0,0.0,0.0,0.0,0.0,0.0,0.0,0.0,0.0,0.0,0.0,0.0,0.0,0.0,0.0,0.0,0.0,0.0,0.0,0.0,0.0,0.0,0.0,0.0,0.0,0.0,0.0,0.0,0.0,0.0,0.0,0.0,0.0,0.0,0.0,0.0,0.0,0.0,0.0,0.0,0.0,0.0,0.0,0.0,0.0,0.0,0.0,0.0,0.0,0.0,0.0,0.0,0.0,0.0,0.0,0.0,0.0,0.0,0.0,0.0,0.0,0.0,0.0,0.0,0.0,0.0,0.0,0.0,0.0,0.0,0.0,0.0,0.0,0.0,0.0,0.0,0.0,0.0,0.0,0.0,0.0,0.0,0.0,0.0,0.0,0.0,0.0,0.0,0.0,0.0,0.0,0.0,0.0,0.0,0.0,0.0,0.0,0.0,0.0,0.0,0.0,0.0,0.0,-3.945,-4.1354,-4.2701,-4.3355,-3.9461,-3.6498,-3.4699,0.0,0.0,0.0,0.0,0.0,0.0,0.0,0.0,0.0,0.0,0.0,0.0,0.0,0.0,0.0,0.0,0.0,0.0,0.0,0.0,0.0,0.0,0.0,0.0,0.0,0.0,0.0,0.0,0.0,0.0,0.0,0.0,0.0,0.0,0.0,0.0,0.0,0.0,0.0,0.0,0.0,0.0,0.0,0.0,0.0,0.0,0.0,0.0,0.0,0.0,0.0,0.0,0.0,0.0,0.0,0.0,0.0,0.0,0.0,0.0,0.0,0.0,0.0,0.0,0.0,0.0,0.0,0.0,0.0,0.0,0.0,0.0,0.0,0.0,0.0,0.0,0.0,0.0,0.0,0.0,0.0,0.0,0.0,0.0,0.0,0.0,0.0,0.0,0.0,0.0,0.0,0.0,0.0,0.0,0.0,0.0,0.0,0.0,0.0,0.0,0.0,0.0,0.0,0.0,0.0,0.0,0.0,0.0,-4.172,-4.4259,-4.4432,-4.2143,-4.0072,-3.701,0.0,0.0,0.0,0.0,0.0,0.0,0.0,0.0,0.0,0.0,0.0,0.0,0.0,0.0,0.0,0.0,0.0,0.0,0.0,0.0,0.0,0.0,0.0,0.0,0.0,0.0,0.0,0.0,0.0,0.0,0.0,0.0,0.0,0.0,0.0,0.0,0.0,0.0,0.0,0.0,0.0,0.0,0.0,0.0,0.0,0.0,0.0,0.0,0.0,0.0,0.0,0.0,0.0,0.0,0.0,0.0,0.0,0.0,0.0,0.0,0.0,0.0,0.0,0.0,0.0,0.0,0.0,0.0,0.0,0.0,0.0,0.0,0.0,0.0,0.0,0.0,0.0,0.0,0.0,0.0,0.0,0.0,0.0,0.0,0.0,0.0,0.0,0.0,0.0,0.0,0.0,0.0,0.0,0.0,0.0,0.0,0.0,0.0,0.0,0.0,0.0,0.0,0.0,0.0,0.0,0.0,0.0,0.0,0.0,-4.0893,-4.3951,-4.5278,-4.4547,-4.1668,-3.9169,0.0,0.0,0.0,0.0,0.0,0.0,0.0,0.0,0.0,0.0,0.0,0.0,0.0,0.0,0.0,0.0,0.0,0.0,0.0,0.0,0.0,0.0,0.0,0.0,0.0,0.0,0.0,0.0,0.0,0.0,0.0,0.0,0.0,0.0,0.0,0.0,0.0,0.0,0.0,0.0,0.0,0.0,0.0,0.0,0.0,0.0,0.0,0.0,0.0,0.0,0.0,0.0,0.0,0.0,0.0,0.0,0.0,0.0,0.0,0.0,0.0,0.0,0.0,0.0,0.0,0.0,0.0,0.0,0.0,0.0,0.0,0.0,0.0,0.0,0.0,0.0,0.0,0.0,0.0,0.0,0.0,0.0,0.0,0.0,0.0,0.0,0.0,0.0,0.0,0.0,0.0,0.0,0.0,0.0,0.0,0.0,0.0,0.0,0.0,0.0,0.0,0.0,0.0,0.0,0.0,0.0,0.0,0.0,-4.0546,-4.2066,-4.4393,-4.5586,-4.5586,-4.2989,-4.0559,0.0,0.0,0.0,0.0,0.0,0.0,0.0,0.0,0.0,0.0,0.0,0.0,0.0,0.0,0.0,0.0,0.0,0.0,0.0,0.0,0.0,0.0,0.0,0.0,0.0,0.0,0.0,0.0,0.0,0.0,0.0,0.0,0.0,0.0,0.0,0.0,0.0,0.0,0.0,0.0,0.0,0.0,0.0,0.0,0.0,0.0,0.0,0.0,0.0,0.0,0.0,0.0,0.0,0.0,0.0,0.0,0.0,0.0,0.0,0.0,0.0,0.0,0.0,0.0,0.0,0.0,0.0,0.0,0.0,0.0,0.0,0.0,0.0,0.0,0.0,0.0,0.0,0.0,0.0,0.0,0.0,0.0,0.0,0.0,0.0,0.0,0.0,0.0,0.0,0.0,0.0,0.0,0.0,0.0,0.0,0.0,0.0,0.0,0.0,0.0,0.0,0.0,0.0,0.0,0.0,0.0,0.0,0.0,-4.1758,-4.4124,-4.5105,-4.5586,-4.5547,-4.3893,-4.1385,0.0,0.0,0.0,0.0,0.0,0.0,0.0,0.0,0.0,0.0,0.0,0.0,0.0,0.0,0.0,0.0,0.0,0.0,0.0,0.0,0.0,0.0,0.0,0.0,0.0,0.0,0.0,0.0,0.0,0.0,0.0,0.0,0.0,0.0,0.0,0.0,0.0,0.0,0.0,0.0,0.0,0.0,0.0,0.0,0.0,0.0,0.0,0.0,0.0,0.0,0.0,0.0,0.0,0.0,0.0,0.0,0.0,0.0,0.0,0.0,0.0,0.0,0.0,0.0,0.0,0.0,0.0,0.0,0.0,0.0,0.0,0.0,0.0,0.0,0.0,0.0,0.0,0.0,0.0,0.0,0.0,0.0,0.0,0.0,0.0,0.0,0.0,0.0,0.0,0.0,0.0,0.0,0.0,0.0,0.0,0.0,0.0,0.0,0.0,0.0,0.0,0.0,0.0,0.0,0.0,0.0,0.0,0.0,-4.2124,-4.3335,-4.4836,-4.5586,-4.5586,-4.3316,-4.1396,0.0,0.0,0.0,0.0,0.0,0.0,0.0,0.0,0.0,0.0,0.0,0.0,0.0,0.0,0.0,0.0,0.0,0.0,0.0,0.0,0.0,0.0,0.0,0.0,0.0,0.0,0.0,0.0,0.0,0.0,0.0,0.0,0.0,0.0,0.0,0.0,0.0,0.0,0.0,0.0,0.0,0.0,0.0,0.0,0.0,0.0,0.0,0.0,-4.0042,0.0,0.0,0.0,0.0,0.0,0.0,0.0,0.0,0.0,0.0,0.0,0.0,0.0,0.0,0.0,0.0,0.0,0.0,0.0,0.0,0.0,0.0,0.0,0.0,0.0,0.0,0.0,0.0,0.0,0.0,0.0,0.0,0.0,0.0,0.0,0.0,0.0,0.0,0.0,0.0,0.0,0.0,0.0,0.0,0.0,0.0,0.0,0.0,0.0,0.0,0.0,0.0,0.0,0.0,0.0,0.0,0.0,0.0,0.0,-4.2604,-4.422,-4.4739,-4.4989,-4.4913,-4.2931,-4.1393,0.0,0.0,0.0,0.0,0.0,0.0,0.0,0.0,0.0,0.0,0.0,0.0,0.0,0.0,0.0,0.0,0.0,0.0,0.0,0.0,0.0,0.0,0.0,0.0,0.0,0.0,0.0,0.0,0.0,0.0,0.0,0.0,0.0,0.0,0.0,0.0,0.0,0.0,0.0,0.0,0.0,0.0,0.0,0.0,0.0,0.0,0.0,0.0,0.0,0.0,0.0,0.0,0.0,0.0,0.0,0.0,0.0,0.0,0.0,0.0,0.0,0.0,0.0,0.0,0.0,0.0,0.0,0.0,0.0,0.0,0.0,0.0,0.0,0.0,0.0,0.0,0.0,0.0,0.0,0.0,0.0,0.0,0.0,0.0,0.0,0.0,0.0,0.0,0.0,0.0,0.0,0.0,0.0,0.0,0.0,0.0,0.0,0.0,0.0,0.0,0.0,0.0,0.0,0.0,0.0,0.0,0.0,-4.0392,-4.2777,-4.5413,-4.4624,-4.4162,-4.4259,-4.2681,-4.1277,-4.0123,0.0,0.0,0.0,0.0,0.0,0.0,0.0,0.0,0.0,0.0,0.0,0.0,0.0,0.0,0.0,0.0,0.0,0.0,0.0,0.0,0.0,0.0,0.0,0.0,0.0,0.0,0.0,0.0,0.0,0.0,0.0,0.0,0.0,0.0,0.0,0.0,0.0,0.0,-3.4553,-3.7925,0.0,0.0,0.0,0.0,0.0,0.0,0.0,0.0,-4.2585,0.0,0.0,0.0,0.0,0.0,0.0,0.0,0.0,0.0,0.0,0.0,0.0,0.0,0.0,0.0,0.0,0.0,0.0,0.0,0.0,0.0,0.0,0.0,0.0,0.0,0.0,0.0,0.0,0.0,0.0,0.0,0.0,0.0,0.0,0.0,0.0,0.0,0.0,0.0,0.0,0.0,0.0,0.0,0.0,0.0,0.0,0.0,0.0,0.0,0.0,0.0,0.0,0.0,0.0,0.0,0.0,-4.0008,-3.9835,-4.1604,-4.5451,-4.4085,-4.3605,-4.422,-4.2681,-4.0739,-3.8488,0.0,0.0,0.0,0.0,0.0,0.0,0.0,0.0,0.0,0.0,0.0,0.0,0.0,0.0,0.0,0.0,0.0,0.0,0.0,0.0,0.0,0.0,0.0,0.0,0.0,0.0,0.0,0.0,0.0,0.0,0.0,0.0,0.0,0.0,0.0,0.0,0.0,0.0,0.0,-4.1498,-4.3206,0.0,0.0,0.0,0.0,0.0,0.0,0.0,0.0,-4.245,0.0,0.0,0.0,0.0,0.0,0.0,0.0,0.0,0.0,0.0,0.0,0.0,0.0,0.0,0.0,0.0,0.0,0.0,0.0,0.0,0.0,0.0,0.0,0.0,0.0,0.0,0.0,0.0,0.0,0.0,0.0,0.0,0.0,0.0,0.0,0.0,0.0,0.0,0.0,0.0,0.0,0.0,0.0,0.0,0.0,0.0,0.0,0.0,0.0,0.0,0.0,0.0,0.0,0.0,0.0,-3.8416,-3.9873,-4.1797,-4.4162,-4.3066,-4.2624,-4.2931,-4.095,-3.9046,0.0,0.0,0.0,0.0,0.0,0.0,0.0,0.0,0.0,0.0,0.0,0.0,0.0,0.0,0.0,0.0,0.0,0.0,0.0,0.0,0.0,0.0,0.0,0.0,0.0,0.0,0.0,0.0,0.0,0.0,0.0,0.0,0.0,0.0,0.0,0.0,0.0,0.0,0.0,0.0,-4.196,-4.3415,-4.5045,0.0,0.0,0.0,0.0,0.0,0.0,-4.3624,-4.3374,0.0,0.0,0.0,0.0,0.0,0.0,0.0,0.0,0.0,0.0,0.0,0.0,0.0,0.0,0.0,0.0,0.0,0.0,0.0,0.0,0.0,0.0,0.0,0.0,0.0,0.0,0.0,0.0,0.0,0.0,0.0,0.0,0.0,0.0,0.0,0.0,0.0,0.0,0.0,0.0,0.0,0.0,0.0,0.0,0.0,0.0,0.0,0.0,0.0,0.0,0.0,0.0,0.0,0.0,0.0,-3.6724,-3.9565,-4.172,-4.2989,-4.2066,-4.1623,-4.1758,-3.9508,-3.77,0.0,0.0,0.0,0.0,0.0,0.0,0.0,0.0,0.0,0.0,0.0,0.0,0.0,0.0,0.0,0.0,0.0,0.0,0.0,0.0,0.0,0.0,0.0,0.0,0.0,0.0,0.0,0.0,0.0,0.0,0.0,0.0,0.0,0.0,0.0,0.0,0.0,0.0,0.0,0.0,0.0,-4.3642,-4.532,-4.5034,0.0,0.0,0.0,0.0,-4.4547,-4.4412,0.0,0.0,0.0,0.0,0.0,0.0,0.0,0.0,0.0,0.0,0.0,0.0,0.0,0.0,0.0,0.0,0.0,0.0,0.0,0.0,0.0,0.0,0.0,0.0,0.0,0.0,0.0,0.0,0.0,0.0,0.0,0.0,0.0,0.0,0.0,0.0,0.0,0.0,0.0,0.0,0.0,0.0,0.0,0.0,0.0,0.0,0.0,0.0,0.0,0.0,0.0,0.0,0.0,0.0,0.0,0.0,-3.6603,-3.7834,-3.995,-4.2835,-4.1489,-4.1008,-4.1758,-4.0065,-3.8046,0.0,0.0,0.0,0.0,0.0,0.0,0.0,0.0,0.0,0.0,0.0,0.0,0.0,0.0,0.0,0.0,0.0,0.0,0.0,0.0,0.0,0.0,0.0,0.0,0.0,0.0,0.0,0.0,0.0,0.0,0.0,0.0,0.0,0.0,0.0,0.0,0.0,0.0,0.0,0.0,0.0,-4.5273,-4.487,-4.4663,-4.473,0.0,0.0,-4.4566,-4.5336,-4.4797,0.0,0.0,0.0,0.0,0.0,0.0,0.0,0.0,0.0,0.0,0.0,0.0,0.0,0.0,0.0,0.0,0.0,0.0,0.0,0.0,0.0,0.0,0.0,0.0,0.0,0.0,0.0,0.0,0.0,0.0,0.0,0.0,0.0,0.0,0.0,0.0,0.0,0.0,0.0,0.0,0.0,0.0,0.0,0.0,0.0,0.0,0.0,0.0,0.0,0.0,0.0,0.0,0.0,0.0,0.0,-3.4064,-3.6026,-3.8257,-4.0123,-4.1546,-4.0893,-4.045,-4.0392,-3.8719,-3.6642,0.0,0.0,0.0,0.0,0.0,0.0,0.0,0.0,0.0,0.0,0.0,0.0,0.0,0.0,0.0,0.0,0.0,0.0,0.0,0.0,0.0,0.0,0.0,0.0,0.0,0.0,0.0,0.0,0.0,0.0,0.0,0.0,0.0,0.0,0.0,0.0,0.0,0.0,0.0,0.0,0.0,0.0,-4.5117,-4.5221,0.0,0.0,0.0,-4.5163,-4.5528,0.0,0.0,0.0,0.0,0.0,0.0,0.0,0.0,0.0,0.0,0.0,0.0,0.0,0.0,0.0,0.0,0.0,0.0,0.0,0.0,0.0,0.0,0.0,0.0,0.0,0.0,0.0,0.0,0.0,0.0,0.0,0.0,0.0,0.0,0.0,0.0,0.0,0.0,0.0,0.0,0.0,0.0,0.0,0.0,0.0,0.0,0.0,0.0,0.0,0.0,0.0,0.0,0.0,0.0,0.0,0.0,0.0,-3.5526,-3.8584,-4.0296,-4.0489,-4.0312,-3.9912,-3.9277,-3.7411,0.0,0.0,0.0,0.0,0.0,0.0,0.0,0.0,0.0,0.0,0.0,0.0,0.0,0.0,0.0,0.0,0.0,0.0,0.0,0.0,0.0,0.0,0.0,0.0,0.0,0.0,0.0,-2.789,0.0,0.0,0.0,0.0,0.0,0.0,0.0,0.0,0.0,0.0,0.0,0.0,0.0,0.0,-4.4172,-4.5186,-4.5572,-4.5723,0.0,0.0,-4.5586,-4.5586,-4.5586,-4.524,0.0,0.0,0.0,0.0,0.0,0.0,0.0,0.0,0.0,0.0,0.0,0.0,0.0,0.0,0.0,0.0,0.0,0.0,0.0,0.0,0.0,0.0,0.0,0.0,0.0,0.0,0.0,0.0,0.0,0.0,0.0,0.0,0.0,0.0,0.0,0.0,0.0,0.0,0.0,0.0,0.0,0.0,0.0,0.0,0.0,0.0,0.0,0.0,0.0,0.0,0.0,0.0,0.0,0.0,0.0,-3.5474,-3.8065,-3.9719,-4.0446,-3.9758,-3.9354,-3.9258,-3.6892,-3.4757,0.0,0.0,0.0,0.0,0.0,0.0,0.0,0.0,0.0,0.0,0.0,0.0,0.0,0.0,0.0,0.0,0.0,0.0,0.0,0.0,0.0,0.0,0.0,0.0,0.0,0.0,0.0,0.0,0.0,0.0,0.0,0.0,0.0,0.0,0.0,0.0,0.0,0.0,0.0,0.0,0.0,-4.5227,-4.4659,-4.516,-4.562,0.0,0.0,-4.5586,-4.5586,-4.5586,-4.5028,-4.3431,0.0,0.0,0.0,0.0,0.0,0.0,0.0,0.0,0.0,0.0,0.0,0.0,0.0,0.0,0.0,0.0,0.0,0.0,0.0,0.0,0.0,0.0,0.0,0.0,0.0,0.0,0.0,0.0,0.0,0.0,0.0,0.0,0.0,0.0,0.0,0.0,0.0,0.0,0.0,0.0,0.0,0.0,0.0,0.0,0.0,0.0,0.0,0.0,0.0,0.0,0.0,0.0,0.0,-3.2968,-3.5488,-3.7488,-3.8911,-3.9681,-3.8931,-3.8238,-3.77,-3.6757,-3.4968,0.0,0.0,0.0,0.0,0.0,0.0,0.0,0.0,0.0,0.0,0.0,0.0,0.0,0.0,0.0,0.0,0.0,0.0,0.0,0.0,0.0,0.0,0.0,0.0,0.0,0.0,0.0,0.0,-3.1256,-3.2116,-3.2535,0.0,0.0,0.0,0.0,0.0,0.0,0.0,0.0,0.0,0.0,-4.487,-4.5144,-4.5426,0.0,0.0,-4.5586,-4.5586,-4.5586,-4.5586,-4.5201,-4.4028,-4.3835,0.0,0.0,0.0,0.0,0.0,0.0,0.0,0.0,0.0,0.0,0.0,0.0,0.0,0.0,0.0,0.0,0.0,0.0,0.0,0.0,0.0,0.0,0.0,0.0,0.0,0.0,0.0,0.0,0.0,0.0,0.0,0.0,0.0,0.0,0.0,0.0,0.0,0.0,0.0,0.0,0.0,0.0,0.0,0.0,0.0,0.0,0.0,0.0,0.0,0.0,0.0,0.0,-3.2949,-3.5488,-3.6892,-3.8161,-3.9258,-3.82,-3.7315,-3.6719,-3.6219,-3.4622,0.0,0.0,0.0,0.0,0.0,0.0,0.0,0.0,0.0,0.0,0.0,0.0,0.0,0.0,0.0,0.0,0.0,0.0,0.0,0.0,0.0,0.0,0.0,0.0,0.0,0.0,0.0,0.0,-3.2253,-3.3063,-3.3964,0.0,0.0,0.0,0.0,0.0,0.0,0.0,0.0,0.0,0.0,-4.4893,-4.5509,-4.5586,-4.5586,-4.5586,-4.5586,-4.5586,-4.5586,-4.5586,-4.5297,-4.4432,0.0,0.0,0.0,0.0,0.0,0.0,0.0,0.0,0.0,0.0,0.0,0.0,0.0,0.0,0.0,0.0,0.0,0.0,0.0,0.0,0.0,0.0,0.0,0.0,0.0,0.0,0.0,0.0,0.0,0.0,0.0,0.0,0.0,0.0,0.0,0.0,0.0,0.0,0.0,0.0,0.0,0.0,0.0,0.0,0.0,0.0,0.0,0.0,0.0,0.0,0.0,0.0,0.0,-3.2949,-3.5468,-3.6295,-3.7546,-3.9142,-3.7623,-3.6699,-3.6642,-3.5122,-3.3468,-3.1756,0.0,0.0,0.0,0.0,0.0,0.0,0.0,0.0,0.0,0.0,0.0,0.0,0.0,0.0,0.0,0.0,0.0,0.0,0.0,0.0,0.0,0.0,0.0,0.0,0.0,0.0,-3.1359,-3.1874,-3.2672,0.0,0.0,0.0,0.0,0.0,0.0,0.0,0.0,0.0,0.0,-4.5009,-4.5566,-4.5586,-4.5586,-4.5586,-4.5586,-4.5586,-4.5586,-4.5586,-4.5586,-4.5297,0.0,0.0,0.0,0.0,0.0,0.0,0.0,0.0,0.0,0.0,0.0,0.0,0.0,0.0,0.0,0.0,0.0,0.0,0.0,0.0,0.0,0.0,0.0,0.0,0.0,0.0,0.0,-3.2022,-3.0966,0.0,0.0,0.0,0.0,0.0,0.0,0.0,0.0,0.0,0.0,0.0,-3.3815,-3.5002,0.0,0.0,0.0,0.0,0.0,0.0,0.0,0.0,0.0,0.0,0.0,0.0,-3.2679,-3.4584,-3.5468,-3.6449,-3.7507,-3.6469,-3.5911,-3.5897,-3.5372,-3.4007,-3.1756,0.0,0.0,0.0,0.0,0.0,0.0,0.0,0.0,0.0,0.0,0.0,0.0,0.0,0.0,0.0,0.0,0.0,0.0,0.0,0.0,0.0,0.0,0.0,0.0,0.0,-3.221,0.0,0.0,0.0,0.0,0.0,0.0,0.0,0.0,0.0,0.0,0.0,-4.3662,-4.422,-4.5047,-4.5586,-4.5586,-4.5586,-4.5586,0.0,0.0,0.0,0.0,0.0,0.0,0.0,0.0,0.0,0.0,0.0,0.0,0.0,0.0,-4.3528,-4.0966,-4.0277,-4.0162,-4.0431,0.0,0.0,0.0,0.0,0.0,0.0,0.0,0.0,0.0,0.0,0.0,0.0,0.0,0.0,-3.3311,0.0,-3.0934,0.0,0.0,0.0,0.0,0.0,0.0,0.0,0.0,-3.5926,-3.6644,-3.606,-3.7338,-3.7484,0.0,-3.5902,-3.4064,0.0,0.0,0.0,0.0,0.0,0.0,0.0,0.0,-3.2949,-3.4603,-3.5218,-3.5892,-3.6622,-3.5911,-3.5507,-3.5488,-3.5218,-3.4276,-3.2622,-3.1468,-2.9948,0.0,0.0,0.0,0.0,0.0,0.0,0.0,0.0,0.0,0.0,0.0,0.0,0.0,0.0,0.0,0.0,0.0,0.0,0.0,0.0,0.0,0.0,0.0,-3.295,0.0,0.0,0.0,0.0,0.0,0.0,0.0,0.0,0.0,-4.1777,-4.3258,-4.4412,-4.4701,-4.524,-4.5586,-4.5586,0.0,0.0,0.0,0.0,0.0,0.0,0.0,-4.5586,-4.5586,-4.5586,-4.5586,-4.5586,-4.5586,-4.5586,-4.5586,0.0,0.0,-4.2698,-4.2027,-4.1912,-4.22,-4.2951,-4.3431,-4.3181,-4.3989,-4.4586,0.0,0.0,0.0,0.0,0.0,0.0,0.0,0.0,-3.448,-3.388,0.0,-3.2414,0.0,0.0,0.0,0.0,0.0,0.0,0.0,0.0,-3.7914,-3.8633,-3.7984,-3.8485,-3.8785,-3.8804,-3.8169,-3.7065,-3.5449,-3.3045,0.0,0.0,0.0,0.0,0.0,0.0,-3.3776,-3.5353,-3.5468,-3.5878,-3.6584,-3.5911,-3.5507,-3.5468,-3.4699,-3.4237,-3.4141,-3.2641,-3.1371,-3.0467,-2.8683,0.0,0.0,0.0,0.0,0.0,0.0,0.0,0.0,0.0,0.0,0.0,0.0,0.0,0.0,0.0,0.0,0.0,0.0,0.0,0.0,-3.3309,0.0,0.0,0.0,0.0,0.0,0.0,0.0,0.0,0.0,0.0,-4.4126,-4.4335,-4.4643,-4.547,0.0,0.0,0.0,0.0,-4.5586,-4.5586,-4.5586,-4.5586,-4.5586,-4.5586,-4.5586,-4.5586,0.0,0.0,-4.5586,-4.5586,-4.5586,-4.5586,-4.5586,-4.5586,-4.5509,-4.4759,-4.4528,-4.5259,-4.4816,-4.4643,-4.5336,-4.5413,-4.5509,-3.8011,0.0,0.0,0.0,0.0,-3.6608,-3.7198,-3.8166,-3.7357,-3.6766,-3.6291,-3.4355,0.0,0.0,0.0,0.0,0.0,0.0,-3.6459,-3.7479,-3.7829,-3.8238,-3.8753,-3.8531,-3.8892,-3.9662,-3.792,-3.7142,-3.7199,-3.5353,-3.3372,-3.1371,0.0,0.0,0.0,0.0,-3.4083,-3.4584,-3.5199,-3.5622,-3.5853,-3.5622,-3.5507,-3.5507,-3.5257,-3.4834,-3.4218,-3.3718,-3.2814,-3.1391,-3.0094,0.0,0.0,0.0,0.0,0.0,0.0,0.0,0.0,0.0,0.0,0.0,0.0,0.0,0.0,0.0,0.0,0.0,0.0,0.0,-3.2996,-3.3392,-3.398,0.0,0.0,0.0,0.0,0.0,0.0,0.0,0.0,0.0,-4.5105,-4.522,-4.5316,0.0,0.0,-4.5586,-4.5586,-4.5586,-4.5586,-4.5586,0.0,0.0,0.0,-4.5586,-4.5586,-4.5586,-4.5586,-4.5586,-4.5586,-4.5586,-4.5586,-4.5586,-4.5586,-4.5586,-4.5566,-4.5413,-4.5316,-4.5528,-4.5374,-4.5278,-4.5528,-4.5586,-4.5586,-4.0338,-3.8405,-3.7894,-3.7847,-3.8121,-3.8042,-3.8629,-3.9574,-3.8841,-3.8535,-3.8479,-3.6672,-3.5574,-3.5021,-3.3815,0.0,0.0,0.0,-3.7749,-3.8977,-3.8436,-3.8544,-3.9252,-3.8978,-3.9261,-3.9986,-3.8131,-3.7507,-3.7988,-3.6315,-3.4564,-3.2776,0.0,0.0,-3.2737,-3.3699,-3.4372,-3.4718,-3.5238,-3.5507,-3.5507,-3.5507,-3.5507,-3.5507,-3.5507,-3.5257,-3.4737,-3.4737,-3.4083,-3.2737,-3.1757,-3.0371,0.0,0.0,0.0,0.0,0.0,0.0,0.0,0.0,0.0,0.0,0.0,-2.7304,-2.7401,0.0,0.0,0.0,-3.1878,-3.3264,-3.4595,-3.5488,0.0,0.0,0.0,0.0,0.0,0.0,0.0,-4.4107,-4.4478,-4.4863,-4.5509,-4.5586,-4.5586,-4.5586,-4.5586,-4.5586,-4.5586,0.0,-4.5586,-4.5586,-4.5586,-4.5586,-4.5586,-4.5586,-4.5586,-4.5586,-4.5586,-4.5586,-4.5586,-4.5586,-4.5586,-4.5586,-4.5586,-4.5586,-4.5586,-4.5586,-4.5586,-4.5586,-4.5586,-4.5586,-4.5586,-4.5586,-4.5586,-4.1937,-4.1089,-3.9867,-3.9314,-3.9309,-3.9075,-3.9414,-4.012,-3.9337,-3.9414,-4.0043,-3.8925,-3.8093,-3.7506,-3.711,0.0,0.0,-3.8666,-3.9319,-4.0081,-3.9438,-3.9289,-3.958,-3.9528,-3.9702,-3.9948,-3.8553,-3.7892,-3.7815,-3.6276,-3.5103,-3.4314,-3.4295,-3.4276,-3.4199,-3.4257,-3.4699,-3.5488,-3.5488,-3.5507,-3.5507,-3.5507,-3.5507,-3.5507,-3.5449,-3.5391,-3.5391,-3.5334,-3.493,-3.4122,-3.3256,-3.1981,-3.0199,0.0,0.0,0.0,0.0,0.0,0.0,0.0,0.0,0.0,0.0,0.0,0.0,0.0,0.0,0.0,-3.4176,0.0,-3.6845,-3.8723,0.0,0.0,0.0,-4.103,-4.1975,-4.247,-4.3177,-4.4299,0.0,0.0,0.0,0.0,-4.5586,-4.5586,-4.5586,-4.5586,-4.5586,-4.5586,-4.5586,-4.5586,-4.5586,-4.5586,-4.5586,-4.5586,-4.5586,-4.5586,-4.5586,-4.5586,-4.5586,-4.5586,-4.5586,-4.5586,-4.5586,-4.5586,-4.5586,-4.5586,-4.5586,-4.5586,-4.5586,-4.5586,-4.5586,-4.5586,-4.5586,-4.2745,-4.1992,-4.1687,-4.1354,-4.0971,-4.0521,-4.0577,-4.0939,-4.0158,-4.0041,-4.0332,-3.9204,-3.8402,-3.7913,-3.8454,-3.8777,-3.9027,-3.9544,-3.991,-4.0081,-3.9668,-3.951,-3.9603,-3.9195,-3.9032,-3.9014,-3.769,-3.7007,-3.6949,-3.6007,-3.5411,-3.5199,-3.5199,-3.4853,-3.4257,-3.4853,-3.5295,-3.5507,-3.5507,-3.5507,-3.5507,-3.5507,-3.5507,-3.5488,-3.4853,-3.4507,-3.4487,-3.3872,-3.341,-3.3199,-3.241,-3.1405,-3.0161,-2.8496,0.0,0.0,0.0,0.0,0.0,0.0,0.0,0.0,0.0,-2.9798,-2.8006,0.0,-3.3044,0.0,-3.5256,-3.7149,-3.8747,-3.8896,0.0,0.0,-4.2068,-4.2738,-4.4152,-4.4633,-4.4975,-4.5259,-4.5396,-4.5532,-4.5586,-4.5586,-4.5586,-4.5586,-4.5586,-4.5586,-4.5586,-4.5586,-4.5586,-4.5586,-4.5586,-4.5586,-4.5586,-4.5586,-4.5586,-4.5586,-4.5586,-4.5586,-4.5586,-4.5586,-4.5586,-4.5586,-4.5586,-4.5586,-4.5586,-4.5586,-4.5586,-4.5586,-4.5586,-4.5586,-4.5586,-4.5586,-4.5586,-4.3222,-4.2837,-4.2837,-4.2677,-4.2329,-4.111,-4.0753,-4.1016,-4.0384,-4.025,-4.0469,-3.984,-3.9397,-3.9142,-3.9623,-3.9815,-3.9873,-4.0128,-4.0286,-4.025,-3.9963,-3.9882,-3.9947,-3.9185,-3.8879,-3.8965,-3.7448,-3.6719,-3.6661,-3.5878,-3.5507,-3.5507,-3.5507,-3.5257,-3.4834,-3.5276,-3.5507,-3.5507,-3.5507,-3.5507,-3.5507,-3.5507,-3.5315,-3.493,-3.4449,-3.4007,-3.3622,-3.316,-3.2891,-3.2891,-3.2468,-3.1981,-3.1366,-3.0126,-2.9109,0.0,0.0,0.0,0.0,0.0,0.0,0.0,0.0,0.0,0.0,0.0,-3.4969,0.0,-3.7765,0.0,-4.0903,-4.126,-4.2036,-4.3493,-4.3866,-4.4365,-4.5227,-4.5495,-4.5586,-4.5586,-4.5586,-4.5586,-4.5586,-4.5586,-4.5586,-4.5586,-4.5586,-4.5586,-4.5586,-4.5586,-4.5586,-4.5586,-4.5586,-4.5586,-4.5586,-4.5586,-4.5586,-4.5586,-4.5586,-4.5586,-4.5586,-4.5586,-4.5586,-4.5586,-4.5586,-4.5586,-4.5586,-4.5586,-4.5586,-4.5547,-4.5278,-4.5182,-4.5509,-4.5586,-4.5509,-4.3479,-4.3479,-4.3479,-4.3424,-4.3183,-4.123,-4.0632,-4.0915,-4.034,-4.025,-4.0489,-4.0489,-4.0489,-4.0489,-4.0489,-4.0489,-4.0489,-4.0489,-4.0489,-4.0489,-4.025,-4.0267,-4.0469,-3.9369,-3.8948,-3.9046,-3.7488,-3.6661,-3.6526,-3.5853,-3.5507,-3.5507,-3.5507,-3.5507,-3.5507,-3.5507,-3.5507,-3.5507,-3.5507,-3.5507,-3.5507,-3.5507,-3.5141,-3.441,-3.4141,-3.368,-3.2949,-3.2795,-3.2756,-3.2756,-3.2852,-3.2891,-3.2891,-3.2141,-3.1629,0.0,-3.0893,0.0,0.0,0.0,0.0,0.0,0.0,0.0,0.0,-3.5416,-3.7113,-3.911,-4.0932,-4.2268,-4.3035,-4.4345,-4.514,-4.518,-4.5419,-4.5586,-4.5586,-4.5586,-4.5586,-4.5586,-4.5586,-4.5586,-4.5586,-4.5586,-4.5586,-4.5586,-4.5586,-4.5586,-4.5586,-4.5586,-4.5586,-4.5586,-4.5586,-4.5586,-4.5586,-4.5586,-4.5586,-4.5586,-4.5586,-4.5586,-4.5586,-4.5586,-4.5586,-4.5586,-4.5586,-4.5547,-4.547,-4.5413,-4.5355,-4.5163,-4.4605,-4.4432,-4.5124,-4.5201,-4.5028,-4.3479,-4.3479,-4.3479,-4.313,-4.2433,-4.1379,-4.1256,-4.1688,-4.0587,-4.025,-4.0489,-4.0489,-4.0489,-4.0489,-4.0489,-4.0489,-4.0489,-4.0489,-4.0489,-4.0489,-4.0457,-4.0457,-4.045,-3.9611,-3.8881,-3.8219,-3.7199,-3.6353,-3.5705,-3.557,-3.5507,-3.5507,-3.5507,-3.5507,0.0,0.0,0.0,0.0,-3.5507,-3.5507,-3.5507,-3.5507,-3.5449,-3.5218,-3.3891,0.0,-3.2891,-3.2275,-3.1929,-3.1948,-3.2564,0.0,0.0,0.0,0.0,0.0,0.0,0.0,0.0,0.0,0.0,0.0,-3.6061,-3.5594,-3.5675,-3.8571,-4.1006,-4.2326,-4.342,-4.419,-4.463,-4.5167,-4.5495,-4.5513,-4.5568,-4.5586,-4.5586,-4.5586,-4.5586,-4.5586,-4.5586,-4.5586,-4.5586,-4.5586,-4.5586,-4.5586,-4.5586,-4.5586,-4.5586,-4.5586,-4.5586,-4.5586,-4.5586,-4.5586,-4.5586,-4.5586,-4.5586,-4.5586,-4.5586,-4.5586,-4.5586,-4.5586,-4.5586,-4.5586,-4.5586,-4.5336,-4.4701,-4.4547,-4.4355,-4.372,-4.3451,-4.3566,-4.4335,-4.4028,-4.3528,-4.3479,0.0,-4.3479,-4.302,0.0,-4.1442,-4.1095,-4.1121,-4.022,-4.012,-4.0489,-4.0489,-4.0489,-4.0489,-4.0489,-4.0489,-4.0489,-4.0489,-4.0489,-4.0489,-4.0489,-4.0277,-3.9892,-3.9046,-3.82,-3.7334,-3.6507,-3.5897,-3.5512,-3.5507,-3.5507,-3.5507,-3.5507,-3.5507,-3.5507,-3.5507,-3.5507,-3.5507,-3.5507,-3.5507,-3.5507,-3.5507,-3.5315,-3.4853,0.0,0.0,0.0,0.0,0.0,0.0,0.0,0.0,0.0,0.0,0.0,-3.4103,-3.418,-3.4526,-3.5372,-3.6238,-3.7194,-3.8309,-3.9311,-3.9495,-3.8669,-4.0971,-4.2859,-4.3844,-4.4486,-4.4919,-4.5096,-4.54,-4.5586,-4.5586,-4.5586,-4.5586,-4.5586,-4.5586,-4.5586,-4.5586,-4.5586,-4.5586,-4.5586,-4.5586,-4.5586,-4.5586,-4.5586,-4.5586,-4.5586,-4.5586,-4.5586,-4.5586,-4.5586,-4.5586,-4.5586,-4.5586,-4.5586,-4.5586,-4.5586,-4.5586,-4.5586,-4.5586,-4.5586,-4.5566,-4.5259,-4.4778,-4.4393,-4.3989,-4.3585,-4.3162,-4.2758,-4.2585,-4.3008,-4.3085,-4.2951,-4.3479,-4.3479,-4.3479,-4.2947,-4.2047,-4.1405,-4.0708,-4.0067,0.0,0.0,0.0,-4.0489,-4.0489,-4.0489,-4.0489,-4.0489,-4.0489,-4.0489,-4.0489,-4.0489,-4.0489,-4.0142,-3.9469,-3.8469,-3.7642,-3.6892,-3.5949,-3.5507,-3.5507,-3.5507,-3.5507,-3.5507,-3.5507,-3.5507,-3.5507,-3.5507,-3.5507,-3.5507,-3.5507,-3.5507,-3.5507,-3.5507,-3.5161,-3.443,-3.4276,-3.3853,-3.316,-3.3122,-3.3141,-3.3141,-3.3276,-3.368,-3.4372,-3.4564,-3.5257,-3.6584,-3.6988,-3.7488,-3.818,-3.9027,-3.9585,-3.9738,-4.1816,-4.2673,-4.1666,-4.2841,-4.3932,-4.47,-4.4966,-4.5118,-4.5161,-4.5438,-4.5586,-4.5586,-4.5586,-4.5586,-4.5586,-4.5586,-4.5586,-4.5586,-4.5586,-4.5586,-4.5586,-4.5586,-4.5586,-4.5586,-4.5586,-4.5586,-4.5586,-4.5586,-4.5586,-4.5586,-4.5586,-4.5586,-4.5586,-4.5586,-4.5586,-4.5586,-4.5586,-4.5586,-4.5566,-4.547,-4.5374,-4.5278,-4.4662,-4.4085,-4.3855,-4.3297,-4.2835,-4.2662,-4.2085,-4.1566,-4.1623,-4.2124,-4.2335,-4.3479,-4.3479,-4.3479,-4.2635,-4.1277,-4.1167,-4.0394,-3.932,-3.9791,-4.0213,-4.0489,-4.0489,-4.0489,-4.0489,-4.0489,-4.0489,-4.0489,-4.0489,-4.0489,0.0,-4.0489,-4.0446,-4.0239,-3.8738,-3.795,-3.7719,-3.6257,-3.5507,-3.5507,-3.5507,-3.5507,-3.5507,-3.5507,-3.5507,-3.5507,-3.5507,-3.5507,-3.5507,-3.5507,-3.5507,-3.5507,-3.5507,-3.5449,-3.5315,-3.4584,-3.416,-3.4007,-3.4026,-3.4007,-3.4026,-3.4737,-3.5199,-3.5334,-3.5949,-3.6469,-3.6757,-3.8104,-3.8988,-3.9104,-3.9854,-4.0642,-4.1412,-4.247,-4.3011,-4.2919,-4.4075,-4.5025,-4.5419,-4.5243,-4.5222,-4.5495,-4.5568,-4.5586,-4.5586,-4.5586,-4.5586,-4.5586,-4.5586,-4.5586,-4.5586,-4.5586,-4.5586,-4.5586,-4.5586,-4.5586,-4.5586,-4.5586,-4.5586,-4.5586,-4.5586,-4.5586,-4.5586,-4.5586,-4.5586,-4.5586,-4.5586,-4.5509,-4.5586,-4.5509,-4.5393,-4.5374,-4.4893,-4.4528,-4.447,-4.3816,-4.3085,-4.2431,-4.2085,-4.1739,-4.1219,-4.0873,-4.0758,-4.0777,-4.095,-4.0912,-4.3479,-4.3479,-4.3479,-4.2561,-4.1056,-4.0175,-3.9527,-3.9171,-3.9622,-4.0003,-4.0304,-4.0422,-4.0489,-4.0489,-4.0489,-4.0489,-4.0489,-4.0489,-4.0489,-4.0489,-4.0489,-4.0008,-3.9123,-3.8354,-3.7526,-3.6622,-3.5892,-3.5507,-3.5507,-3.5507,-3.5507,-3.5507,-3.5507,-3.5507,-3.5507,-3.5507,-3.5507,-3.5507,-3.5507,-3.5507,-3.5507,-3.5507,-3.5507,-3.5507,-3.5103,-3.4911,-3.4891,-3.4911,-3.4911,-3.4911,-3.5282,-3.5507,-3.5526,-3.6257,-3.6911,-3.7392,-3.8584,-3.9488,-3.9931,-4.0277,-4.0662,-4.1104,-4.2335,-4.3085,-4.3085,-4.4498,-4.5438,-4.5586,-4.5438,-4.5419,-4.5586,-4.5586,-4.5586,-4.5586,-4.5586,-4.5586,-4.5586,-4.5586,-4.5586,-4.5586,-4.5586,-4.5586,-4.5586,-4.5586,-4.5586,-4.5586,-4.5586,-4.5586,-4.5586,-4.5586,-4.5586,-4.5586,-4.5586,-4.5586,-4.5566,-4.5163,-4.4951,-4.4893,-4.4509,-4.4278,-4.4239,-4.3855,-4.3701,-4.3585,-4.297,-4.2335,-4.1816,-4.1393,-4.095,-4.0681,-4.0489,-4.0489,-4.0489,-4.0489,-4.0489,-4.3479,-4.3479,-4.3479,-4.258,-4.1001,-3.9588,-3.898,-3.9054,-3.9358,-3.9668,-4.0003,-4.0356,-4.0489,-4.0489,-4.0489,-4.0489,-4.0489,-4.0489,-4.0489,-4.0489,-4.0489,-3.9777,-3.8604,-3.8219,-3.7334,-3.6122,-3.5699,-3.5507,-3.5507,-3.5507,-3.5507,-3.5507,-3.5507,-3.5507,-3.5507,-3.5507,-3.5507,-3.5507,-3.5507,-3.5507,-3.5507,-3.5507,-3.5507,-3.5507,-3.5488,-3.5507,-3.5507,-3.5507,-3.5507,-3.5507,-3.5507,-3.5507,-3.5526,-3.6276,-3.7103,-3.795,-3.8815,-3.9642,-4.0392,-4.0489,-4.0566,-4.0796,-4.222,-4.3181,-4.3451,-4.472,-4.5586,-4.5586,-4.5586,-4.5586,-4.5586,-4.5586,-4.5586,-4.5586,-4.5586,-4.5586,-4.5586,-4.5586,-4.5586,-4.5586,-4.5586,-4.5586,-4.5586,-4.5586,-4.5586,-4.5586,-4.5586,-4.5586,-4.5586,-4.5586,-4.5586,-4.5586,-4.5586,-4.5413,-4.5278,-4.4739,-4.4297,-4.4105,-4.3566,-4.3316,-4.3201,-4.3028,-4.2816,-4.2701,-4.2085,-4.1566,-4.1431,-4.1008,-4.0604,-4.0489,-4.0315,-4.0177,-4.0142,-3.9931,-4.0123,-4.3479,-4.3479,-4.3479,-4.2561,-4.1093,-4.0157,-3.9417,-3.8884,-3.9027,-3.9339,-3.9747,-4.0229,-4.0489,-4.0489,-4.0489,-4.0489,-4.0489,-4.0489,-4.0489,-4.0489,-4.0489,-4.0427,-4.0008,-3.8681,-3.7911,-3.7507,-3.6219,-3.5507,-3.5507,-3.5507,-3.5507,-3.5507,-3.5507,-3.5507,-3.5507,-3.5507,-3.5507,-3.5507,-3.5507,-3.5507,-3.5507,-3.5507,-3.5507,-3.5507,-3.5507,-3.5507,-3.5507,-3.5507,-3.5507,-3.5507,-3.5507,-3.5507,-3.5584,-3.6276,-3.7103,-3.795,-3.8834,-3.9642,-4.0392,-4.0489,-4.0816,-4.1643,-4.2508,-4.3374,-4.4066,-4.5028,-4.5586,-4.5586,-4.5586,-4.5586,-4.5586,-4.5586,-4.5586,-4.5586,-4.5586,-4.5586,-4.5586,-4.5586,-4.5586,-4.5586,-4.5586,-4.5586,-4.5586,-4.5586,-4.5586,-4.5586,-4.5586,-4.5586,-4.5586,-4.5586,-4.5528,-4.5547,-4.5566,-4.5124,-4.4451,-4.4239,-4.3835,-4.3316,-4.3124,-4.2893,-4.2701,-4.2297,-4.1912,-4.1835,-4.1296,-4.0777,-4.07,-4.0508,-4.0527,-4.0392,-4.0008,-3.9431,-3.9335,-3.8911,-3.8931,-4.3479,-4.3479,-4.3479,-4.2855,-4.1754,-4.0946,-4.0414,-4.0115,-3.9917,-3.9906,-3.997,-3.9987,-4.0157,-4.0489,-4.0489,-4.0489,-4.0489,-4.0489,-4.0489,-4.0489,-4.0489,-4.0258,-3.9681,-3.8584,-3.7757,-3.7199,-3.6045,-3.5507,-3.5507,-3.5507,-3.5507,-3.5507,-3.5507,-3.5507,-3.5507,-3.5507,-3.5507,-3.5507,-3.5507,-3.5507,-3.5507,-3.5507,-3.5507,-3.5507,-3.5507,-3.5507,-3.5507,-3.5507,-3.5507,-3.5507,-3.5507,-3.5507,-3.5507,-3.6757,-3.7623,-3.8046,-3.9258,-4.0142,-4.0469,-4.0489,-4.0642,-4.1027,-4.2316,-4.3258,-4.3605,-4.4816,-4.5586,-4.5586,-4.5586,-4.5586,-4.5586,-4.5586,-4.5586,-4.5586,-4.5586,-4.5586,-4.5586,-4.5586,-4.5586,-4.5586,-4.5586,-4.5586,-4.5586,-4.5586,-4.5586,-4.5586,-4.5586,-4.5586,-4.5586,-4.5586,-4.5355,-4.4951,-4.4836,-4.4662,-4.4105,-4.3278,-4.2816,-4.2374,-4.1893,-4.1585,-4.1566,-4.1354,-4.1027,-4.1066,-4.0739,-4.0508,-4.0527,-4.0489,-4.0489,-4.0258,-3.9835,-3.9181,-3.8642,-3.8238,-3.8584,-4.3479,-4.3479,-4.3479,-4.3039,-4.2268,-4.1699,-4.1313,-4.1056,-4.0707,-4.041,-4.0253,-3.9939,-3.9946,-4.025,-4.0336,-4.0441,-4.0489,-4.0489,-4.0489,-4.0489,-4.0489,-4.02,-3.958,-3.8488,-3.768,-3.6969,-3.6007,-3.5507,-3.5507,-3.5507,-3.5507,-3.5507,-3.5507,-3.5507,-3.5507,-3.5507,-3.5507,-3.5507,-3.5507,-3.5507,-3.5507,-3.5507,-3.5507,-3.5507,-3.5507,-3.5507,-3.5507,-3.5507,-3.5507,-3.5507,-3.5507,-3.5507,-3.5545,-3.6661,-3.7526,-3.8084,-3.9565,-4.0489,-4.0489,-4.0489,-4.0489,-4.0604,-4.1912,-4.2854,-4.3278,-4.4412,-4.5297,-4.5586,-4.5586,-4.5586,-4.5586,-4.5586,-4.5586,-4.5586,-4.5586,-4.5586,-4.5586,-4.5586,-4.5586,-4.5586,-4.5586,-4.5586,-4.5586,-4.5586,-4.5586,-4.5586,-4.5586,-4.5586,-4.5528,-4.5374,-4.4989,-4.4355,-4.397,-4.3605,-4.3528,-4.2758,-4.1854,-4.1373,-4.0931,-4.0662,-4.0489,-4.0508,-4.0508,-4.0739,-4.0566,-4.0489,-4.0489,-4.0489,-4.0085,-3.9738,-3.9181,-3.845,-3.7777,-3.7507,-3.793,-4.3479,-4.3479,-4.3479,-4.3057,-4.2304,-4.2268,-4.1827,-4.1277,-4.1126,-4.08,-4.0383,-4.0226,-4.0038,-3.9683,-3.9943,-4.025,-4.0473,-4.0489,-4.0489,-4.0489,-4.0489,-4.0489,-4.0315,-3.8796,-3.7988,-3.7719,-3.6334,-3.5565,-3.5507,-3.5507,-3.5507,-3.5507,-3.5507,-3.5507,-3.5507,-3.5507,-3.5507,-3.5507,-3.5507,-3.5507,-3.5507,-3.5507,-3.5507,-3.5507,-3.5507,-3.5507,-3.5507,-3.5507,-3.5507,-3.5507,-3.5507,-3.5507,-3.5507,-3.5647,-3.6507,-3.8007,-3.9585,-4.0489,-4.0489,-4.0489,-4.0489,-4.0604,-4.1412,-4.2239,-4.3066,-4.3951,-4.4778,-4.5528,-4.5586,-4.5586,-4.5586,-4.5586,-4.5586,-4.5586,-4.5586,-4.5586,-4.5586,-4.5586,-4.5586,-4.5586,-4.5586,-4.5586,-4.5586,-4.5586,-4.5586,-4.5586,-4.5586,-4.5547,-4.5374,-4.4874,-4.4412,-4.3912,-4.3008,-4.1931,-4.1931,-4.1758,-4.1354,-4.0969,-4.07,-4.0489,-4.0489,-4.0489,-4.0489,-4.0489,-4.0489,-4.0489,-4.0489,-4.0104,-3.9431,-3.8777,-3.7834,-3.7103,-3.6873,-3.6142,-3.6699,-4.3479,-4.3479,-4.3479,-4.3314,-4.3075,-4.3057,-4.2892,-4.258,-4.2103,-4.1544,-4.0894,-3.9981,-3.9528,-3.9527,-3.9345,-3.9624,-4.0212,-4.0406,-4.0489,-4.0489,-4.0489,-4.0489,-4.0373,-3.9335,-3.8507,-3.7873,-3.6834,-3.5988,-3.5545,-3.5507,-3.5507,-3.5507,-3.5507,-3.5507,-3.5507,-3.5507,-3.5507,-3.5507,-3.5507,-3.5507,-3.5507,-3.5507,-3.5507,-3.5507,-3.5507,-3.5507,-3.5507,-3.5507,-3.5507,-3.5507,-3.5507,-3.5507,-3.5603,-3.6526,-3.7853,-3.9411,-4.0162,-4.0489,-4.0489,-4.0489,-4.0489,-4.0566,-4.1316,-4.2143,-4.3028,-4.3855,-4.4662,-4.5374,-4.5586,-4.5586,-4.5586,-4.5586,-4.5586,-4.5586,-4.5586,-4.5586,-4.5586,-4.5586,-4.5586,-4.5586,-4.5586,-4.5586,-4.5586,-4.5586,-4.5586,-4.5586,-4.5586,-4.5336,-4.4855,-4.4451,-4.3912,-4.2951,-4.22,-4.1604,-4.0989,-4.0969,-4.0816,-4.0662,-4.0489,-4.0489,-4.0489,-4.0489,-4.0489,-4.0335,-4.0354,-4.0104,-3.9931,-3.9123,-3.8507,-3.7757,-3.6776,-3.6411,-3.6045,-3.5718,-3.6507,-4.3479,-4.3479,-4.3479,-4.3479,-4.3532,-4.3631,-4.3597,-4.3458,-4.3026,-4.2297,-4.127,-4.0041,-3.944,-3.9287,-3.897,-3.9201,-3.9924,-4.0319,-4.0489,-4.0489,-4.0489,-4.0489,-4.0354,-3.9662,-3.8988,-3.8296,-3.7238,-3.6411,-3.5911,-3.5608,-3.5507,-3.5507,-3.5507,-3.5507,-3.5507,-3.5507,-3.5507,-3.5507,-3.5507,-3.5507,-3.5507,-3.5507,-3.5507,-3.5507,-3.5507,-3.5507,-3.5507,-3.5507,-3.5515,-3.5515,-3.5528,-3.5663,-3.6029,-3.7263,-3.8642,-3.9927,-4.0354,-4.0489,-4.0489,-4.0489,-4.0489,-4.0508,-4.1027,-4.1739,-4.2604,-4.3431,-4.4259,-4.4951,-4.547,-4.5586,-4.5586,-4.5586,-4.5586,-4.5586,-4.5586,-4.5586,-4.5586,-4.5586,-4.5586,-4.5586,-4.5586,-4.5586,-4.5586,-4.5586,-4.5586,-4.5586,-4.5393,-4.4893,-4.4432,-4.3739,-4.3201,-4.2027,-4.1566,-4.1123,-4.0758,-4.0681,-4.0662,-4.0546,-4.0489,-4.0489,-4.0489,-4.0489,-4.0392,-4.0219,-3.9931,-3.9604,-3.9008,-3.818,-3.7469,-3.6796,-3.6353,-3.5955,-3.5738,-3.5584,-3.6372,-4.3479,-4.3479,-4.3479,-4.3479,-4.3548,-4.3772,-4.3772,-4.3545,-4.3749,-4.2868,-4.132,-4.0509,-3.9644,-3.9079,-3.8737,-3.9051,-3.9652,-4.0212,-4.0473,-4.0489,-4.0489,-4.0489,-4.045,-3.9777,-3.9354,-3.9084,-3.7546,-3.6757,-3.6699,-3.6122,-3.5757,-3.5622,-3.5661,-3.5661,-3.5545,-3.5565,-3.5507,-3.5507,-3.5507,-3.5507,-3.5507,-3.5507,-3.5507,-3.5507,-3.5488,-3.5501,-3.5501,-3.5501,-3.554,-3.559,-3.5591,-3.6017,-3.6751,-3.763,-3.8472,-3.9326,-4.0046,-4.045,-4.0489,-4.0489,-4.0489,-4.0508,-4.0546,-4.1008,-4.1893,-4.2643,-4.347,-4.4355,-4.5028,-4.5509,-4.5566,-4.5586,-4.5586,-4.5586,-4.5586,-4.5586,-4.5586,-4.5586,-4.5586,-4.5586,-4.5586,-4.5586,-4.5566,-4.5451,-4.5355,-4.5143,-4.4739,-4.4201,-4.3855,-4.2912,-4.2027,-4.1623,-4.12,-4.07,-4.0566,-4.0489,-4.0508,-4.0489,-4.0489,-4.0489,-4.0489,-4.0489,-4.0315,-4.0104,-3.9392,-3.9008,-3.8142,-3.7353,-3.6892,-3.6315,-3.593,-3.5666,-3.5584,-3.5565,-3.5949,-4.3479,-4.3479,-4.3479,-4.3479,-4.3532,-4.3631,-4.3597,-4.3532,-4.3631,-4.2631,-4.1032,-4.0146,-3.9323,-3.8577,-3.8156,-3.858,-3.958,-4.0023,-4.0321,-4.0473,-4.0489,-4.0489,-4.045,-4.0239,-3.9835,-3.92,-3.8161,-3.7603,-3.7546,-3.7315,-3.7219,-3.7123,-3.6603,-3.6353,-3.6276,-3.5795,-3.5507,-3.5507,-3.5507,-3.5507,-3.5507,-3.5507,-3.5507,-3.552,-3.5534,-3.5566,-3.5585,-3.5574,-3.5611,-3.5652,-3.5679,-3.6034,-3.6871,-3.7652,-3.8472,-3.9249,-4.0046,-4.0489,-4.0489,-4.0489,-4.0489,-4.0489,-4.0489,-4.0931,-4.1643,-4.2047,-4.2835,-4.3989,-4.4566,-4.4893,-4.5432,-4.5586,-4.5586,-4.5586,-4.5586,-4.5586,-4.5586,-4.5586,-4.5586,-4.5586,-4.5586,-4.5336,-4.4874,-4.4739,-4.4586,-4.4066,-4.3682,-4.3335,-4.2662,-4.222,-4.1527,-4.1008,-4.0623,-4.0489,-4.0489,-4.0489,-4.0489,-4.0489,-4.0489,-4.0489,-4.0489,-4.045,-4.0277,-3.9604,-3.8911,-3.8104,-3.7238,-3.668,-3.6238,-3.5968,-3.568,-3.5545,-3.5507,-3.568,-3.5949,-4.3479,-4.3479,-4.3479,-4.3479,-4.3513,-4.3612,-4.3631,-4.3548,-4.3646,-4.2648,-4.1092,-4.0185,-3.9379,-3.8595,-3.8108,-3.8549,-3.9557,-3.9962,-4.0251,-4.0473,-4.0489,-4.0489,-4.0489,-4.0489,-4.0277,-3.97,-3.8873,-3.8488,-3.845,-3.8161,-3.7988,-3.7873,-3.745,-3.6988,-3.6719,-3.6219,-3.5853,-3.5565,-3.5507,-3.5507,-3.5507,-3.5507,-3.5515,-3.5521,-3.5568,-3.564,-3.569,-3.5706,-3.5728,-3.5766,-3.5792,-3.6306,-3.7326,-3.7938,-3.8628,-3.9605,-4.0181,-4.0489,-4.0489,-4.0489,-4.0489,-4.0489,-4.0489,-4.07,-4.1277,-4.1527,-4.2374,-4.3124,-4.3951,-4.4509,-4.5009,-4.5451,-4.5566,-4.5586,-4.5586,-4.5586,-4.5586,-4.5586,-4.5586,-4.5586,-4.5586,-4.5143,-4.4566,-4.4297,-4.397,-4.3297,-4.2816,-4.2527,-4.1873,-4.1546,-4.1008,-4.0662,-4.0566,-4.0489,-4.0489,-4.0489,-4.0489,-4.0489,-4.0489,-4.0489,-4.0489,-4.0469,-4.0315,-3.8892,-3.795,-3.7046,-3.6199,-3.5988,-3.5661,-3.5507,-3.5507,-3.5507,-3.5507,-3.5507,-3.5718,-4.3479,-4.3479,-4.3479,-4.3479,-4.3529,-4.3804,-4.374,-4.3563,-4.3693,-4.2794,-4.1361,-4.0383,-3.9626,-3.8939,-3.8358,-3.8709,-3.951,-3.9797,-4.0082,-4.03,-4.0422,-4.0457,-4.0489,-4.0489,-4.0431,-4.0277,-3.9681,-3.9373,-3.9315,-3.8719,-3.8104,-3.818,-3.7988,-3.7526,-3.6815,-3.6661,-3.6122,-3.557,-3.5507,-3.5507,-3.5507,-3.5507,-3.5522,-3.5588,-3.5601,-3.5702,-3.5816,-3.5869,-3.588,-3.591,-3.5927,-3.657,-3.7838,-3.8249,-3.8896,-4.0115,-4.0412,-4.0489,-4.0489,-4.0489,-4.0489,-4.0489,-4.0489,-4.0489,-4.0681,-4.1219,-4.17,-4.2104,-4.3201,-4.4085,-4.4412,-4.4951,-4.5374,-4.5509,-4.5509,-4.5566,-4.5586,-4.5528,-4.5355,-4.5374,-4.5432,-4.5066,-4.4066,-4.3951,-4.3566,-4.2874,-4.2124,-4.1739,-4.1527,-4.1085,-4.0642,-4.0489,-4.0489,-4.0489,-4.0489,-4.0489,-4.0489,-4.0489,-4.0489,-4.0489,-4.0373,-4.0296,-3.9892,-3.8469,-3.7199,-3.6199,-3.5584,-3.5526,-3.5507,-3.5507,-3.5507,-3.5507,-3.5507,-3.5507,-3.5526,-4.3479,-4.3479,-4.3479,-4.3479,-4.3532,-4.3579,-4.3597,-4.344,-4.2953,-4.2001,-4.0637,-3.977,-3.9029,-3.8218,-3.8119,-3.8469,-3.9115,-3.9339,-3.9534,-3.9842,-4.0082,-4.0302,-4.0473,-4.0489,-4.0489,-4.045,-4.0239,-4.0181,-4.0162,-3.9854,-3.945,-3.8931,-3.8373,-3.7642,-3.6776,-3.6276,-3.5757,-3.5545,-3.5493,-3.5493,-3.5507,-3.5507,-3.5501,-3.5547,-3.5611,-3.5702,-3.5772,-3.5899,-3.5974,-3.5973,-3.5923,-3.6341,-3.735,-3.7889,-3.8655,-3.9605,-4.0219,-4.0489,-4.0489,-4.0489,-4.0489,-4.0489,-4.0489,-4.0489,-4.0489,-4.07,-4.1143,-4.1643,-4.2316,-4.3008,-4.4008,-4.4528,-4.4662,-4.472,-4.5086,-4.5451,-4.5374,-4.5028,-4.4643,-4.4605,-4.4162,-4.3508,-4.2893,-4.2566,-4.2277,-4.1527,-4.1123,-4.0912,-4.0912,-4.0854,-4.0489,-4.0489,-4.0489,-4.0489,-4.0489,-4.0489,-4.0489,-4.0489,-4.0489,-4.0489,-4.0239,-3.9946,-3.9238,-3.8161,-3.7065,-3.6045,-3.568,-3.5507,-3.5507,-3.5507,-3.5507,-3.5507,-3.5507,-3.5507,-3.5507,-4.3479,-4.3479,-4.3479,-4.3479,-4.3479,-4.3479,-4.3296,-4.2947,-4.2525,-4.1473,-4.0284,-3.9667,-3.8995,-3.8271,-3.8267,-3.856,-3.9026,-3.908,-3.9289,-3.9622,-3.9943,-4.0232,-4.0441,-4.0489,-4.0489,-4.0489,-4.0489,-4.0489,-4.0469,-4.0489,-4.0219,-3.9815,-3.9296,-3.8623,-3.7911,-3.7373,-3.6661,-3.618,-3.5988,-3.5878,-3.5512,-3.5507,-3.5522,-3.5558,-3.5638,-3.5717,-3.5783,-3.5896,-3.597,-3.5948,-3.5952,-3.6372,-3.7372,-3.7841,-3.8607,-3.9672,-4.0258,-4.0489,-4.0489,-4.0489,-4.0489,-4.0489,-4.0489,-4.0489,-4.0489,-4.0508,-4.0796,-4.1143,-4.1566,-4.245,-4.3489,-4.4085,-4.4105,-4.3912,-4.4259,-4.4547,-4.4547,-4.4066,-4.3835,-4.3682,-4.3374,-4.2758,-4.1931,-4.1816,-4.1354,-4.0816,-4.0662,-4.0566,-4.0546,-4.0489,-4.0489,-4.0489,-4.0489,-4.0489,-4.0489,-4.0489,-4.0489,-4.0489,-4.0489,-4.0489,-4.0085,-3.9642,-3.8834,-3.7935,-3.6911,-3.6089,-3.5696,-3.5446,-3.5507,-3.5507,-3.5507,-3.5507,-3.5493,-3.5507,-3.5507,-4.3479,-4.3479,-4.3479,-4.3479,-4.3479,-4.3479,-4.3167,-4.2543,-4.2213,-4.1387,-4.0253,-3.9882,-3.9213,-3.8707,-3.8578,-3.8815,-3.9036,-3.9008,-3.9231,-3.9529,-3.9859,-4.0139,-4.0389,-4.0473,-4.0489,-4.0489,-4.0489,-4.0489,-4.0489,-4.0489,-4.0412,-4.0142,-4.0123,-3.9815,-3.8854,-3.8815,-3.8238,-3.7065,-3.6642,-3.6315,-3.5801,-3.5622,-3.5522,-3.5554,-3.5639,-3.5717,-3.5846,-3.599,-3.6083,-3.604,-3.6001,-3.68,-3.7964,-3.8252,-3.893,-4.0053,-4.0431,-4.0489,-4.0489,-4.0489,-4.0489,-4.0489,-4.0489,-4.0489,-4.0489,-4.0508,-4.0546,-4.0642,-4.1239,-4.195,-4.2797,-4.3585,-4.3528,-4.3047,-4.2951,-4.2835,-4.2854,-4.2912,-4.2951,-4.2931,-4.2912,-4.2412,-4.197,-4.1604,-4.1335,-4.0681,-4.0489,-4.0489,-4.0489,-4.0489,-4.0489,-4.0489,-4.0489,-4.0489,-4.0489,-4.0489,-4.0489,-4.0489,-4.0489,-4.0392,-3.9931,-3.9373,-3.8569,-3.7674,-3.6826,-3.6051,-3.5407,-3.5304,-3.5369,-3.5398,-3.5335,-3.5432,-3.5493,-3.5493,-3.5507,-4.3479,-4.3479,-4.3479,-4.3479,-4.3479,-4.3479,-4.3387,-4.3094,-4.1882,-4.1167,-4.0598,-3.9533,-3.8909,-3.8707,-3.8707,-3.875,-3.8755,-3.8737,-3.8923,-3.9231,-3.9552,-3.9861,-4.0157,-4.0356,-4.0489,-4.0489,-4.0489,-4.0489,-4.0489,-4.045,-4.0162,-3.9681,-3.9738,-3.9181,-3.8565,-3.8604,-3.82,-3.7642,-3.7123,-3.6738,-3.6411,-3.593,-3.5688,-3.5695,-3.5725,-3.5713,-3.5885,-3.6385,-3.672,-3.6703,-3.6832,-3.7521,-3.8694,-3.8981,-3.9471,-4.0192,-4.0489,-4.0489,-4.0489,-4.0489,-4.0489,-4.0489,-4.0489,-4.0489,-4.0489,-4.0489,-4.0489,-4.0508,-4.07,-4.1239,-4.197,-4.222,-4.2297,-4.2085,-4.1585,-4.12,-4.12,-4.17,-4.2047,-4.197,-4.1546,-4.0989,-4.0835,-4.0873,-4.07,-4.0508,-4.0489,-4.0489,-4.0489,-4.0489,-4.0489,-4.0489,-4.0489,-4.0489,-4.0489,-4.0489,-4.0489,-4.0489,-4.0489,-4.045,-3.9969,-3.9442,-3.8741,-3.7833,-3.685,-3.6054,-3.5147,-3.4981,-3.4999,-3.5088,-3.5223,-3.5339,-3.5432,-3.5446,-3.5507,-4.3479,-4.3479,-4.3479,-4.3479,-4.3479,-4.3479,-4.3277,-4.2745,-4.1662,-4.0891,-4.0341,-3.9203,-3.8726,-3.8707,-3.8689,-3.8578,-3.83,-3.8083,-3.818,-3.8548,-3.8888,-3.9252,-3.9671,-4.0082,-4.0356,-4.0473,-4.0489,-4.0489,-4.0489,-4.0469,-4.0296,-3.9892,-3.9854,-3.9777,-3.9258,-3.9123,-3.9027,-3.8642,-3.818,-3.7738,-3.7276,-3.693,-3.6697,-3.671,-3.6767,-3.6784,-3.6919,-3.7249,-3.7684,-3.7924,-3.8048,-3.8376,-3.9116,-3.9355,-3.9734,-4.0315,-4.0489,-4.0489,-4.0489,-4.0489,-4.0489,-4.0489,-4.0489,-4.0489,-4.0489,-4.0489,-4.0489,-4.0489,-4.0527,-4.0739,-4.1162,-4.1681,-4.1643,-4.1181,-4.0796,-4.0508,-4.0585,-4.0931,-4.1181,-4.1123,-4.0835,-4.0642,-4.0508,-4.0489,-4.0489,-4.0489,-4.0489,-4.0489,-4.0489,-4.0489,-4.0489,-4.0489,-4.0489,-4.0489,-4.0489,-4.0489,-4.0489,-4.0489,-4.0489,-4.045,-4.0219,-3.966,-3.9063,-3.7866,-3.6538,-3.5628,-3.487,-3.4772,-3.4734,-3.4999,-3.5174,-3.5273,-3.5369,-3.5465,-3.5493,-4.3479,-4.3479,-4.3479,-4.3479,-4.3479,-4.3479,-4.3149,-4.247,-4.1479,-4.0799,-3.9974,-3.9148,-3.8707,-3.8707,-3.8707,-3.8382,-3.7911,-3.7506,-3.7596,-3.7857,-3.8177,-3.8575,-3.9059,-3.9547,-4.0043,-4.0406,-4.0489,-4.0489,-4.0489,-4.0489,-4.045,-4.045,-4.0469,-4.0296,-4.0412,-4.0446,-4.0062,-3.9508,-3.9161,-3.8796,-3.8219,-3.7969,-3.7808,-3.781,-3.7815,-3.7839,-3.787,-3.8168,-3.8563,-3.9234,-3.9411,-3.9469,-3.9469,-3.9508,-3.9734,-4.0469,-4.0489,-4.0489,-4.0489,-4.0489,-4.0489,-4.0489,-4.0489,-4.0489,-4.0489,-4.0489,-4.0457,-4.0389,-4.0356,-4.0302,-4.0411,-4.0839,-4.0916,-4.0586,-4.0392,-4.0422,-4.0457,-4.0473,-4.0585,-4.0566,-4.0585,-4.0527,-4.0489,-4.0489,-4.0489,-4.0489,-4.0489,-4.0489,-4.0489,-4.0489,-4.0489,-4.0489,-4.0489,-4.0489,-4.0489,-4.045,-4.0469,-4.0258,-4.0315,-4.0185,-4.0057,-3.9373,-3.8537,-3.7281,-3.6102,-3.5335,-3.4695,-3.4435,-3.4529,-3.4889,-3.5053,-3.5088,-3.5242,-3.5465,-3.5493,-4.3479,-4.3479,-4.3479,-4.3479,-4.3479,-4.3479,-4.3387,-4.3057,-4.168,-4.1056,-4.0708,-3.9368,-3.8707,-3.8707,-3.8707,-3.8382,-3.7825,-3.7305,-3.7135,-3.7324,-3.7593,-3.7944,-3.8486,-3.884,-3.9406,-4.0063,-4.0283,-4.0351,-4.0489,-4.0489,-4.0489,-4.0489,-4.0489,-4.0489,-4.0489,-4.0489,-4.0431,-4.0104,-3.97,-3.9277,-3.9027,-3.8565,-3.8253,-3.8271,-3.8329,-3.8271,-3.8334,-3.8758,-3.9172,-3.935,-3.9931,-4.02,-4.0235,-4.0219,-4.0315,-4.0431,-4.0489,-4.0489,-4.0489,-4.0489,-4.0489,-4.0489,-4.0489,-4.0489,-4.0489,-4.0489,-4.0406,-4.0176,-3.9983,-3.9778,-3.9757,-4.0089,-3.9989,-3.984,-4.0043,-4.0195,-4.025,-4.0372,-4.0489,-4.0489,-4.0489,-4.0489,-4.0489,-4.0489,-4.0489,-4.0489,-4.0489,-4.0489,-4.0489,-4.0489,-4.0489,-4.0489,-4.0489,-4.0489,-4.0489,-4.045,-4.0373,-3.9969,-3.9838,-3.9583,-3.9329,-3.8763,-3.7877,-3.7069,-3.6236,-3.5501,-3.4884,-3.4272,-3.4213,-3.4489,-3.4675,-3.487,-3.5141,-3.5369,-3.5493,-4.3479,-4.3479,-4.3479,-4.324,-4.2983,-4.3332,-4.324,-4.2745,-4.1644,-4.1097,-4.0653,-3.9478,-3.8707,-3.8707,-3.8707,-3.8267,-3.7542,-3.6706,-3.6563,-3.6751,-3.6953,-3.7254,-3.7767,-3.805,-3.858,-3.9121,-3.9475,-4.0005,-4.0454,-4.0489,-4.0489,-4.0489,-4.0489,-4.0489,-4.0489,-4.0489,-4.0489,-4.0373,-4.0104,-3.9892,-3.9892,-3.9411,-3.9296,-3.9258,-3.9238,-3.9296,-3.9354,-3.9585,-3.9927,-4.0008,-4.0296,-4.045,-4.0489,-4.0489,-4.0489,-4.0489,-4.0489,-4.0489,-4.0489,-4.0489,-4.0489,-4.0489,-4.0489,-4.0489,-4.0489,-4.0473,-4.0356,-4.0101,-3.9816,-3.9599,-3.9622,-3.9576,-3.9668,-3.984,-3.9983,-4.0139,-4.0286,-4.0406,-4.0473,-4.0489,-4.0489,-4.0489,-4.0489,-4.0489,-4.0489,-4.0489,-4.0489,-4.0489,-4.0489,-4.0489,-4.0489,-4.0489,-4.0489,-4.0489,-4.0489,-4.0469,-4.0046,-3.9604,-3.9512,-3.9257,-3.8889,-3.8442,-3.806,-3.749,-3.6629,-3.5565,-3.4674,-3.3972,-3.4037,-3.4171,-3.451,-3.4832,-3.5088,-3.5273,-3.5412,-4.3479,-4.3479,-4.3479,-4.302,-4.2506,-4.3149,-4.302,-4.2249,-4.146,-4.1097,-4.0891,-3.9496,-3.8707,-3.8627,-3.8401,-3.7895,-3.7097,-3.6122,-3.5924,-3.6165,-3.6291,-3.6522,-3.6967,-3.729,-3.7693,-3.8334,-3.8711,-3.9326,-4.0192,-4.0389,-4.0441,-4.0489,-4.0489,-4.0489,-4.0489,-4.0489,-4.0489,-4.0489,-4.0441,-4.0406,-4.0336,-4.0319,-4.0319,-4.0319,-4.03,-4.0206,-4.0057,-4.0202,-4.0277,-4.0329,-4.0438,-4.0489,-4.0489,-4.0489,-4.0489,-4.0489,-4.0489,-4.0489,-4.0489,-4.0489,-4.0489,-4.0489,-4.0489,-4.0489,-4.0422,-4.0336,-4.0175,-3.9983,-3.9467,-3.9264,-3.9257,-3.927,-3.9443,-3.9754,-3.9901,-4.0101,-4.0304,-4.0441,-4.0473,-4.0489,-4.0489,-4.0489,-4.0489,-4.0489,-4.0489,-4.0489,-4.0489,-4.0489,-4.0489,-4.0489,-4.0489,-4.0489,-4.0489,-4.0489,-4.0489,-4.0489,-3.9835,-3.8969,-3.9146,-3.9215,-3.8769,-3.8286,-3.7831,-3.7243,-3.6465,-3.5405,-3.4511,-3.3928,-3.4117,-3.4334,-3.4593,-3.4832,-3.507,-3.5289,-3.546,-4.3479,-4.3479,-4.3461,-4.302,-4.2451,-4.3112,-4.302,-4.2213,-4.1423,-4.1097,-4.102,-3.9478,-3.8707,-3.8483,-3.7756,-3.7377,-3.6882,-3.6165,-3.565,-3.581,-3.5827,-3.6011,-3.6416,-3.6522,-3.7013,-3.7626,-3.8154,-3.9081,-3.9844,-4.0062,-4.0285,-4.0438,-4.0489,-4.0489,-4.0489,-4.0489,-4.0489,-4.0438,-4.025,-4.0003,-3.98,-3.9778,-3.9778,-3.9757,-3.9778,-3.98,-3.9842,-4.0023,-4.012,-4.0157,-4.0372,-4.0473,-4.0489,-4.0489,-4.0489,-4.0489,-4.0489,-4.0489,-4.0489,-4.0489,-4.0489,-4.0489,-4.0489,-4.0489,-4.0406,-4.0062,-3.9778,-3.9645,-3.8822,-3.8542,-3.8748,-3.8436,-3.8578,-3.9096,-3.9622,-3.988,-4.0158,-4.0441,-4.0489,-4.0489,-4.0489,-4.0489,-4.0489,-4.0489,-4.0489,-4.0489,-4.0489,-4.0489,-4.0489,-4.0489,-4.0489,-4.0489,-4.0489,-4.0489,-4.0489,-4.0489,-3.9681,-3.8604,-3.8819,-3.9054,-3.8227,-3.7611,-3.7204,-3.6577,-3.5891,-3.545,-3.487,-3.4508,-3.4423,-3.451,-3.4735,-3.4907,-3.507,-3.5289,-3.5493,-4.2396,-4.2782,-4.2341,-4.1956,-4.1754,-4.2488,-4.2378,-4.168,-4.1277,-4.1097,-4.0818,-3.9423,-3.8546,-3.8168,-3.747,-3.7038,-3.6643,-3.5941,-3.5622,-3.5639,-3.5622,-3.5739,-3.5898,-3.5985,-3.6329,-3.6914,-3.7488,-3.8127,-3.9021,-3.9802,-4.0232,-4.0457,-4.0489,-4.0489,-4.0489,-4.0489,-4.0389,-4.0212,-3.9983,-3.9754,-3.9664,-3.9599,-3.9599,-3.9599,-3.9576,-3.9576,-3.9622,-3.969,-3.9819,-3.9861,-4.012,-4.0286,-4.0321,-4.0389,-4.0489,-4.0489,-4.0489,-4.0489,-4.0489,-4.0489,-4.0489,-4.0489,-4.0489,-4.0489,-4.0389,-3.9984,-3.9599,-3.9599,-3.8559,-3.8231,-3.8465,-3.8183,-3.8626,-3.9043,-3.9462,-3.9842,-4.0157,-4.0339,-4.0489,-4.0489,-4.0489,-4.0489,-4.0489,-4.0489,-4.0489,-4.0489,-4.0489,-4.0489,-4.0489,-4.0489,-4.0489,-4.0489,-4.0489,-4.0489,-4.0489,-4.045,-3.958,-3.8753,-3.8796,-3.865,-3.7429,-3.6725,-3.6511,-3.6231,-3.5798,-3.5417,-3.5108,-3.4889,-3.4634,-3.4754,-3.4908,-3.5053,-3.519,-3.5339,-3.5628,-4.1167,-4.1644,-4.1277,-4.1097,-4.1167,-4.1772,-4.1552,-4.0836,-4.0781,-4.0799,-4.0451,-3.9318,-3.8382,-3.7859,-3.7433,-3.6943,-3.6374,-3.5871,-3.5667,-3.5639,-3.5639,-3.5622,-3.5667,-3.5711,-3.581,-3.6224,-3.6768,-3.747,-3.831,-3.9107,-3.9804,-4.0372,-4.0473,-4.0489,-4.0489,-4.0473,-4.0353,-3.9963,-3.9645,-3.9432,-3.9352,-3.9327,-3.9327,-3.9352,-3.9377,-3.9377,-3.9358,-3.9438,-3.9462,-3.9529,-3.9797,-3.9963,-4.0003,-4.0101,-4.0267,-4.0302,-4.0356,-4.0406,-4.0457,-4.0489,-4.0489,-4.0489,-4.0489,-4.0489,-4.0422,-3.9984,-3.9599,-3.9599,-3.8541,-3.831,-3.8415,-3.8216,-3.8505,-3.9016,-3.9529,-3.9944,-4.0285,-4.0422,-4.0504,-4.0489,-4.0489,-4.0489,-4.0489,-4.0489,-4.0489,-4.0489,-4.0489,-4.0489,-4.0504,-4.0519,-4.0545,-4.0559,-4.0568,-4.0568,-4.053,-4.0251,-3.9369,-3.8744,-3.8801,-3.8118,-3.6781,-3.6306,-3.617,-3.5891,-3.563,-3.5515,-3.5289,-3.5053,-3.4851,-3.5053,-3.519,-3.5207,-3.5289,-3.5436,-3.5974,-4.001,-4.012,-4.0799,-4.1056,-4.1075,-4.1167,-4.0744,-4.0084,-4.0029,-4.0029,-3.9863,-3.908,-3.8401,-3.7877,-3.7396,-3.6904,-3.6374,-3.5854,-3.5667,-3.5639,-3.5639,-3.5639,-3.5639,-3.5622,-3.5667,-3.5827,-3.6333,-3.6973,-3.7625,-3.8419,-3.9227,-4.0003,-4.0285,-4.0441,-4.0457,-4.0389,-4.0082,-3.969,-3.9308,-3.9045,-3.8931,-3.8862,-3.8833,-3.8803,-3.8792,-3.8762,-3.8792,-3.9017,-3.9152,-3.9152,-3.9457,-3.9622,-3.9645,-3.9757,-3.9924,-4.0062,-4.0177,-4.0267,-4.0372,-4.0473,-4.0489,-4.0489,-4.0489,-4.0489,-4.0473,-3.9925,-3.9645,-3.9486,-3.8559,-3.8263,-3.835,-3.8346,-3.8413,-3.8952,-3.9462,-3.9819,-4.0176,-4.0454,-4.0519,-4.0504,-4.0504,-4.0515,-4.0489,-4.0489,-4.0489,-4.0489,-4.0504,-4.0504,-4.0549,-4.0559,-4.059,-4.0642,-4.068,-4.0653,-4.0595,-4.0118,-3.9487,-3.8639,-3.8247,-3.727,-3.5997,-3.5811,-3.5888,-3.5751,-3.5551,-3.5512,-3.5479,-3.5239,-3.5155,-3.5369,-3.5446,-3.5383,-3.5484,-3.5657,-3.6454,-3.8961,-3.9413,-3.9552,-3.9918,-4.0377,-4.0359,-4.0175,-3.9918,-3.9882,-3.9588,-3.9166,-3.8823,-3.8382,-3.7877,-3.7396,-3.6921,-3.6374,-3.5854,-3.5667,-3.5639,-3.5639,-3.5639,-3.5639,-3.5639,-3.5622,-3.5694,-3.6122,-3.6706,-3.738,-3.7983,-3.8681,-3.9425,-3.9984,-4.0339,-4.0372,-4.0138,-3.9716,-3.9383,-3.9045,-3.8792,-3.875,-3.8707,-3.8707,-3.8707,-3.8707,-3.8707,-3.8719,-3.8803,-3.8844,-3.8923,-3.9144,-3.9257,-3.9333,-3.9457,-3.9622,-3.9797,-3.9943,-4.0139,-4.0286,-4.0389,-4.0489,-4.0489,-4.0489,-4.0489,-4.0473,-3.9964,-3.9668,-3.927,-3.8649,-3.8296,-3.8515,-3.83,-3.8241,-3.8897,-3.9389,-3.9731,-4.0062,-4.0351,-4.0559,-4.0545,-4.0568,-4.0596,-4.0545,-4.0489,-4.0489,-4.0489,-4.0504,-4.0515,-4.0574,-4.063,-4.0665,-4.0722,-4.0762,-4.081,-4.0771,-4.0257,-3.9685,-3.8733,-3.7781,-3.6811,-3.585,-3.5643,-3.5701,-3.5558,-3.5515,-3.5515,-3.5474,-3.5398,-3.5398,-3.546,-3.5493,-3.5474,-3.5628,-3.5853,-3.6757,-3.8339,-3.8928,-3.8784,-3.9166,-3.9827,-3.9643,-3.9533,-3.9551,-3.9515,-3.9258,-3.8726,-3.8878,-3.8615,-3.7949,-3.7396,-3.6921,-3.6374,-3.5898,-3.5667,-3.5639,-3.5639,-3.5639,-3.5639,-3.5639,-3.5622,-3.5694,-3.5968,-3.6481,-3.723,-3.7803,-3.8432,-3.9051,-3.9534,-3.9884,-4.0024,-3.9738,-3.9314,-3.909,-3.8873,-3.8707,-3.8707,-3.8707,-3.8707,-3.8707,-3.8707,-3.8707,-3.8707,-3.8719,-3.8719,-3.8773,-3.8884,-3.8961,-3.9054,-3.9171,-3.9352,-3.9529,-3.9735,-3.9982,-4.0139,-4.0339,-4.0489,-4.0489,-4.0489,-4.0489,-4.0353,-4.0043,-3.9797,-3.9552,-3.8793,-3.8405,-3.875,-3.8415,-3.8346,-3.8933,-3.9383,-3.9731,-3.9986,-4.026,-4.0457,-4.0596,-4.0642,-4.0676,-4.061,-4.0545,-4.0519,-4.053,-4.0588,-4.061,-4.0642,-4.0688,-4.0742,-4.0774,-4.0838,-4.0903,-4.0942,-4.0318,-3.9623,-3.8613,-3.7702,-3.6903,-3.6176,-3.589,-3.5631,-3.5568,-3.555,-3.5534,-3.5488,-3.5427,-3.546,-3.5474,-3.5507,-3.5507,-3.5699,-3.5968,-3.6853,-3.8201,-3.8676,-3.8695,-3.9148,-3.9698,-3.9056,-3.8781,-3.8854,-3.8836,-3.8781,-3.8781,-3.935,-3.9049,-3.802,-3.747,-3.696,-3.6498,-3.5898,-3.5639,-3.5639,-3.5639,-3.5639,-3.5639,-3.5639,-3.5639,-3.5639,-3.5783,-3.6249,-3.7114,-3.7212,-3.792,-3.8696,-3.9125,-3.9383,-3.9576,-3.9289,-3.9125,-3.9044,-3.8803,-3.8719,-3.8707,-3.8707,-3.8707,-3.8707,-3.8707,-3.8707,-3.8707,-3.8707,-3.8707,-3.8719,-3.875,-3.8773,-3.8803,-3.8803,-3.8942,-3.9144,-3.9438,-3.9775,-4.0101,-4.0336,-4.0473,-4.0489,-4.0489,-4.0489,-4.0438,-4.0194,-3.9962,-3.9709,-3.9167,-3.8886,-3.8815,-3.8658,-3.8701,-3.8873,-3.9301,-3.9668,-3.9907,-4.0327,-4.0552,-4.0672,-4.0732,-4.077,-4.0676,-4.061,-4.0545,-4.0574,-4.0649,-4.0692,-4.074,-4.0781,-4.0831,-4.0905,-4.0976,-4.1016,-4.0937,-4.0313,-3.954,-3.8555,-3.7793,-3.718,-3.6473,-3.5976,-3.5764,-3.564,-3.5579,-3.555,-3.5515,-3.5488,-3.5488,-3.5507,-3.5507,-3.5545,-3.5738,-3.6219,-3.7161,-3.7738,-3.8201,-3.8546,-3.8854,-3.9056,-3.8836,-3.8707,-3.8707,-3.8707,-3.8707,-3.8744,-3.9038,-3.8939,-3.8289,-3.7632,-3.7097,-3.6803,-3.5941,-3.5639,-3.5639,-3.5639,-3.5639,-3.5639,-3.5639,-3.5639,-3.5639,-3.5667,-3.5941,-3.6661,-3.6724,-3.7287,-3.8074,-3.8711,-3.899,-3.9197,-3.9125,-3.9017,-3.8855,-3.875,-3.8707,-3.8707,-3.8719,-3.8719,-3.875,-3.875,-3.8719,-3.8719,-3.8719,-3.8707,-3.8707,-3.8707,-3.8707,-3.8707,-3.8707,-3.8732,-3.8952,-3.9275,-3.9842,-4.0194,-4.0473,-4.0489,-4.0489,-4.0489,-4.0489,-4.0473,-4.0269,-4.0081,-3.9859,-3.9414,-3.9144,-3.8971,-3.8773,-3.8732,-3.8833,-3.9181,-3.95,-3.9848,-4.0384,-4.0752,-4.0752,-4.0799,-4.0799,-4.0742,-4.071,-4.0653,-4.0648,-4.0729,-4.0818,-4.0855,-4.0916,-4.0968,-4.1058,-4.1128,-4.1147,-4.0976,-4.0566,-4.0078,-3.9297,-3.8555,-3.7921,-3.717,-3.6243,-3.5904,-3.5781,-3.5666,-3.559,-3.5678,-3.5701,-3.554,-3.5507,-3.5545,-3.5545,-3.5622,-3.6411,-3.7603,-3.7487,-3.7946,-3.8465,-3.8707,-3.8707,-3.8707,-3.8707,-3.8762,-3.8964,-3.8982,-3.8817,-3.8982,-3.8946,-3.8542,-3.7895,-3.7285,-3.7152,-3.6333,-3.5667,-3.5667,-3.5639,-3.5639,-3.5639,-3.5639,-3.5639,-3.5639,-3.5667,-3.5915,-3.6433,-3.6433,-3.7002,-3.7825,-3.8267,-3.8597,-3.8828,-3.8905,-3.8865,-3.8773,-3.8773,-3.8873,-3.8931,-3.897,-3.9055,-3.9027,-3.897,-3.8855,-3.8833,-3.8762,-3.8707,-3.8707,-3.8707,-3.8707,-3.8707,-3.8707,-3.8707,-3.8862,-3.9268,-3.984,-4.0194,-4.0473,-4.0489,-4.0489,-4.0489,-4.0489,-4.0489,-4.0356,-4.0213,-3.9963,-3.9576,-3.9308,-3.9099,-3.8884,-3.8762,-3.8862,-3.9154,-3.9481,-3.9766,-4.0323,-4.0785,-4.0807,-4.0896,-4.0882,-4.0835,-4.0788,-4.076,-4.077,-4.0799,-4.089,-4.0988,-4.1026,-4.1055,-4.1133,-4.1191,-4.1191,-4.1191,-4.1074,-4.0566,-3.998,-3.9238,-3.8457,-3.7421,-3.6454,-3.6191,-3.5926,-3.5805,-3.5768,-3.5929,-3.5917,-3.5701,-3.5641,-3.5666,-3.5628,-3.5551,-3.6507,-3.7777,-3.7487,-3.7946,-3.8465,-3.8707,-3.8707,-3.8707,-3.8707,-3.8781,-3.9478,-3.9368,-3.8744,-3.9423,-3.9276,-3.8651,-3.8099,-3.7614,-3.7152,-3.658,-3.6054,-3.5756,-3.5639,-3.5639,-3.5639,-3.5639,-3.5639,-3.5639,-3.5667,-3.5827,-3.6308,-3.6392,-3.6943,-3.7542,-3.7808,-3.8147,-3.8442,-3.8603,-3.8621,-3.8713,-3.8894,-3.8999,-3.9054,-3.9308,-3.9427,-3.9377,-3.9223,-3.9063,-3.8961,-3.8844,-3.875,-3.8707,-3.8707,-3.8707,-3.8707,-3.8707,-3.8707,-3.8873,-3.9301,-3.9731,-4.0101,-4.0356,-4.0473,-4.0489,-4.0489,-4.0489,-4.0489,-4.0457,-4.0356,-4.0139,-3.984,-3.9486,-3.9205,-3.8961,-3.8762,-3.8998,-3.9275,-3.9534,-3.9721,-4.0156,-4.0645,-4.0883,-4.1046,-4.1072,-4.0969,-4.0914,-4.09,-4.0908,-4.0928,-4.0983,-4.1055,-4.1125,-4.1152,-4.1152,-4.1191,-4.1191,-4.1191,-4.1191,-4.1016,-4.041,-3.9551,-3.8711,-3.7656,-3.6914,-3.6578,-3.6313,-3.6004,-3.5903,-3.5931,-3.5898,-3.5823,-3.5776,-3.5685,-3.5858,-3.5839,-3.6642,-3.7719,-3.7452,-3.7946,-3.8465,-3.8707,-3.8707,-3.8707,-3.8707,-3.8762,-3.8982,-3.8872,-3.8707,-3.8946,-3.8946,-3.8658,-3.8132,-3.7649,-3.7173,-3.6643,-3.6097,-3.5783,-3.5639,-3.5639,-3.5639,-3.5639,-3.5639,-3.5639,-3.5622,-3.5694,-3.5898,-3.6139,-3.6416,-3.6786,-3.723,-3.7649,-3.7964,-3.8132,-3.8382,-3.8664,-3.8924,-3.9125,-3.9238,-3.9486,-3.9622,-3.958,-3.9364,-3.9212,-3.9144,-3.8884,-3.8762,-3.8719,-3.8689,-3.8707,-3.8707,-3.8689,-3.8732,-3.9017,-3.9383,-3.9754,-4.0081,-4.0356,-4.0489,-4.0489,-4.0489,-4.0489,-4.0489,-4.0489,-4.0438,-4.0267,-4.0062,-3.9735,-3.9414,-3.9171,-3.8942,-3.898,-3.9275,-3.9557,-3.9787,-4.0235,-4.0703,-4.092,-4.1103,-4.1112,-4.1016,-4.1043,-4.1023,-4.1035,-4.1058,-4.1068,-4.1129,-4.1171,-4.1191,-4.1191,-4.1191,-4.1191,-4.1191,-4.1191,-4.1094,-4.0801,-3.9922,-3.9277,-3.8828,-3.8105,-3.7285,-3.6712,-3.6348,-3.6035,-3.5805,-3.5763,-3.5718,-3.5647,-3.5589,-3.5897,-3.6295,-3.7007,-3.7815,-3.7058,-3.7379,-3.8083,-3.8496,-3.8707,-3.8707,-3.8707,-3.8707,-3.8707,-3.8707,-3.8707,-3.8726,-3.8707,-3.8658,-3.835,-3.7895,-3.7173,-3.6921,-3.6357,-3.5694,-3.5639,-3.5639,-3.5639,-3.5639,-3.5639,-3.5639,-3.5639,-3.5622,-3.5711,-3.5871,-3.6139,-3.6498,-3.6786,-3.7135,-3.7542,-3.7843,-3.8099,-3.8499,-3.8877,-3.9186,-3.9438,-3.9694,-3.9905,-3.9844,-3.9626,-3.9505,-3.9408,-3.9127,-3.8884,-3.8815,-3.8803,-3.8578,-3.8465,-3.8364,-3.8396,-3.8656,-3.9289,-3.958,-3.9903,-4.0285,-4.0422,-4.0489,-4.0489,-4.0489,-4.0489,-4.0489,-4.0489,-4.0406,-4.0213,-3.9982,-3.969,-3.9408,-3.9144,-3.8894,-3.9223,-3.9576,-3.9966,-4.0391,-4.0701,-4.0935,-4.1041,-4.1073,-4.1094,-4.1111,-4.1084,-4.0982,-4.0943,-4.1001,-4.1069,-4.1152,-4.1191,-4.1191,-4.1191,-4.1191,-4.1191,-4.1191,-4.1152,-4.0918,-4.0273,-3.9766,-3.9668,-3.8984,-3.791,-3.7209,-3.6679,-3.6409,-3.6193,-3.5739,-3.557,-3.5589,-3.5705,-3.5988,-3.6469,-3.718,-3.8027,-3.6433,-3.6522,-3.7434,-3.8099,-3.8546,-3.8515,-3.8546,-3.8645,-3.8578,-3.8676,-3.8676,-3.8707,-3.8707,-3.8658,-3.8465,-3.7929,-3.7323,-3.696,-3.6416,-3.5622,-3.5639,-3.5639,-3.5639,-3.5639,-3.5639,-3.5639,-3.5639,-3.5639,-3.5639,-3.5756,-3.5941,-3.635,-3.6333,-3.6603,-3.7097,-3.7542,-3.7843,-3.8162,-3.8925,-3.9529,-3.9712,-4.0101,-4.0489,-4.0406,-4.0194,-4.0022,-3.988,-3.9576,-3.9107,-3.9008,-3.8847,-3.8523,-3.8132,-3.7859,-3.7893,-3.8223,-3.8888,-3.937,-3.9716,-4.012,-4.0389,-4.0473,-4.0489,-4.0489,-4.0489,-4.0489,-4.0489,-4.0489,-4.0321,-4.0158,-3.9882,-3.9668,-3.9408,-3.9327,-3.9481,-3.974,-3.9985,-4.0416,-4.083,-4.1001,-4.1035,-4.1048,-4.0968,-4.0988,-4.0983,-4.0857,-4.0844,-4.0908,-4.0983,-4.1082,-4.1152,-4.1191,-4.1191,-4.1191,-4.1191,-4.1191,-4.1191,-4.0898,-4.0449,-4.0312,-4.0273,-3.9453,-3.8418,-3.7744,-3.7141,-3.6919,-3.6667,-3.6086,-3.5718,-3.5897,-3.6026,-3.6161,-3.668,-3.7507,-3.8219,-3.6392,-3.6457,-3.7097,-3.7451,-3.756,-3.756,-3.7773,-3.8099,-3.8099,-3.835,-3.8658,-3.8707,-3.8658,-3.8627,-3.83,-3.7773,-3.7228,-3.6803,-3.6224,-3.5783,-3.5639,-3.5639,-3.5639,-3.5639,-3.5639,-3.5639,-3.5639,-3.5639,-3.5639,-3.5622,-3.5622,-3.5783,-3.5871,-3.6139,-3.6684,-3.7155,-3.7578,-3.7962,-3.9073,-3.9708,-3.9823,-4.0158,-4.0489,-4.0444,-4.0325,-4.0196,-4.004,-3.9754,-3.9364,-3.9125,-3.9063,-3.8615,-3.7962,-3.756,-3.756,-3.7925,-3.8432,-3.9005,-3.9561,-3.9984,-4.0267,-4.0457,-4.0489,-4.0489,-4.0489,-4.0489,-4.0489,-4.0473,-4.0406,-4.0267,-4.012,-3.9922,-3.9754,-3.9754,-3.9759,-3.989,-4.0038,-4.0479,-4.0952,-4.1015,-4.1041,-4.0972,-4.0883,-4.085,-4.0843,-4.0836,-4.0809,-4.0843,-4.0877,-4.0964,-4.1105,-4.1152,-4.1191,-4.1191,-4.1191,-4.1191,-4.1191,-4.1191,-4.0898,-4.084,-4.082,-4.0059,-3.9181,-3.8263,-3.7631,-3.7365,-3.6906,-3.6093,-3.59,-3.6276,-3.6546,-3.6757,-3.7392,-3.82,-3.8719,-3.6054,-3.6114,-3.6603,-3.6981,-3.719,-3.719,-3.747,-3.7859,-3.7893,-3.8216,-3.8658,-3.8676,-3.8596,-3.8401,-3.8032,-3.7433,-3.6921,-3.6563,-3.6097,-3.5739,-3.5639,-3.5639,-3.5639,-3.5639,-3.5639,-3.5639,-3.5639,-3.5639,-3.5639,-3.5622,-3.5622,-3.5639,-3.5622,-3.5854,-3.6416,-3.6904,-3.7433,-3.7946,-3.933,-4.0042,-4.0197,-4.0711,-4.105,-4.0998,-4.0929,-4.0689,-4.0233,-3.9983,-3.9687,-3.9069,-3.863,-3.8122,-3.7488,-3.7097,-3.7135,-3.7578,-3.8118,-3.8785,-3.94,-3.9882,-4.0195,-4.0389,-4.0489,-4.0489,-4.0489,-4.0489,-4.0489,-4.0489,-4.0489,-4.0372,-4.0304,-4.012,-3.9983,-3.9922,-4.0024,-4.0172,-4.0423,-4.0779,-4.0991,-4.0984,-4.0992,-4.0933,-4.0848,-4.0781,-4.0752,-4.0653,-4.0668,-4.077,-4.0793,-4.0883,-4.1023,-4.1133,-4.1172,-4.1191,-4.1191,-4.1191,-4.1191,-4.1191,-4.1191,-4.1074,-4.0898,-4.0566,-3.9969,-3.9039,-3.8266,-3.7743,-3.7153,-3.6543,-3.6612,-3.7065,-3.7276,-3.743,-3.8142,-3.8757,-3.9123,-3.5622,-3.5667,-3.6097,-3.658,-3.696,-3.6981,-3.7248,-3.7649,-3.7755,-3.8032,-3.8401,-3.8515,-3.83,-3.8047,-3.7685,-3.7097,-3.6563,-3.6249,-3.5898,-3.5711,-3.5622,-3.5639,-3.5639,-3.5639,-3.5639,-3.5639,-3.5639,-3.5639,-3.5639,-3.5639,-3.5639,-3.5639,-3.5711,-3.5854,-3.6399,-3.6904,-3.7433,-3.8274,-3.9463,-4.0721,-4.1231,-4.1609,-4.175,-4.1835,-4.1739,-4.1316,-4.0694,-4.0267,-3.9983,-3.9163,-3.8259,-3.7631,-3.7117,-3.6706,-3.6882,-3.7212,-3.7735,-3.8575,-3.9376,-3.9819,-4.0157,-4.0389,-4.0473,-4.0489,-4.0489,-4.0489,-4.0489,-4.0489,-4.0489,-4.0473,-4.0408,-4.0356,-4.0213,-4.0174,-4.0308,-4.0435,-4.0743,-4.1,-4.1015,-4.1003,-4.095,-4.0883,-4.0809,-4.0738,-4.0662,-4.0545,-4.0568,-4.0653,-4.0743,-4.0877,-4.0992,-4.1101,-4.1172,-4.1191,-4.1191,-4.1191,-4.1191,-4.1191,-4.1191,-4.1113,-4.0968,-4.0686,-4.0322,-3.9801,-3.9073,-3.8421,-3.7932,-3.7439,-3.7623,-3.7796,-3.8065,-3.8238,-3.8507,-3.9065,-3.9392,-3.5639,-3.5622,-3.5739,-3.581,-3.5941,-3.5924,-3.619,-3.6706,-3.7173,-3.7414,-3.7632,-3.7911,-3.7946,-3.7807,-3.6964,-3.6457,-3.6333,-3.6028,-3.5827,-3.5622,-3.5639,-3.5639,-3.5639,-3.5639,-3.5639,-3.5639,-3.5639,-3.5639,-3.5639,-3.5639,-3.5622,-3.5667,-3.5622,-3.5898,-3.6457,-3.6981,-3.7596,-3.8524,-3.9863,-4.1213,-4.1965,-4.2239,-4.2285,-4.2143,-4.1797,-4.1239,-4.0723,-4.0495,-4.0101,-3.9295,-3.8145,-3.7434,-3.6825,-3.6399,-3.644,-3.6904,-3.7434,-3.8285,-3.9048,-3.9603,-3.9945,-4.0457,-4.0489,-4.0489,-4.0489,-4.0489,-4.0489,-4.0489,-4.0489,-4.0489,-4.0457,-4.0469,-4.0403,-4.0463,-4.0575,-4.0729,-4.0935,-4.1062,-4.1112,-4.1055,-4.0968,-4.0877,-4.0752,-4.0696,-4.066,-4.0604,-4.061,-4.0701,-4.0771,-4.087,-4.0988,-4.1074,-4.1172,-4.1191,-4.1191,-4.1191,-4.1191,-4.1191,-4.1172,-4.1055,-4.0944,-4.0835,-4.0469,-4.0087,-3.9663,-3.9066,-3.8604,-3.8334,-3.82,-3.8354,-3.8796,-3.9084,-3.9238,-3.9431,-3.9796]},{"header":{"parameterUnit":"m.s-1","parameterCategory":1,"la1":31.0,"la2":29.5877,"lo1":-88.7671,"lo2":-86.6584,"dy":0.0162,"dx":0.0185,"nx":115,"ny":88,"refTime":"2024-07-19T18:00:00:Z","depth":0,"parameterNumber":3,"parameterNumberName":"V-component_of_WINDS"},"data":[0.0,0.0,0.0,0.0,0.0,0.0,0.0,0.0,0.0,0.0,0.0,0.0,0.0,0.0,0.0,0.0,0.0,0.0,0.0,0.0,0.0,0.0,0.0,0.0,0.0,0.0,0.0,0.0,0.0,0.0,0.0,0.0,0.0,0.0,0.0,0.0,0.0,0.0,0.0,0.0,0.0,0.0,0.0,0.0,0.0,0.0,0.0,0.0,0.0,0.0,0.0,0.0,0.0,0.0,0.0,0.0,0.0,0.0,0.0,0.0,0.0,0.0,0.0,0.0,0.0,0.0,0.0,0.0,0.0,0.0,0.0,0.0,0.0,0.0,0.0,0.0,0.0,0.0,0.0,0.0,0.0,0.0,0.0,0.0,0.0,0.0,0.0,0.0,0.0,0.0,0.0,0.0,0.0,0.0,0.0,0.0,0.0,0.0,0.0,0.0,0.0,0.0,0.0,0.0,0.0,0.0,0.0,0.0,0.0,0.0,0.0,0.0,0.0,0.0,0.0,0.0,0.0,0.0,0.0,0.0,0.0,0.0,0.0,0.0,0.0,0.0,0.0,0.0,0.0,0.0,0.0,0.0,0.0,0.0,0.0,0.0,0.0,0.0,0.0,0.0,0.0,0.0,0.0,0.0,0.0,0.0,0.0,0.0,0.0,0.0,0.0,0.0,0.0,0.0,0.0,0.0,0.0,0.0,0.0,0.0,0.0,0.0,0.0,0.0,0.0,0.0,0.0,0.0,0.0,0.0,0.0,0.0,0.0,0.0,0.0,0.0,0.0,0.0,0.0,0.0,0.0,0.0,0.0,0.0,0.0,0.0,0.0,0.0,0.0,0.0,0.0,0.0,0.0,0.0,0.0,0.0,0.0,0.0,0.0,0.0,0.0,0.0,0.0,0.0,0.0,0.0,0.0,0.0,0.0,0.0,0.0,0.0,0.0,0.0,0.0,0.0,0.0,0.0,0.0,0.0,0.0,0.0,0.0,0.0,0.0,0.0,0.0,0.0,0.0,0.0,0.0,0.0,0.0,0.0,0.0,0.0,0.0,0.0,0.0,0.0,0.0,0.0,0.0,0.0,0.0,0.0,0.0,0.0,0.0,0.0,0.0,0.0,0.0,0.0,0.0,0.0,0.0,0.0,0.0,0.0,0.0,0.0,0.0,0.0,0.0,0.0,0.0,0.0,0.0,0.0,0.0,0.0,0.0,0.0,0.0,0.0,0.0,0.0,0.0,0.0,0.0,0.0,0.0,0.0,0.0,0.0,0.0,0.0,0.0,0.0,0.0,0.0,0.0,0.0,0.0,0.0,0.0,0.0,0.0,0.0,0.0,0.0,0.0,0.0,0.0,0.0,0.0,0.0,0.0,0.0,0.0,0.0,0.0,0.0,0.0,0.0,0.0,0.0,0.0,0.0,0.0,0.0,0.0,0.0,0.0,0.0,0.0,0.0,0.0,0.0,0.0,0.0,0.0,0.0,0.0,0.0,0.0,0.0,0.0,0.0,0.0,0.0,0.0,0.0,0.0,0.0,0.0,0.0,0.0,0.0,0.0,0.0,0.0,0.0,0.0,0.0,0.0,0.0,0.0,0.0,0.0,0.0,0.0,0.0,0.0,0.0,0.0,0.0,0.0,0.0,0.0,0.0,0.0,0.0,0.0,0.0,0.0,0.0,0.0,0.0,0.0,0.0,0.0,0.0,0.0,0.0,0.0,0.0,0.0,0.0,0.0,0.0,0.0,0.0,0.0,0.0,0.0,0.0,0.0,0.0,0.0,0.0,0.0,0.0,0.0,0.0,0.0,0.0,0.0,0.0,0.0,0.0,0.0,0.0,0.0,0.0,0.0,0.0,0.0,0.0,0.0,0.0,0.0,0.0,0.0,0.0,0.0,0.0,0.0,0.0,0.0,0.0,0.0,0.0,0.0,0.0,0.0,0.0,0.0,0.0,0.0,0.0,0.0,0.0,0.0,0.0,0.0,0.0,0.0,0.0,0.0,0.0,0.0,0.0,0.0,0.0,0.0,0.0,0.0,0.0,0.0,0.0,0.0,0.0,0.0,0.0,0.0,0.0,0.0,0.0,0.0,0.0,0.0,0.0,0.0,0.0,0.0,0.0,0.0,0.0,0.0,0.0,0.0,0.0,0.0,0.0,0.0,0.0,0.0,0.0,0.0,0.0,0.0,0.0,0.0,0.0,0.0,0.0,0.0,0.0,0.0,0.0,0.0,0.0,0.0,0.0,0.0,0.0,0.0,0.0,0.0,0.0,0.0,0.0,0.0,0.0,0.0,0.0,0.0,0.0,0.0,0.0,0.0,0.0,0.0,0.0,0.0,0.0,0.0,0.0,0.0,0.0,0.0,0.0,0.0,0.0,0.0,0.0,0.0,0.0,0.0,0.0,0.0,0.0,0.0,0.0,0.0,0.0,0.0,0.0,0.0,0.0,0.0,0.0,0.0,0.0,0.0,0.0,0.0,0.0,0.0,0.0,0.0,0.0,0.0,0.0,0.0,0.0,0.0,0.0,0.0,0.0,0.0,0.0,0.0,0.0,0.0,0.0,0.0,0.0,0.0,0.0,0.0,0.0,0.0,0.0,0.0,0.0,0.0,0.0,0.0,0.0,0.0,0.0,0.0,0.0,0.0,0.0,0.0,0.0,0.0,0.0,0.0,0.0,0.0,0.0,0.0,0.0,0.0,0.0,0.0,0.0,0.0,0.0,0.0,0.0,0.0,0.0,0.0,0.0,0.0,0.0,0.0,0.0,0.0,0.0,0.0,0.0,0.0,0.0,0.0,0.0,0.0,0.0,0.0,0.0,0.0,0.0,0.0,0.0,0.0,0.0,0.0,0.0,0.0,0.0,0.0,0.0,0.0,0.0,0.0,0.0,0.0,0.0,0.0,0.0,0.0,0.0,0.0,0.0,0.0,0.0,0.0,0.0,0.0,0.0,0.0,0.0,0.0,0.0,0.0,0.0,0.0,0.0,0.0,0.0,0.0,0.0,0.0,0.0,0.0,0.0,0.0,0.0,0.0,0.0,0.0,0.0,0.0,0.0,0.0,0.0,0.0,0.0,0.0,0.0,0.0,0.0,0.0,0.0,0.0,0.0,0.0,0.0,0.0,0.0,0.0,0.0,0.0,0.0,0.0,0.0,0.0,0.0,0.0,0.0,0.0,0.0,0.0,0.0,0.0,0.0,0.0,0.0,0.0,0.0,0.0,0.0,0.0,0.0,0.0,0.0,0.0,0.0,0.0,0.0,0.0,0.0,0.0,0.0,0.0,0.0,0.0,0.0,0.0,0.0,0.0,0.0,0.0,0.0,0.0,0.0,0.0,0.0,0.0,0.0,0.0,0.0,0.0,0.0,0.0,0.0,0.0,0.0,0.0,0.0,0.0,0.0,0.0,0.0,0.0,0.0,0.0,0.0,0.0,0.0,0.0,0.0,0.0,0.0,0.0,0.0,0.0,0.0,0.0,0.0,0.0,0.0,0.0,0.0,0.0,0.0,0.0,0.0,0.0,0.0,0.0,0.0,0.0,0.0,0.0,0.0,0.0,0.0,0.0,0.0,0.0,0.0,0.0,0.0,0.0,0.0,0.0,0.0,0.0,0.0,0.0,0.0,0.0,0.0,0.0,0.0,0.0,0.0,0.0,0.0,0.0,0.0,0.0,0.0,0.0,0.0,0.0,0.0,0.0,0.0,0.0,0.0,0.0,0.0,0.0,0.0,0.0,0.0,0.0,0.0,0.0,0.0,0.0,0.0,0.0,0.0,0.0,0.0,0.0,0.0,0.0,0.0,0.0,0.0,0.0,0.0,0.0,0.0,0.0,0.0,0.0,0.0,0.0,0.0,0.0,0.0,0.0,0.0,0.0,0.0,0.0,0.0,0.0,0.0,0.0,0.0,0.0,0.0,0.0,0.0,0.0,0.0,0.0,0.0,0.0,0.0,0.0,0.0,0.0,0.0,0.0,0.0,0.0,0.0,0.0,0.0,0.0,0.0,0.0,0.0,0.0,0.0,0.0,0.0,0.0,0.0,0.0,0.0,0.0,0.0,0.0,0.0,0.0,0.0,0.0,0.0,0.0,0.0,0.0,0.0,0.0,0.0,0.0,0.0,0.0,0.0,0.0,0.0,0.0,0.0,0.0,0.0,0.0,0.0,0.0,0.0,0.0,0.0,0.0,0.0,0.0,0.0,0.0,0.0,0.0,0.0,0.0,0.0,0.0,0.0,0.0,0.0,0.0,0.0,0.0,0.0,0.0,0.0,0.0,0.0,-0.6396,0.0,0.0,0.0,0.0,0.0,0.0,0.0,0.0,0.0,0.0,0.0,0.0,0.0,0.0,0.0,0.0,0.0,0.0,0.0,0.0,0.0,0.0,0.0,0.0,0.0,0.0,0.0,0.0,0.0,0.0,0.0,0.0,0.0,0.0,0.0,0.0,0.0,0.0,0.0,0.0,0.0,0.0,0.0,0.0,0.0,0.0,0.0,0.0,0.0,0.0,0.0,0.0,0.0,0.0,0.0,0.0,0.0,0.0,0.0,0.0,0.0,0.0,0.0,0.0,0.0,0.0,0.0,0.0,0.0,0.0,0.0,0.0,0.0,0.0,0.0,0.0,0.0,0.0,0.0,0.0,0.0,0.0,0.0,0.0,0.0,0.0,0.0,0.0,0.0,0.0,0.0,0.0,0.0,0.0,0.0,0.0,0.0,0.0,0.0,0.0,0.0,0.0,0.0,0.0,0.0,0.0,0.0,0.0,0.0,0.0,-0.5847,-0.6142,-0.5945,-0.6108,-0.6757,0.0,0.0,0.0,0.0,0.0,0.0,0.0,0.0,0.0,0.0,0.0,0.0,0.0,0.0,0.0,0.0,0.0,0.0,0.0,0.0,0.0,0.0,0.0,0.0,0.0,0.0,0.0,0.0,0.0,0.0,0.0,0.0,0.0,0.0,0.0,0.0,0.0,0.0,0.0,0.0,0.0,0.0,0.0,0.0,0.0,0.0,0.0,0.0,0.0,0.0,0.0,0.0,0.0,0.0,0.0,0.0,0.0,0.0,0.0,0.0,0.0,0.0,0.0,0.0,0.0,0.0,0.0,0.0,0.0,0.0,0.0,0.0,0.0,0.0,0.0,0.0,0.0,0.0,0.0,0.0,0.0,0.0,0.0,0.0,0.0,0.0,0.0,0.0,0.0,0.0,0.0,0.0,0.0,0.0,0.0,0.0,0.0,0.0,0.0,0.0,0.0,0.0,0.0,0.0,0.0,0.0,0.0,0.0,0.0,0.0,0.0,0.0,-0.6213,-0.6452,-0.7232,0.0,0.0,0.0,0.0,0.0,0.0,0.0,0.0,0.0,0.0,0.0,0.0,0.0,0.0,0.0,0.0,0.0,0.0,0.0,0.0,0.0,0.0,0.0,0.0,0.0,0.0,0.0,0.0,0.0,0.0,0.0,0.0,0.0,0.0,0.0,0.0,0.0,0.0,0.0,0.0,0.0,0.0,0.0,0.0,0.0,0.0,0.0,0.0,0.0,0.0,0.0,0.0,0.0,0.0,0.0,0.0,0.0,0.0,0.0,0.0,0.0,0.0,0.0,0.0,0.0,0.0,0.0,0.0,0.0,0.0,0.0,0.0,0.0,0.0,0.0,0.0,0.0,0.0,0.0,0.0,0.0,0.0,0.0,0.0,0.0,0.0,0.0,0.0,0.0,0.0,0.0,0.0,0.0,0.0,0.0,0.0,0.0,0.0,0.0,0.0,0.0,0.0,0.0,0.0,0.0,0.0,0.0,0.0,0.0,0.0,-0.6074,-0.6637,-0.6508,0.0,-0.7647,0.0,0.0,0.0,0.0,0.0,0.0,0.0,0.0,0.0,0.0,0.0,0.0,0.0,0.0,0.0,0.0,0.0,0.0,0.0,0.0,0.0,0.0,0.0,0.0,0.0,0.0,0.0,0.0,0.0,0.0,0.0,0.0,0.0,0.0,0.0,0.0,0.0,0.0,0.0,0.0,0.0,0.0,0.0,0.0,0.0,0.0,0.0,0.0,0.0,0.0,0.0,0.0,0.0,0.0,0.0,0.0,0.0,0.0,0.0,0.0,0.0,0.0,0.0,0.0,0.0,0.0,0.0,0.0,0.0,0.0,0.0,0.0,0.0,0.0,0.0,0.0,0.0,0.0,0.0,0.0,0.0,0.0,0.0,0.0,0.0,0.0,0.0,0.0,0.0,0.0,0.0,0.0,0.0,0.0,0.0,0.0,0.0,0.0,0.0,0.0,0.0,0.0,0.0,0.0,0.0,0.0,0.0,0.0,0.0,0.0,-0.6274,-0.6692,-0.7493,-0.7944,0.0,0.0,0.0,0.0,0.0,0.0,0.0,0.0,0.0,0.0,0.0,0.0,0.0,0.0,0.0,0.0,0.0,0.0,0.0,0.0,0.0,0.0,0.0,0.0,0.0,0.0,0.0,0.0,0.0,0.0,0.0,0.0,0.0,0.0,0.0,0.0,0.0,0.0,0.0,0.0,0.0,0.0,0.0,0.0,0.0,0.0,0.0,0.0,0.0,0.0,0.0,0.0,0.0,0.0,0.0,0.0,0.0,0.0,0.0,0.0,0.0,0.0,0.0,0.0,0.0,0.0,0.0,0.0,0.0,0.0,0.0,0.0,0.0,0.0,0.0,0.0,0.0,0.0,0.0,0.0,0.0,0.0,0.0,0.0,0.0,0.0,0.0,0.0,0.0,0.0,0.0,0.0,0.0,0.0,0.0,0.0,0.0,0.0,0.0,0.0,0.0,0.0,0.0,0.0,0.0,0.0,0.0,0.0,0.0,0.0,-0.619,-0.642,-0.6812,-0.8519,-0.9003,-0.7939,0.0,0.0,0.0,0.0,0.0,0.0,0.0,0.0,0.0,0.0,0.0,0.0,0.0,0.0,0.0,0.0,0.0,0.0,0.0,0.0,0.0,0.0,0.0,0.0,0.0,0.0,0.0,0.0,0.0,0.0,0.0,0.0,0.0,0.0,0.0,0.0,0.0,0.0,0.0,0.0,0.0,0.0,0.0,0.0,0.0,0.0,0.0,0.0,0.0,0.0,0.0,0.0,0.0,0.0,0.0,0.0,0.0,0.0,0.0,0.0,0.0,0.0,0.0,0.0,0.0,0.0,0.0,0.0,0.0,0.0,0.0,0.0,0.0,0.0,0.0,0.0,0.0,0.0,0.0,0.0,0.0,0.0,0.0,0.0,0.0,0.0,0.0,0.0,0.0,0.0,0.0,0.0,0.0,0.0,0.0,0.0,0.0,0.0,0.0,0.0,0.0,0.0,0.0,0.0,0.0,0.0,0.0,0.0,0.0,-0.6396,-0.6474,-0.6915,-0.9515,-0.9927,0.0,0.0,0.0,0.0,0.0,0.0,0.0,0.0,0.0,0.0,0.0,0.0,0.0,0.0,0.0,0.0,0.0,0.0,0.0,0.0,0.0,0.0,0.0,0.0,0.0,0.0,0.0,0.0,0.0,0.0,0.0,0.0,0.0,0.0,0.0,0.0,0.0,0.0,0.0,0.0,0.0,0.0,0.0,0.0,0.0,0.0,0.0,0.0,0.0,0.0,0.0,0.0,0.0,0.0,0.0,0.0,0.0,0.0,0.0,0.0,0.0,0.0,0.0,0.0,0.0,0.0,0.0,0.0,0.0,0.0,0.0,0.0,0.0,0.0,0.0,0.0,0.0,0.0,0.0,0.0,0.0,0.0,0.0,0.0,0.0,0.0,0.0,0.0,0.0,0.0,0.0,0.0,0.0,0.0,0.0,0.0,0.0,0.0,0.0,0.0,0.0,0.0,0.0,0.0,0.0,0.0,0.0,0.0,0.0,-0.6105,-0.6393,-0.6851,-0.7533,-0.8919,-0.9194,0.0,0.0,0.0,0.0,0.0,0.0,0.0,0.0,0.0,0.0,0.0,0.0,0.0,0.0,0.0,0.0,0.0,0.0,0.0,0.0,0.0,0.0,0.0,0.0,0.0,0.0,0.0,0.0,0.0,0.0,0.0,0.0,0.0,0.0,0.0,0.0,0.0,0.0,0.0,0.0,0.0,0.0,0.0,0.0,0.0,0.0,0.0,0.0,0.0,0.0,0.0,0.0,0.0,0.0,0.0,0.0,0.0,0.0,0.0,0.0,0.0,0.0,0.0,0.0,0.0,0.0,0.0,0.0,0.0,0.0,0.0,0.0,0.0,0.0,0.0,0.0,0.0,0.0,0.0,0.0,0.0,0.0,0.0,0.0,0.0,0.0,0.0,0.0,0.0,0.0,0.0,0.0,0.0,0.0,0.0,0.0,0.0,0.0,0.0,0.0,0.0,0.0,0.0,0.0,0.0,0.0,0.0,0.0,0.0,-0.6088,0.0,-0.7166,0.0,-0.8677,-0.8889,0.0,0.0,0.0,0.0,0.0,0.0,0.0,0.0,0.0,0.0,0.0,0.0,0.0,0.0,0.0,0.0,0.0,0.0,0.0,0.0,0.0,0.0,0.0,0.0,0.0,0.0,0.0,0.0,0.0,0.0,0.0,0.0,0.0,0.0,0.0,0.0,0.0,0.0,0.0,0.0,0.0,0.0,0.0,0.0,0.0,0.0,0.0,0.0,0.0,0.0,0.0,0.0,0.0,0.0,0.0,0.0,0.0,0.0,0.0,0.0,0.0,0.0,0.0,0.0,0.0,0.0,0.0,0.0,0.0,0.0,0.0,0.0,0.0,0.0,0.0,0.0,0.0,0.0,0.0,0.0,0.0,0.0,0.0,0.0,0.0,0.0,0.0,0.0,0.0,0.0,0.0,0.0,0.0,0.0,0.0,0.0,0.0,0.0,0.0,0.0,0.0,0.0,0.0,0.0,0.0,0.0,0.0,0.0,-0.5813,-0.6668,-0.7261,-0.737,-0.6966,-0.8937,-0.9217,0.0,0.0,0.0,0.0,0.0,0.0,0.0,0.0,0.0,0.0,0.0,0.0,0.0,0.0,0.0,0.0,0.0,0.0,0.0,0.0,0.0,0.0,0.0,0.0,0.0,0.0,0.0,0.0,0.0,0.0,0.0,0.0,0.0,0.0,0.0,0.0,0.0,0.0,0.0,0.0,0.0,0.0,0.0,0.0,0.0,0.0,0.0,0.0,0.0,0.0,0.0,0.0,0.0,0.0,0.0,0.0,0.0,0.0,0.0,0.0,0.0,0.0,0.0,0.0,0.0,0.0,0.0,0.0,0.0,0.0,0.0,0.0,0.0,0.0,0.0,0.0,0.0,0.0,0.0,0.0,0.0,0.0,0.0,0.0,0.0,0.0,0.0,0.0,0.0,0.0,0.0,0.0,0.0,0.0,0.0,0.0,0.0,0.0,0.0,0.0,0.0,0.0,0.0,0.0,0.0,0.0,0.0,0.0,0.0,-0.6695,-0.7082,-0.7363,-0.7509,-0.8203,-0.8479,0.0,0.0,0.0,0.0,0.0,0.0,0.0,0.0,0.0,0.0,0.0,0.0,0.0,0.0,0.0,0.0,0.0,0.0,0.0,0.0,0.0,0.0,0.0,0.0,0.0,0.0,0.0,0.0,0.0,0.0,0.0,0.0,0.0,0.0,0.0,0.0,0.0,0.0,0.0,0.0,0.0,0.0,0.0,0.0,0.0,0.0,0.0,0.0,0.0,0.0,0.0,0.0,0.0,0.0,0.0,0.0,0.0,0.0,0.0,0.0,0.0,0.0,0.0,0.0,0.0,0.0,0.0,0.0,0.0,0.0,0.0,0.0,0.0,0.0,0.0,0.0,0.0,0.0,0.0,0.0,0.0,0.0,0.0,0.0,0.0,0.0,0.0,0.0,0.0,0.0,0.0,0.0,0.0,0.0,0.0,0.0,0.0,0.0,0.0,0.0,0.0,0.0,0.0,0.0,0.0,0.0,0.0,0.0,0.0,-0.6956,-0.7292,-0.7529,-0.7645,-0.7849,-0.8175,-0.8571,0.0,0.0,0.0,0.0,0.0,0.0,0.0,0.0,0.0,0.0,0.0,0.0,0.0,0.0,0.0,0.0,0.0,0.0,0.0,0.0,0.0,0.0,0.0,0.0,0.0,0.0,0.0,0.0,0.0,0.0,0.0,0.0,0.0,0.0,0.0,0.0,0.0,0.0,0.0,0.0,0.0,0.0,0.0,0.0,0.0,0.0,0.0,0.0,0.0,0.0,0.0,0.0,0.0,0.0,0.0,0.0,0.0,0.0,0.0,0.0,0.0,0.0,0.0,0.0,0.0,0.0,0.0,0.0,0.0,0.0,0.0,0.0,0.0,0.0,0.0,0.0,0.0,0.0,0.0,0.0,0.0,0.0,0.0,0.0,0.0,0.0,0.0,0.0,0.0,0.0,0.0,0.0,0.0,0.0,0.0,0.0,0.0,0.0,0.0,0.0,0.0,0.0,0.0,0.0,0.0,0.0,0.0,0.0,-0.7356,-0.7804,-0.7834,-0.7431,-0.788,-0.812,0.0,0.0,0.0,0.0,0.0,0.0,0.0,0.0,0.0,0.0,0.0,0.0,0.0,0.0,0.0,0.0,0.0,0.0,0.0,0.0,0.0,0.0,0.0,0.0,0.0,0.0,0.0,0.0,0.0,0.0,0.0,0.0,0.0,0.0,0.0,0.0,0.0,0.0,0.0,0.0,0.0,0.0,0.0,0.0,0.0,0.0,0.0,0.0,0.0,0.0,0.0,0.0,0.0,0.0,0.0,0.0,0.0,0.0,0.0,0.0,0.0,0.0,0.0,0.0,0.0,0.0,0.0,0.0,0.0,0.0,0.0,0.0,0.0,0.0,0.0,0.0,0.0,0.0,0.0,0.0,0.0,0.0,0.0,0.0,0.0,0.0,0.0,0.0,0.0,0.0,0.0,0.0,0.0,0.0,0.0,0.0,0.0,0.0,0.0,0.0,0.0,0.0,0.0,0.0,0.0,0.0,0.0,0.0,0.0,-0.721,-0.775,-0.7984,-0.7855,-0.7535,-0.7614,0.0,0.0,0.0,0.0,0.0,0.0,0.0,0.0,0.0,0.0,0.0,0.0,0.0,0.0,0.0,0.0,0.0,0.0,0.0,0.0,0.0,0.0,0.0,0.0,0.0,0.0,0.0,0.0,0.0,0.0,0.0,0.0,0.0,0.0,0.0,0.0,0.0,0.0,0.0,0.0,0.0,0.0,0.0,0.0,0.0,0.0,0.0,0.0,0.0,0.0,0.0,0.0,0.0,0.0,0.0,0.0,0.0,0.0,0.0,0.0,0.0,0.0,0.0,0.0,0.0,0.0,0.0,0.0,0.0,0.0,0.0,0.0,0.0,0.0,0.0,0.0,0.0,0.0,0.0,0.0,0.0,0.0,0.0,0.0,0.0,0.0,0.0,0.0,0.0,0.0,0.0,0.0,0.0,0.0,0.0,0.0,0.0,0.0,0.0,0.0,0.0,0.0,0.0,0.0,0.0,0.0,0.0,0.0,-0.7149,-0.7417,-0.7828,-0.8038,-0.8038,-0.758,-0.7517,0.0,0.0,0.0,0.0,0.0,0.0,0.0,0.0,0.0,0.0,0.0,0.0,0.0,0.0,0.0,0.0,0.0,0.0,0.0,0.0,0.0,0.0,0.0,0.0,0.0,0.0,0.0,0.0,0.0,0.0,0.0,0.0,0.0,0.0,0.0,0.0,0.0,0.0,0.0,0.0,0.0,0.0,0.0,0.0,0.0,0.0,0.0,0.0,0.0,0.0,0.0,0.0,0.0,0.0,0.0,0.0,0.0,0.0,0.0,0.0,0.0,0.0,0.0,0.0,0.0,0.0,0.0,0.0,0.0,0.0,0.0,0.0,0.0,0.0,0.0,0.0,0.0,0.0,0.0,0.0,0.0,0.0,0.0,0.0,0.0,0.0,0.0,0.0,0.0,0.0,0.0,0.0,0.0,0.0,0.0,0.0,0.0,0.0,0.0,0.0,0.0,0.0,0.0,0.0,0.0,0.0,0.0,0.0,-0.7363,-0.778,-0.7953,-0.8038,-0.8031,-0.774,-0.767,0.0,0.0,0.0,0.0,0.0,0.0,0.0,0.0,0.0,0.0,0.0,0.0,0.0,0.0,0.0,0.0,0.0,0.0,0.0,0.0,0.0,0.0,0.0,0.0,0.0,0.0,0.0,0.0,0.0,0.0,0.0,0.0,0.0,0.0,0.0,0.0,0.0,0.0,0.0,0.0,0.0,0.0,0.0,0.0,0.0,0.0,0.0,0.0,0.0,0.0,0.0,0.0,0.0,0.0,0.0,0.0,0.0,0.0,0.0,0.0,0.0,0.0,0.0,0.0,0.0,0.0,0.0,0.0,0.0,0.0,0.0,0.0,0.0,0.0,0.0,0.0,0.0,0.0,0.0,0.0,0.0,0.0,0.0,0.0,0.0,0.0,0.0,0.0,0.0,0.0,0.0,0.0,0.0,0.0,0.0,0.0,0.0,0.0,0.0,0.0,0.0,0.0,0.0,0.0,0.0,0.0,0.0,0.0,-0.7428,-0.7641,-0.7906,-0.8038,-0.8038,-0.7638,-0.7392,0.0,0.0,0.0,0.0,0.0,0.0,0.0,0.0,0.0,0.0,0.0,0.0,0.0,0.0,0.0,0.0,0.0,0.0,0.0,0.0,0.0,0.0,0.0,0.0,0.0,0.0,0.0,0.0,0.0,0.0,0.0,0.0,0.0,0.0,0.0,0.0,0.0,0.0,0.0,0.0,0.0,0.0,0.0,0.0,0.0,0.0,0.0,0.0,-0.697,0.0,0.0,0.0,0.0,0.0,0.0,0.0,0.0,0.0,0.0,0.0,0.0,0.0,0.0,0.0,0.0,0.0,0.0,0.0,0.0,0.0,0.0,0.0,0.0,0.0,0.0,0.0,0.0,0.0,0.0,0.0,0.0,0.0,0.0,0.0,0.0,0.0,0.0,0.0,0.0,0.0,0.0,0.0,0.0,0.0,0.0,0.0,0.0,0.0,0.0,0.0,0.0,0.0,0.0,0.0,0.0,0.0,0.0,0.0,-0.7512,-0.7797,-0.7889,-0.7933,-0.7919,-0.757,-0.7299,0.0,0.0,0.0,0.0,0.0,0.0,0.0,0.0,0.0,0.0,0.0,0.0,0.0,0.0,0.0,0.0,0.0,0.0,0.0,0.0,0.0,0.0,0.0,0.0,0.0,0.0,0.0,0.0,0.0,0.0,0.0,0.0,0.0,0.0,0.0,0.0,0.0,0.0,0.0,0.0,0.0,0.0,0.0,0.0,0.0,0.0,0.0,0.0,0.0,0.0,0.0,0.0,0.0,0.0,0.0,0.0,0.0,0.0,0.0,0.0,0.0,0.0,0.0,0.0,0.0,0.0,0.0,0.0,0.0,0.0,0.0,0.0,0.0,0.0,0.0,0.0,0.0,0.0,0.0,0.0,0.0,0.0,0.0,0.0,0.0,0.0,0.0,0.0,0.0,0.0,0.0,0.0,0.0,0.0,0.0,0.0,0.0,0.0,0.0,0.0,0.0,0.0,0.0,0.0,0.0,0.0,0.0,-0.7122,-0.7543,-0.8007,-0.7868,-0.7787,-0.7804,-0.7526,-0.7278,-0.7075,0.0,0.0,0.0,0.0,0.0,0.0,0.0,0.0,0.0,0.0,0.0,0.0,0.0,0.0,0.0,0.0,0.0,0.0,0.0,0.0,0.0,0.0,0.0,0.0,0.0,0.0,0.0,0.0,0.0,0.0,0.0,0.0,0.0,0.0,0.0,0.0,0.0,0.0,-0.6795,-0.3902,0.0,0.0,0.0,0.0,0.0,0.0,0.0,0.0,-0.7509,0.0,0.0,0.0,0.0,0.0,0.0,0.0,0.0,0.0,0.0,0.0,0.0,0.0,0.0,0.0,0.0,0.0,0.0,0.0,0.0,0.0,0.0,0.0,0.0,0.0,0.0,0.0,0.0,0.0,0.0,0.0,0.0,0.0,0.0,0.0,0.0,0.0,0.0,0.0,0.0,0.0,0.0,0.0,0.0,0.0,0.0,0.0,0.0,0.0,0.0,0.0,0.0,0.0,0.0,0.0,0.0,-0.7054,-0.7024,-0.7336,-0.8014,-0.7773,-0.7689,-0.7797,-0.7526,-0.7183,-0.6787,0.0,0.0,0.0,0.0,0.0,0.0,0.0,0.0,0.0,0.0,0.0,0.0,0.0,0.0,0.0,0.0,0.0,0.0,0.0,0.0,0.0,0.0,0.0,0.0,0.0,0.0,0.0,0.0,0.0,0.0,0.0,0.0,0.0,0.0,0.0,0.0,0.0,0.0,0.0,-0.3448,-0.34,0.0,0.0,0.0,0.0,0.0,0.0,0.0,0.0,-0.7485,0.0,0.0,0.0,0.0,0.0,0.0,0.0,0.0,0.0,0.0,0.0,0.0,0.0,0.0,0.0,0.0,0.0,0.0,0.0,0.0,0.0,0.0,0.0,0.0,0.0,0.0,0.0,0.0,0.0,0.0,0.0,0.0,0.0,0.0,0.0,0.0,0.0,0.0,0.0,0.0,0.0,0.0,0.0,0.0,0.0,0.0,0.0,0.0,0.0,0.0,0.0,0.0,0.0,0.0,0.0,-0.686,-0.7031,-0.737,-0.7787,-0.7594,-0.7516,-0.757,-0.7221,-0.6885,0.0,0.0,0.0,0.0,0.0,0.0,0.0,0.0,0.0,0.0,0.0,0.0,0.0,0.0,0.0,0.0,0.0,0.0,0.0,0.0,0.0,0.0,0.0,0.0,0.0,0.0,0.0,0.0,0.0,0.0,0.0,0.0,0.0,0.0,0.0,0.0,0.0,0.0,0.0,0.0,-0.3302,-0.3226,-0.4734,0.0,0.0,0.0,0.0,0.0,0.0,-0.7692,-0.7648,0.0,0.0,0.0,0.0,0.0,0.0,0.0,0.0,0.0,0.0,0.0,0.0,0.0,0.0,0.0,0.0,0.0,0.0,0.0,0.0,0.0,0.0,0.0,0.0,0.0,0.0,0.0,0.0,0.0,0.0,0.0,0.0,0.0,0.0,0.0,0.0,0.0,0.0,0.0,0.0,0.0,0.0,0.0,0.0,0.0,0.0,0.0,0.0,0.0,0.0,0.0,0.0,0.0,0.0,0.0,-0.6558,-0.6976,-0.7356,-0.758,-0.7417,-0.7339,-0.7363,-0.6966,-0.6647,0.0,0.0,0.0,0.0,0.0,0.0,0.0,0.0,0.0,0.0,0.0,0.0,0.0,0.0,0.0,0.0,0.0,0.0,0.0,0.0,0.0,0.0,0.0,0.0,0.0,0.0,0.0,0.0,0.0,0.0,0.0,0.0,0.0,0.0,0.0,0.0,0.0,0.0,0.0,0.0,0.0,-0.3339,-0.5264,-0.4833,0.0,0.0,0.0,0.0,-0.7855,-0.7831,0.0,0.0,0.0,0.0,0.0,0.0,0.0,0.0,0.0,0.0,0.0,0.0,0.0,0.0,0.0,0.0,0.0,0.0,0.0,0.0,0.0,0.0,0.0,0.0,0.0,0.0,0.0,0.0,0.0,0.0,0.0,0.0,0.0,0.0,0.0,0.0,0.0,0.0,0.0,0.0,0.0,0.0,0.0,0.0,0.0,0.0,0.0,0.0,0.0,0.0,0.0,0.0,0.0,0.0,0.0,0.0,-0.6454,-0.6671,-0.7044,-0.7553,-0.7316,-0.7231,-0.7363,-0.7065,-0.6709,0.0,0.0,0.0,0.0,0.0,0.0,0.0,0.0,0.0,0.0,0.0,0.0,0.0,0.0,0.0,0.0,0.0,0.0,0.0,0.0,0.0,0.0,0.0,0.0,0.0,0.0,0.0,0.0,0.0,0.0,0.0,0.0,0.0,0.0,0.0,0.0,0.0,0.0,0.0,0.0,0.0,-0.5158,-0.4321,-0.499,-0.6187,0.0,0.0,-0.7858,-0.7994,-0.7899,0.0,0.0,0.0,0.0,0.0,0.0,0.0,0.0,0.0,0.0,0.0,0.0,0.0,0.0,0.0,0.0,0.0,0.0,0.0,0.0,0.0,0.0,0.0,0.0,0.0,0.0,0.0,0.0,0.0,0.0,0.0,0.0,0.0,0.0,0.0,0.0,0.0,0.0,0.0,0.0,0.0,0.0,0.0,0.0,0.0,0.0,0.0,0.0,0.0,0.0,0.0,0.0,0.0,0.0,0.0,-0.6006,-0.6352,-0.6746,-0.7075,-0.7326,-0.721,-0.7132,-0.7122,-0.6827,-0.6461,0.0,0.0,0.0,0.0,0.0,0.0,0.0,0.0,0.0,0.0,0.0,0.0,0.0,0.0,0.0,0.0,0.0,0.0,0.0,0.0,0.0,0.0,0.0,0.0,0.0,0.0,0.0,0.0,0.0,0.0,0.0,0.0,0.0,0.0,0.0,0.0,0.0,0.0,0.0,0.0,0.0,0.0,-0.624,-0.6054,0.0,0.0,0.0,-0.7963,-0.8028,0.0,0.0,0.0,0.0,0.0,0.0,0.0,0.0,0.0,0.0,0.0,0.0,0.0,0.0,0.0,0.0,0.0,0.0,0.0,0.0,0.0,0.0,0.0,0.0,0.0,0.0,0.0,0.0,0.0,0.0,0.0,0.0,0.0,0.0,0.0,0.0,0.0,0.0,0.0,0.0,0.0,0.0,0.0,0.0,0.0,0.0,0.0,0.0,0.0,0.0,0.0,0.0,0.0,0.0,0.0,0.0,0.0,-0.6264,-0.6803,-0.7105,-0.7139,-0.7017,-0.7037,-0.6926,-0.6597,0.0,0.0,0.0,0.0,0.0,0.0,0.0,0.0,0.0,0.0,0.0,0.0,0.0,0.0,0.0,0.0,0.0,0.0,0.0,0.0,0.0,0.0,0.0,0.0,0.0,0.0,0.0,-0.4918,0.0,0.0,0.0,0.0,0.0,0.0,0.0,0.0,0.0,0.0,0.0,0.0,0.0,0.0,-0.6503,-0.7359,-0.6913,-0.6833,0.0,0.0,-0.8038,-0.8038,-0.8038,-0.7977,0.0,0.0,0.0,0.0,0.0,0.0,0.0,0.0,0.0,0.0,0.0,0.0,0.0,0.0,0.0,0.0,0.0,0.0,0.0,0.0,0.0,0.0,0.0,0.0,0.0,0.0,0.0,0.0,0.0,0.0,0.0,0.0,0.0,0.0,0.0,0.0,0.0,0.0,0.0,0.0,0.0,0.0,0.0,0.0,0.0,0.0,0.0,0.0,0.0,0.0,0.0,0.0,0.0,0.0,0.0,-0.6335,-0.6712,-0.7004,-0.7041,-0.701,-0.6939,-0.6922,-0.6505,-0.6129,0.0,0.0,0.0,0.0,0.0,0.0,0.0,0.0,0.0,0.0,0.0,0.0,0.0,0.0,0.0,0.0,0.0,0.0,0.0,0.0,0.0,0.0,0.0,0.0,0.0,0.0,0.0,0.0,0.0,0.0,0.0,0.0,0.0,0.0,0.0,0.0,0.0,0.0,0.0,0.0,0.0,-0.7467,-0.6276,-0.7153,-0.7839,0.0,0.0,-0.8038,-0.8038,-0.8038,-0.794,-0.7658,0.0,0.0,0.0,0.0,0.0,0.0,0.0,0.0,0.0,0.0,0.0,0.0,0.0,0.0,0.0,0.0,0.0,0.0,0.0,0.0,0.0,0.0,0.0,0.0,0.0,0.0,0.0,0.0,0.0,0.0,0.0,0.0,0.0,0.0,0.0,0.0,0.0,0.0,0.0,0.0,0.0,0.0,0.0,0.0,0.0,0.0,0.0,0.0,0.0,0.0,0.0,0.0,0.0,-0.5813,-0.6257,-0.661,-0.6861,-0.6997,-0.6865,-0.6742,-0.6647,-0.6481,-0.6166,0.0,0.0,0.0,0.0,0.0,0.0,0.0,0.0,0.0,0.0,0.0,0.0,0.0,0.0,0.0,0.0,0.0,0.0,0.0,0.0,0.0,0.0,0.0,0.0,0.0,0.0,0.0,0.0,-0.5511,-0.5807,-0.6324,0.0,0.0,0.0,0.0,0.0,0.0,0.0,0.0,0.0,0.0,-0.771,-0.7251,-0.7704,0.0,0.0,-0.8038,-0.8038,-0.8038,-0.8038,-0.797,-0.7763,-0.7729,0.0,0.0,0.0,0.0,0.0,0.0,0.0,0.0,0.0,0.0,0.0,0.0,0.0,0.0,0.0,0.0,0.0,0.0,0.0,0.0,0.0,0.0,0.0,0.0,0.0,0.0,0.0,0.0,0.0,0.0,0.0,0.0,0.0,0.0,0.0,0.0,0.0,0.0,0.0,0.0,0.0,0.0,0.0,0.0,0.0,0.0,0.0,0.0,0.0,0.0,0.0,0.0,-0.581,-0.6257,-0.6505,-0.6729,-0.6922,-0.6736,-0.658,-0.6474,-0.6386,-0.6105,0.0,0.0,0.0,0.0,0.0,0.0,0.0,0.0,0.0,0.0,0.0,0.0,0.0,0.0,0.0,0.0,0.0,0.0,0.0,0.0,0.0,0.0,0.0,0.0,0.0,0.0,0.0,0.0,-0.6342,-0.6577,-0.6448,0.0,0.0,0.0,0.0,0.0,0.0,0.0,0.0,0.0,0.0,-0.7916,-0.8024,-0.8038,-0.8038,-0.8038,-0.8038,-0.8038,-0.8038,-0.8038,-0.7987,-0.7834,0.0,0.0,0.0,0.0,0.0,0.0,0.0,0.0,0.0,0.0,0.0,0.0,0.0,0.0,0.0,0.0,0.0,0.0,0.0,0.0,0.0,0.0,0.0,0.0,0.0,0.0,0.0,0.0,0.0,0.0,0.0,0.0,0.0,0.0,0.0,0.0,0.0,0.0,0.0,0.0,0.0,0.0,0.0,0.0,0.0,0.0,0.0,0.0,0.0,0.0,0.0,0.0,0.0,-0.581,-0.6254,-0.64,-0.662,-0.6902,-0.6634,-0.6471,-0.6461,-0.6193,-0.5901,-0.5599,0.0,0.0,0.0,0.0,0.0,0.0,0.0,0.0,0.0,0.0,0.0,0.0,0.0,0.0,0.0,0.0,0.0,0.0,0.0,0.0,0.0,0.0,0.0,0.0,0.0,0.0,-0.6809,-0.7873,-0.8146,0.0,0.0,0.0,0.0,0.0,0.0,0.0,0.0,0.0,0.0,-0.7936,-0.8035,-0.8038,-0.8038,-0.8038,-0.8038,-0.8038,-0.8038,-0.8038,-0.8038,-0.7987,0.0,0.0,0.0,0.0,0.0,0.0,0.0,0.0,0.0,0.0,0.0,0.0,0.0,0.0,0.0,0.0,0.0,0.0,0.0,0.0,0.0,0.0,0.0,0.0,0.0,0.0,0.0,-0.7246,-0.7721,0.0,0.0,0.0,0.0,0.0,0.0,0.0,0.0,0.0,0.0,0.0,-0.7729,-0.752,0.0,0.0,0.0,0.0,0.0,0.0,0.0,0.0,0.0,0.0,0.0,0.0,-0.5762,-0.6098,-0.6254,-0.6427,-0.6614,-0.643,-0.6332,-0.641,-0.6237,-0.5996,-0.5599,0.0,0.0,0.0,0.0,0.0,0.0,0.0,0.0,0.0,0.0,0.0,0.0,0.0,0.0,0.0,0.0,0.0,0.0,0.0,0.0,0.0,0.0,0.0,0.0,0.0,-0.6846,0.0,0.0,0.0,0.0,0.0,0.0,0.0,0.0,0.0,0.0,0.0,-0.7699,-0.7797,-0.7943,-0.8038,-0.8038,-0.8038,-0.8038,0.0,0.0,0.0,0.0,0.0,0.0,0.0,0.0,0.0,0.0,0.0,0.0,0.0,0.0,-0.7675,-0.7131,-0.7102,-0.7082,-0.7129,0.0,0.0,0.0,0.0,0.0,0.0,0.0,0.0,0.0,0.0,0.0,0.0,0.0,0.0,-0.7997,0.0,-0.931,0.0,0.0,0.0,0.0,0.0,0.0,0.0,0.0,-1.0048,-1.0162,-0.9326,-0.8792,-0.8053,0.0,-0.6492,-0.6006,0.0,0.0,0.0,0.0,0.0,0.0,0.0,0.0,-0.581,-0.6101,-0.621,-0.6329,-0.6458,-0.6332,-0.6261,-0.6257,-0.621,-0.6044,-0.5752,-0.5549,-0.5281,0.0,0.0,0.0,0.0,0.0,0.0,0.0,0.0,0.0,0.0,0.0,0.0,0.0,0.0,0.0,0.0,0.0,0.0,0.0,0.0,0.0,0.0,0.0,-0.7305,0.0,0.0,0.0,0.0,0.0,0.0,0.0,0.0,0.0,-0.7366,-0.7628,-0.7831,-0.7882,-0.7977,-0.8038,-0.8038,0.0,0.0,0.0,0.0,0.0,0.0,0.0,-0.8038,-0.8038,-0.8038,-0.8038,-0.8038,-0.8038,-0.8038,-0.8038,0.0,0.0,-0.7433,-0.7411,-0.739,-0.7441,-0.7573,-0.7658,-0.7614,-0.7756,-0.7862,0.0,0.0,0.0,0.0,0.0,0.0,0.0,0.0,-0.725,-0.8056,0.0,-0.9678,0.0,0.0,0.0,0.0,0.0,0.0,0.0,0.0,-1.1863,-1.2181,-1.1704,-0.9774,-0.8776,-0.8603,-0.7333,-0.6536,-0.6251,-0.5827,0.0,0.0,0.0,0.0,0.0,0.0,-0.5956,-0.6234,-0.6254,-0.6407,-0.6451,-0.6332,-0.6261,-0.6254,-0.6118,-0.6037,-0.602,-0.5755,-0.5532,-0.5372,-0.577,0.0,0.0,0.0,0.0,0.0,0.0,0.0,0.0,0.0,0.0,0.0,0.0,0.0,0.0,0.0,0.0,0.0,0.0,0.0,0.0,-0.7308,0.0,0.0,0.0,0.0,0.0,0.0,0.0,0.0,0.0,0.0,-0.788,-0.7818,-0.7872,-0.8018,0.0,0.0,0.0,0.0,-0.8038,-0.8038,-0.8038,-0.8038,-0.8038,-0.8038,-0.8038,-0.8038,0.0,0.0,-0.8038,-0.8038,-0.8038,-0.8038,-0.8038,-0.8038,-0.8024,-0.7892,-0.7851,-0.798,-0.7902,-0.7872,-0.7994,-0.8007,-0.8024,-1.3367,0.0,0.0,0.0,0.0,-0.7948,-0.7315,-0.6816,-0.8796,-0.9082,-0.8295,-0.9932,0.0,0.0,0.0,0.0,0.0,0.0,-1.0025,-1.0658,-1.2383,-1.2887,-1.2126,-1.0595,-0.9517,-0.8793,-0.7285,-0.6549,-0.6559,-0.6234,-0.5884,-0.5532,0.0,0.0,0.0,0.0,-0.601,-0.6098,-0.6207,-0.6281,-0.6322,-0.6281,-0.6261,-0.6261,-0.6217,-0.6142,-0.6034,-0.5945,-0.5786,-0.5535,-0.5986,0.0,0.0,0.0,0.0,0.0,0.0,0.0,0.0,0.0,0.0,0.0,0.0,0.0,0.0,0.0,0.0,0.0,0.0,0.0,-0.8533,-0.8403,-0.8551,0.0,0.0,0.0,0.0,0.0,0.0,0.0,0.0,0.0,-0.7953,-0.7974,-0.7991,0.0,0.0,-0.8038,-0.8038,-0.8038,-0.8038,-0.8038,0.0,0.0,0.0,-0.8038,-0.8038,-0.8038,-0.8038,-0.8038,-0.8038,-0.8038,-0.8038,-0.8038,-0.8038,-0.8038,-0.8035,-0.8007,-0.7991,-0.8028,-0.8001,-0.7984,-0.8028,-0.8038,-0.8038,-1.4285,-1.2943,-1.2312,-1.1211,-0.9859,-0.8958,-0.8211,-0.7782,-0.9056,-0.9163,-0.8443,-0.9912,-0.9782,-0.8489,-0.7729,0.0,0.0,0.0,-0.9499,-0.9899,-1.2027,-1.2524,-1.1627,-1.081,-0.9971,-0.8865,-0.7326,-0.6614,-0.6698,-0.6403,-0.6095,-0.5779,0.0,0.0,-0.5772,-0.5942,-0.6061,-0.6122,-0.6213,-0.6261,-0.6261,-0.6261,-0.6261,-0.6261,-0.6261,-0.6217,-0.6125,-0.6125,-0.601,-0.5772,-0.6029,-0.6386,0.0,0.0,0.0,0.0,0.0,0.0,0.0,0.0,0.0,0.0,0.0,-0.9003,-0.8574,0.0,0.0,0.0,-0.9216,-0.9696,-1.0084,-0.9426,0.0,0.0,0.0,0.0,0.0,0.0,0.0,-0.7876,-0.8344,-0.8517,-0.8024,-0.8038,-0.8038,-0.8038,-0.8038,-0.8038,-0.8038,0.0,-0.8038,-0.8038,-0.8038,-0.8038,-0.8038,-0.8038,-0.8038,-0.8038,-0.8038,-0.8038,-0.8038,-0.8038,-0.8038,-0.8038,-0.8038,-0.8038,-0.8038,-0.8038,-0.8038,-0.8038,-0.8038,-0.8038,-0.8038,-0.8038,-0.8038,-1.5264,-1.4854,-1.3436,-1.2679,-1.2112,-0.9833,-0.8918,-0.8894,-0.8541,-0.8558,-0.8786,-0.9705,-0.9409,-0.8229,-0.7046,0.0,0.0,-0.8131,-0.8807,-0.8978,-1.1123,-1.1638,-1.0605,-1.0499,-0.9899,-0.8856,-0.7407,-0.6681,-0.6668,-0.6396,-0.619,-0.6051,-0.6047,-0.6044,-0.603,-0.604,-0.6118,-0.6257,-0.6257,-0.6261,-0.6261,-0.6261,-0.6261,-0.6261,-0.6251,-0.624,-0.624,-0.623,-0.6159,-0.6017,-0.5864,-0.6,-0.635,0.0,0.0,0.0,0.0,0.0,0.0,0.0,0.0,0.0,0.0,0.0,0.0,0.0,0.0,0.0,-1.0858,0.0,-1.1617,-1.0105,0.0,0.0,0.0,-0.7327,-0.759,-0.8641,-0.8981,-0.7911,0.0,0.0,0.0,0.0,-0.8038,-0.8038,-0.8038,-0.8038,-0.8038,-0.8038,-0.8038,-0.8038,-0.8038,-0.8038,-0.8038,-0.8038,-0.8038,-0.8038,-0.8038,-0.8038,-0.8038,-0.8038,-0.8038,-0.8038,-0.8038,-0.8038,-0.8038,-0.8038,-0.8038,-0.8038,-0.8038,-0.8038,-0.8038,-0.8038,-0.8038,-1.5558,-1.5284,-1.4865,-1.4038,-1.282,-1.1238,-1.0023,-0.917,-0.8903,-0.8329,-0.7566,-0.8602,-0.8338,-0.7112,-0.6867,-0.6837,-0.6881,-0.8225,-0.8848,-0.8978,-1.0351,-1.0864,-1.0519,-0.9591,-0.9011,-0.8649,-0.7241,-0.6525,-0.6515,-0.6349,-0.6244,-0.6207,-0.6207,-0.6146,-0.604,-0.6146,-0.6224,-0.6261,-0.6261,-0.6261,-0.6261,-0.6261,-0.6261,-0.6257,-0.6146,-0.6084,-0.6081,-0.5973,-0.5891,-0.5854,-0.5715,-0.5892,-0.6342,-0.6187,0.0,0.0,0.0,0.0,0.0,0.0,0.0,0.0,0.0,-1.0698,-0.9849,0.0,-1.1945,0.0,-1.1455,-1.1092,-1.0837,-1.0059,0.0,0.0,-0.8942,-0.8792,-0.9284,-0.8777,-0.8234,-0.798,-0.8209,-0.8336,-0.8038,-0.8038,-0.8038,-0.8038,-0.8038,-0.8038,-0.8038,-0.8038,-0.8038,-0.8038,-0.8038,-0.8038,-0.8038,-0.8038,-0.8038,-0.8038,-0.8038,-0.8038,-0.8038,-0.8038,-0.8038,-0.8038,-0.8038,-0.8038,-0.8038,-0.8038,-0.8038,-0.8038,-0.8038,-0.8038,-0.8038,-0.8038,-0.8038,-1.5732,-1.5591,-1.5591,-1.5113,-1.4266,-1.2569,-1.1206,-1.0037,-0.9231,-0.8189,-0.7136,-0.7744,-0.7569,-0.6902,-0.6987,-0.7021,-0.7031,-0.78,-0.8105,-0.8189,-0.9318,-0.9575,-0.9039,-0.8777,-0.8442,-0.7839,-0.6941,-0.6474,-0.6464,-0.6407,-0.6261,-0.6261,-0.6261,-0.6217,-0.6142,-0.622,-0.6261,-0.6261,-0.6261,-0.6261,-0.6261,-0.6261,-0.6227,-0.6159,-0.6074,-0.5996,-0.5928,-0.5847,-0.58,-0.58,-0.5725,-0.5783,-0.6097,-0.5924,-0.6121,0.0,0.0,0.0,0.0,0.0,0.0,0.0,0.0,0.0,0.0,0.0,-1.2126,0.0,-1.2453,0.0,-1.1825,-1.067,-0.9802,-0.9742,-0.9024,-0.8724,-0.9099,-0.8432,-0.8038,-0.8038,-0.8038,-0.8038,-0.8038,-0.8038,-0.8038,-0.8038,-0.8038,-0.8038,-0.8038,-0.8038,-0.8038,-0.8038,-0.8038,-0.8038,-0.8038,-0.8038,-0.8038,-0.8038,-0.8038,-0.8038,-0.8038,-0.8038,-0.8038,-0.8038,-0.8038,-0.8038,-0.8038,-0.8038,-0.8038,-0.8031,-0.7984,-0.7967,-0.8024,-0.8038,-0.8024,-1.5825,-1.5825,-1.5825,-1.5805,-1.5611,-1.3795,-1.2326,-1.1059,-0.9592,-0.8189,-0.7139,-0.7139,-0.7139,-0.7139,-0.7139,-0.7139,-0.7139,-0.7139,-0.7139,-0.7139,-0.8189,-0.8101,-0.7136,-0.801,-0.7924,-0.6885,-0.661,-0.6464,-0.6441,-0.6322,-0.6261,-0.6261,-0.6261,-0.6261,-0.6261,-0.6261,-0.6261,-0.6261,-0.6261,-0.6261,-0.6261,-0.6261,-0.6196,-0.6067,-0.602,-0.5939,-0.581,-0.5783,-0.5776,-0.5776,-0.5793,-0.58,-0.58,-0.5667,-0.5862,0.0,-0.5865,0.0,0.0,0.0,0.0,0.0,0.0,0.0,0.0,-1.1593,-1.2059,-1.3658,-1.3201,-1.2923,-1.2952,-1.1057,-0.9801,-0.9706,-0.8726,-0.8038,-0.8038,-0.8038,-0.8038,-0.8038,-0.8038,-0.8038,-0.8038,-0.8038,-0.8038,-0.8038,-0.8038,-0.8038,-0.8038,-0.8038,-0.8038,-0.8038,-0.8038,-0.8038,-0.8038,-0.8038,-0.8038,-0.8038,-0.8038,-0.8038,-0.8038,-0.8038,-0.8038,-0.8038,-0.8038,-0.8031,-0.8018,-0.8007,-0.7997,-0.7963,-0.7865,-0.7834,-0.7957,-0.797,-0.794,-1.5825,-1.5825,-1.5825,-1.5698,-1.5444,-1.4856,-1.3405,-1.1268,-0.9651,-0.8189,-0.7139,-0.7139,-0.7139,-0.7139,-0.7139,-0.7139,-0.7139,-0.7139,-0.7139,-0.7139,-0.7316,-0.7316,-0.7132,-0.7163,-0.7031,-0.6739,-0.6559,-0.641,-0.6376,-0.6352,-0.6261,-0.6261,-0.6261,-0.6261,0.0,0.0,0.0,0.0,-0.6261,-0.6261,-0.6261,-0.6261,-0.6251,-0.621,-0.5976,0.0,-0.58,-0.5691,-0.563,-0.5633,-0.5742,0.0,0.0,0.0,0.0,0.0,0.0,0.0,0.0,0.0,0.0,0.0,-0.7419,-0.7647,-0.9559,-1.1517,-1.2439,-1.2037,-1.2041,-1.1737,-1.0715,-0.9292,-0.8432,-0.8333,-0.8137,-0.8038,-0.8038,-0.8038,-0.8038,-0.8038,-0.8038,-0.8038,-0.8038,-0.8038,-0.8038,-0.8038,-0.8038,-0.8038,-0.8038,-0.8038,-0.8038,-0.8038,-0.8038,-0.8038,-0.8038,-0.8038,-0.8038,-0.8038,-0.8038,-0.8038,-0.8038,-0.8038,-0.8038,-0.8038,-0.8038,-0.7994,-0.7882,-0.7855,-0.7821,-0.7709,-0.7662,-0.7682,-0.7818,-0.7763,-0.7675,-1.5825,0.0,-1.5825,-1.5658,0.0,-1.5084,-1.395,-1.1986,-1.0402,-0.8711,-0.7139,-0.7139,-0.7139,-0.7139,-0.7139,-0.7139,-0.7139,-0.7139,-0.7139,-0.7139,-0.7139,-0.7102,-0.7034,-0.6885,-0.6736,-0.6583,-0.6437,-0.641,-0.6342,-0.6261,-0.6261,-0.6261,-0.6261,-0.6261,-0.6261,-0.6261,-0.6261,-0.6261,-0.6261,-0.6261,-0.6261,-0.6261,-0.6227,-0.6146,0.0,0.0,0.0,0.0,0.0,0.0,0.0,0.0,0.0,0.0,0.0,-0.6013,-0.6027,-0.6088,-0.6237,-0.639,-0.681,-0.7533,-0.7286,-0.7677,-0.9105,-1.1074,-1.2088,-1.1748,-1.1298,-1.0681,-0.9998,-0.8825,-0.8038,-0.8038,-0.8038,-0.8038,-0.8038,-0.8038,-0.8038,-0.8038,-0.8038,-0.8038,-0.8038,-0.8038,-0.8038,-0.8038,-0.8038,-0.8038,-0.8038,-0.8038,-0.8038,-0.8038,-0.8038,-0.8038,-0.8038,-0.8038,-0.8038,-0.8038,-0.8038,-0.8038,-0.8038,-0.8038,-0.8038,-0.8035,-0.798,-0.7896,-0.7828,-0.7756,-0.7685,-0.7611,-0.7539,-0.7509,-0.7584,-0.7597,-0.7573,-1.5825,-1.5825,-1.5825,-1.5631,-1.5304,-1.507,-1.4116,-1.2633,0.0,0.0,0.0,-0.7139,-0.7139,-0.7139,-0.7139,-0.7139,-0.7139,-0.7139,-0.7139,-0.7139,-0.7139,-0.7078,-0.6959,-0.6783,-0.6637,-0.6505,-0.6339,-0.6261,-0.6261,-0.6261,-0.6261,-0.6261,-0.6261,-0.6261,-0.6261,-0.6261,-0.6261,-0.6261,-0.6261,-0.6261,-0.6261,-0.6261,-0.62,-0.6071,-0.6044,-0.5969,-0.5847,-0.584,-0.5844,-0.5844,-0.5867,-0.5939,-0.6061,-0.6095,-0.6217,-0.6451,-0.6522,-0.661,-0.6732,-0.6881,-0.698,-0.7007,-0.7373,-0.8005,-0.8952,-1.0384,-1.1259,-1.1249,-1.0485,-0.9899,-0.9702,-0.8627,-0.8038,-0.8038,-0.8038,-0.8038,-0.8038,-0.8038,-0.8038,-0.8038,-0.8038,-0.8038,-0.8038,-0.8038,-0.8038,-0.8038,-0.8038,-0.8038,-0.8038,-0.8038,-0.8038,-0.8038,-0.8038,-0.8038,-0.8038,-0.8038,-0.8038,-0.8038,-0.8038,-0.8038,-0.8035,-0.8018,-0.8001,-0.7984,-0.7875,-0.7773,-0.7733,-0.7634,-0.7553,-0.7522,-0.7421,-0.7329,-0.7339,-0.7428,-0.7465,-1.5825,-1.5825,-1.5825,-1.5518,-1.5023,-1.4983,-1.4007,-1.2209,-1.0106,-0.8364,-0.7139,-0.7139,-0.7139,-0.7139,-0.7139,-0.7139,-0.7139,-0.7139,-0.7139,0.0,-0.7139,-0.7041,-0.7095,-0.6831,-0.6692,-0.6651,-0.6393,-0.6261,-0.6261,-0.6261,-0.6261,-0.6261,-0.6261,-0.6261,-0.6261,-0.6261,-0.6261,-0.6261,-0.6261,-0.6261,-0.6261,-0.6261,-0.6251,-0.6227,-0.6098,-0.6023,-0.5996,-0.6,-0.5996,-0.6,-0.6125,-0.6207,-0.623,-0.6339,-0.643,-0.6481,-0.6719,-0.6875,-0.6895,-0.7027,-0.7166,-0.7302,-0.7489,-0.7681,-0.7858,-0.9268,-0.9776,-0.8726,-0.941,-0.9509,-0.8432,-0.8137,-0.8038,-0.8038,-0.8038,-0.8038,-0.8038,-0.8038,-0.8038,-0.8038,-0.8038,-0.8038,-0.8038,-0.8038,-0.8038,-0.8038,-0.8038,-0.8038,-0.8038,-0.8038,-0.8038,-0.8038,-0.8038,-0.8038,-0.8038,-0.8038,-0.8024,-0.8038,-0.8024,-0.8004,-0.8001,-0.7916,-0.7851,-0.7841,-0.7726,-0.7597,-0.7482,-0.7421,-0.736,-0.7268,-0.7207,-0.7187,-0.719,-0.7221,-0.7214,-1.5825,-1.5825,-1.5825,-1.5491,-1.4943,-1.4623,-1.3707,-1.2163,-1.0524,-0.9144,-0.8017,-0.7401,-0.7139,-0.7139,-0.7139,-0.7139,-0.7139,-0.7139,-0.7139,-0.7139,-0.7139,-0.7054,-0.6898,-0.6763,-0.6617,-0.6458,-0.6329,-0.6261,-0.6261,-0.6261,-0.6261,-0.6261,-0.6261,-0.6261,-0.6261,-0.6261,-0.6261,-0.6261,-0.6261,-0.6261,-0.6261,-0.6261,-0.6261,-0.6261,-0.619,-0.6156,-0.6152,-0.6156,-0.6156,-0.6156,-0.63,-0.6261,-0.6264,-0.6393,-0.6508,-0.6593,-0.6803,-0.6963,-0.7041,-0.7102,-0.717,-0.7248,-0.7465,-0.7597,-0.7597,-0.8448,-0.8627,-0.8038,-0.8627,-0.8726,-0.8038,-0.8038,-0.8038,-0.8038,-0.8038,-0.8038,-0.8038,-0.8038,-0.8038,-0.8038,-0.8038,-0.8038,-0.8038,-0.8038,-0.8038,-0.8038,-0.8038,-0.8038,-0.8038,-0.8038,-0.8038,-0.8038,-0.8038,-0.8038,-0.8035,-0.7963,-0.7926,-0.7916,-0.7848,-0.7807,-0.7801,-0.7733,-0.7706,-0.7685,-0.7577,-0.7465,-0.7373,-0.7299,-0.7221,-0.7173,-0.7139,-0.7139,-0.7139,-0.7139,-0.7139,-1.5825,-1.5825,-1.5825,-1.5498,-1.4923,-1.4409,-1.3613,-1.2595,-1.1472,-1.0351,-0.9144,-0.7753,-0.7139,-0.7139,-0.7139,-0.7139,-0.7139,-0.7139,-0.7139,-0.7139,-0.7139,-0.7014,-0.6807,-0.6739,-0.6583,-0.6369,-0.6295,-0.6261,-0.6261,-0.6261,-0.6261,-0.6261,-0.6261,-0.6261,-0.6261,-0.6261,-0.6261,-0.6261,-0.6261,-0.6261,-0.6261,-0.6261,-0.6261,-0.6261,-0.6257,-0.6261,-0.6261,-0.6261,-0.6261,-0.6261,-0.6261,-0.6261,-0.6264,-0.6396,-0.6542,-0.6692,-0.6844,-0.699,-0.7122,-0.7139,-0.7153,-0.7193,-0.7444,-0.7614,-0.7662,-0.7885,-0.8038,-0.8038,-0.8038,-0.8038,-0.8038,-0.8038,-0.8038,-0.8038,-0.8038,-0.8038,-0.8038,-0.8038,-0.8038,-0.8038,-0.8038,-0.8038,-0.8038,-0.8038,-0.8038,-0.8038,-0.8038,-0.8038,-0.8038,-0.8038,-0.8038,-0.8038,-0.8038,-0.8007,-0.7984,-0.7889,-0.7811,-0.7777,-0.7682,-0.7638,-0.7617,-0.7587,-0.755,-0.7529,-0.7421,-0.7329,-0.7305,-0.7231,-0.716,-0.7139,-0.7109,-0.6994,-0.7078,-0.7041,-0.7075,-1.5825,-1.5825,-1.5825,-1.5491,-1.4957,-1.4616,-1.4249,-1.377,-1.2681,-1.1466,-1.0279,-0.8093,-0.7139,-0.7139,-0.7139,-0.7139,-0.7139,-0.7139,-0.7139,-0.7139,-0.7139,-0.7037,-0.7054,-0.682,-0.6685,-0.6614,-0.6386,-0.6261,-0.6261,-0.6261,-0.6261,-0.6261,-0.6261,-0.6261,-0.6261,-0.6261,-0.6261,-0.6261,-0.6261,-0.6261,-0.6261,-0.6261,-0.6261,-0.6261,-0.6261,-0.6261,-0.6261,-0.6261,-0.6261,-0.6261,-0.6261,-0.6261,-0.6274,-0.6396,-0.6542,-0.6692,-0.6848,-0.699,-0.7122,-0.7139,-0.7197,-0.7343,-0.7495,-0.7648,-0.777,-0.794,-0.8038,-0.8038,-0.8038,-0.8038,-0.8038,-0.8038,-0.8038,-0.8038,-0.8038,-0.8038,-0.8038,-0.8038,-0.8038,-0.8038,-0.8038,-0.8038,-0.8038,-0.8038,-0.8038,-0.8038,-0.8038,-0.8038,-0.8038,-0.8038,-0.8028,-0.8031,-0.8035,-0.7957,-0.7838,-0.7801,-0.7729,-0.7638,-0.7604,-0.7563,-0.7529,-0.7458,-0.739,-0.7377,-0.7282,-0.719,-0.7177,-0.7143,-0.7146,-0.7122,-0.7054,-0.6953,-0.6936,-0.6861,-0.6865,-1.5825,-1.5825,-1.5825,-1.5598,-1.5197,-1.4903,-1.471,-1.4502,-1.3163,-1.2296,-1.1745,-0.997,-0.8444,-0.7139,-0.7139,-0.7139,-0.7139,-0.7139,-0.7139,-0.7139,-0.7139,-0.7099,-0.6997,-0.6803,-0.6658,-0.6559,-0.6356,-0.6261,-0.6261,-0.6261,-0.6261,-0.6261,-0.6261,-0.6261,-0.6261,-0.6261,-0.6261,-0.6261,-0.6261,-0.6261,-0.6261,-0.6261,-0.6261,-0.6261,-0.6261,-0.6261,-0.6261,-0.6261,-0.6261,-0.6261,-0.6261,-0.6261,-0.6261,-0.6481,-0.6634,-0.6709,-0.6922,-0.7078,-0.7136,-0.7139,-0.7166,-0.7234,-0.7461,-0.7628,-0.7689,-0.7902,-0.8038,-0.8038,-0.8038,-0.8038,-0.8038,-0.8038,-0.8038,-0.8038,-0.8038,-0.8038,-0.8038,-0.8038,-0.8038,-0.8038,-0.8038,-0.8038,-0.8038,-0.8038,-0.8038,-0.8038,-0.8038,-0.8038,-0.8038,-0.8038,-0.7997,-0.7926,-0.7906,-0.7875,-0.7777,-0.7631,-0.755,-0.7472,-0.7387,-0.7333,-0.7329,-0.7292,-0.7234,-0.7241,-0.7183,-0.7143,-0.7146,-0.7139,-0.7139,-0.7099,-0.7024,-0.6909,-0.6814,-0.6742,-0.6803,-1.5825,-1.5825,-1.5825,-1.5665,-1.5384,-1.5177,-1.5037,-1.4943,-1.3818,-1.3227,-1.2692,-1.1641,-1.0052,-0.8189,-0.7749,-0.7404,-0.7139,-0.7139,-0.7139,-0.7139,-0.7139,-0.7088,-0.689,-0.6787,-0.6644,-0.6519,-0.6349,-0.6261,-0.6261,-0.6261,-0.6261,-0.6261,-0.6261,-0.6261,-0.6261,-0.6261,-0.6261,-0.6261,-0.6261,-0.6261,-0.6261,-0.6261,-0.6261,-0.6261,-0.6261,-0.6261,-0.6261,-0.6261,-0.6261,-0.6261,-0.6261,-0.6261,-0.6268,-0.6464,-0.6617,-0.6715,-0.6976,-0.7139,-0.7139,-0.7139,-0.7139,-0.716,-0.739,-0.7556,-0.7631,-0.7831,-0.7987,-0.8038,-0.8038,-0.8038,-0.8038,-0.8038,-0.8038,-0.8038,-0.8038,-0.8038,-0.8038,-0.8038,-0.8038,-0.8038,-0.8038,-0.8038,-0.8038,-0.8038,-0.8038,-0.8038,-0.8038,-0.8038,-0.8028,-0.8001,-0.7933,-0.7821,-0.7753,-0.7689,-0.7675,-0.7539,-0.738,-0.7295,-0.7217,-0.717,-0.7139,-0.7143,-0.7143,-0.7183,-0.7153,-0.7139,-0.7139,-0.7139,-0.7068,-0.7007,-0.6909,-0.678,-0.6661,-0.6614,-0.6688,-1.5825,-1.5825,-1.5825,-1.5671,-1.5398,-1.5384,-1.5224,-1.5023,-1.4867,-1.4148,-1.3121,-1.278,-1.186,-1.0448,-0.9405,-0.8189,-0.7228,-0.7139,-0.7139,-0.7139,-0.7139,-0.7139,-0.7109,-0.6841,-0.6698,-0.6651,-0.6407,-0.6271,-0.6261,-0.6261,-0.6261,-0.6261,-0.6261,-0.6261,-0.6261,-0.6261,-0.6261,-0.6261,-0.6261,-0.6261,-0.6261,-0.6261,-0.6261,-0.6261,-0.6261,-0.6261,-0.6261,-0.6261,-0.6261,-0.6261,-0.6261,-0.6261,-0.6261,-0.6366,-0.6437,-0.6702,-0.698,-0.7139,-0.7139,-0.7139,-0.7139,-0.716,-0.7302,-0.7448,-0.7594,-0.775,-0.7896,-0.8028,-0.8038,-0.8038,-0.8038,-0.8038,-0.8038,-0.8038,-0.8038,-0.8038,-0.8038,-0.8038,-0.8038,-0.8038,-0.8038,-0.8038,-0.8038,-0.8038,-0.8038,-0.8038,-0.8038,-0.8031,-0.8001,-0.7913,-0.7831,-0.7743,-0.7584,-0.7394,-0.7394,-0.7363,-0.7292,-0.7224,-0.7177,-0.7139,-0.7139,-0.7139,-0.7139,-0.7139,-0.7139,-0.7139,-0.7139,-0.7071,-0.6953,-0.6837,-0.6671,-0.6542,-0.6502,-0.6373,-0.6471,-1.5825,-1.5825,-1.5825,-1.5765,-1.5678,-1.5671,-1.5611,-1.5498,-1.5324,-1.5429,-1.5493,-1.5147,-1.4289,-1.3034,-1.1655,-0.9971,-0.8273,-0.7489,-0.7139,-0.7139,-0.7139,-0.7139,-0.7119,-0.6936,-0.679,-0.6678,-0.6495,-0.6346,-0.6268,-0.6261,-0.6261,-0.6261,-0.6261,-0.6261,-0.6261,-0.6261,-0.6261,-0.6261,-0.6261,-0.6261,-0.6261,-0.6261,-0.6261,-0.6261,-0.6261,-0.6261,-0.6261,-0.6261,-0.6261,-0.6261,-0.6261,-0.6261,-0.6278,-0.6441,-0.6675,-0.6949,-0.7082,-0.7139,-0.7139,-0.7139,-0.7139,-0.7153,-0.7285,-0.7431,-0.7587,-0.7733,-0.7875,-0.8001,-0.8038,-0.8038,-0.8038,-0.8038,-0.8038,-0.8038,-0.8038,-0.8038,-0.8038,-0.8038,-0.8038,-0.8038,-0.8038,-0.8038,-0.8038,-0.8038,-0.8038,-0.8038,-0.8038,-0.7994,-0.7909,-0.7838,-0.7743,-0.7573,-0.7441,-0.7336,-0.7227,-0.7224,-0.7197,-0.717,-0.7139,-0.7139,-0.7139,-0.7139,-0.7139,-0.7112,-0.7115,-0.7071,-0.7041,-0.6898,-0.679,-0.6658,-0.6485,-0.642,-0.6356,-0.6298,-0.6437,-1.5825,-1.5825,-1.5825,-1.5825,-1.5737,-1.5343,-1.5439,-1.571,-1.5236,-1.5814,-1.6884,-1.6483,-1.5835,-1.4884,-1.3039,-1.1241,-0.9401,-0.7837,-0.7139,-0.7139,-0.7139,-0.7139,-0.7115,-0.6993,-0.6875,-0.6753,-0.6566,-0.642,-0.6332,-0.6359,-0.6261,-0.6261,-0.6261,-0.6261,-0.6261,-0.6261,-0.6261,-0.6261,-0.6261,-0.6261,-0.6261,-0.6261,-0.6261,-0.6261,-0.6261,-0.6261,-0.6261,-0.6261,-0.6103,-0.5864,-0.5786,-0.5808,-0.5868,-0.6069,-0.6466,-0.695,-0.7115,-0.7139,-0.7139,-0.7139,-0.7139,-0.7143,-0.7234,-0.736,-0.7512,-0.7658,-0.7804,-0.7926,-0.8018,-0.8038,-0.8038,-0.8038,-0.8038,-0.8038,-0.8038,-0.8038,-0.8038,-0.8038,-0.8038,-0.8038,-0.8038,-0.8038,-0.8038,-0.8038,-0.8038,-0.8038,-0.8004,-0.7916,-0.7834,-0.7712,-0.7617,-0.7411,-0.7329,-0.7251,-0.7187,-0.7173,-0.717,-0.7149,-0.7139,-0.7139,-0.7139,-0.7139,-0.7122,-0.7092,-0.7041,-0.6983,-0.6878,-0.6732,-0.6607,-0.6488,-0.641,-0.6421,-0.6302,-0.6274,-0.6413,-1.5825,-1.5825,-1.5825,-1.5825,-1.5635,-1.4752,-1.4752,-1.5527,-1.4638,-1.5391,-1.7221,-1.6883,-1.6624,-1.5789,-1.3717,-1.1753,-1.0255,-0.8273,-0.7228,-0.7139,-0.7139,-0.7139,-0.7132,-0.7014,-0.6939,-0.6892,-0.662,-0.6481,-0.6471,-0.6369,-0.6305,-0.6281,-0.6288,-0.6288,-0.6268,-0.6271,-0.6261,-0.6261,-0.6261,-0.6261,-0.6261,-0.6261,-0.6261,-0.6261,-0.6257,-0.618,-0.618,-0.618,-0.5709,-0.4844,-0.4686,-0.4742,-0.5002,-0.5205,-0.5664,-0.6757,-0.7061,-0.7132,-0.7139,-0.7139,-0.7139,-0.7143,-0.7149,-0.7231,-0.7387,-0.7519,-0.7665,-0.7821,-0.794,-0.8024,-0.8035,-0.8038,-0.8038,-0.8038,-0.8038,-0.8038,-0.8038,-0.8038,-0.8038,-0.8038,-0.8038,-0.8038,-0.8035,-0.8014,-0.7997,-0.796,-0.7889,-0.7794,-0.7733,-0.7567,-0.7411,-0.7339,-0.7265,-0.7177,-0.7153,-0.7139,-0.7143,-0.7139,-0.7139,-0.7139,-0.7139,-0.7139,-0.7109,-0.7071,-0.6946,-0.6878,-0.6725,-0.6586,-0.6505,-0.6403,-0.6335,-0.6369,-0.6274,-0.6271,-0.6339,-1.5825,-1.5825,-1.5825,-1.5825,-1.5737,-1.5343,-1.5439,-1.5737,-1.5343,-1.6364,-1.7948,-1.7874,-1.761,-1.7075,-1.5416,-1.3096,-1.0605,-0.9056,-0.7929,-0.7228,-0.7139,-0.7139,-0.7132,-0.7095,-0.7024,-0.6912,-0.6729,-0.663,-0.662,-0.658,-0.6563,-0.6546,-0.6454,-0.641,-0.6396,-0.6312,-0.6261,-0.6261,-0.6261,-0.6261,-0.6261,-0.6261,-0.6261,-0.6183,-0.5628,-0.5157,-0.516,-0.5237,-0.4688,-0.3669,-0.3593,-0.3946,-0.4691,-0.5041,-0.5664,-0.6744,-0.7061,-0.7139,-0.7139,-0.7139,-0.7139,-0.7139,-0.7139,-0.7217,-0.7343,-0.7414,-0.7553,-0.7756,-0.7858,-0.7916,-0.8011,-0.8038,-0.8038,-0.8038,-0.8038,-0.8038,-0.8038,-0.8038,-0.8038,-0.8038,-0.8038,-0.7994,-0.7913,-0.7889,-0.7862,-0.777,-0.7702,-0.7641,-0.7522,-0.7444,-0.7322,-0.7231,-0.7163,-0.7139,-0.7139,-0.7139,-0.7139,-0.7139,-0.7139,-0.7139,-0.7139,-0.7132,-0.7102,-0.6983,-0.6861,-0.6719,-0.6566,-0.6468,-0.639,-0.6342,-0.6291,-0.6268,-0.6261,-0.6291,-0.6339,-1.5825,-1.5825,-1.5825,-1.5825,-1.573,-1.5337,-1.5343,-1.5635,-1.5242,-1.6264,-1.7761,-1.7787,-1.7533,-1.7083,-1.5688,-1.3368,-1.0692,-0.941,-0.8281,-0.7228,-0.7139,-0.7139,-0.7139,-0.7139,-0.7102,-0.7,-0.6854,-0.6787,-0.678,-0.6729,-0.6698,-0.6678,-0.6603,-0.6522,-0.6474,-0.6386,-0.6322,-0.6271,-0.6261,-0.6261,-0.6261,-0.6261,-0.6103,-0.5705,-0.4999,-0.4297,-0.3673,-0.3517,-0.3283,-0.2579,-0.2189,-0.2698,-0.417,-0.449,-0.5257,-0.6628,-0.7085,-0.7139,-0.7139,-0.7139,-0.7139,-0.7139,-0.7139,-0.7177,-0.7278,-0.7322,-0.7472,-0.7604,-0.775,-0.7848,-0.7936,-0.8014,-0.8035,-0.8038,-0.8038,-0.8038,-0.8038,-0.8038,-0.8038,-0.8038,-0.8038,-0.796,-0.7858,-0.7811,-0.7753,-0.7634,-0.755,-0.7499,-0.7383,-0.7326,-0.7231,-0.717,-0.7153,-0.7139,-0.7139,-0.7139,-0.7139,-0.7139,-0.7139,-0.7139,-0.7139,-0.7136,-0.7109,-0.6858,-0.6692,-0.6532,-0.6383,-0.6346,-0.6288,-0.6261,-0.6261,-0.6261,-0.6261,-0.6261,-0.6298,-1.5825,-1.5825,-1.5825,-1.5825,-1.5629,-1.4657,-1.4848,-1.5534,-1.462,-1.5365,-1.6816,-1.6831,-1.6515,-1.603,-1.5013,-1.314,-1.0864,-0.9923,-0.8794,-0.7834,-0.7401,-0.7316,-0.7139,-0.7139,-0.7129,-0.7102,-0.6997,-0.6943,-0.6932,-0.6827,-0.6719,-0.6732,-0.6698,-0.6617,-0.6491,-0.6464,-0.6369,-0.6352,-0.6261,-0.6261,-0.6261,-0.6261,-0.5944,-0.5002,-0.4608,-0.3752,-0.2426,-0.188,-0.1645,-0.1411,-0.0862,-0.1517,-0.3144,-0.3599,-0.4862,-0.6893,-0.7126,-0.7139,-0.7139,-0.7139,-0.7139,-0.7139,-0.7139,-0.7139,-0.7173,-0.7268,-0.7353,-0.7424,-0.7617,-0.7773,-0.7831,-0.7926,-0.8001,-0.8024,-0.8024,-0.8035,-0.8038,-0.8028,-0.7997,-0.8001,-0.8011,-0.7946,-0.777,-0.775,-0.7682,-0.756,-0.7428,-0.736,-0.7322,-0.7244,-0.7166,-0.7139,-0.7139,-0.7139,-0.7139,-0.7139,-0.7139,-0.7139,-0.7139,-0.7139,-0.7119,-0.7105,-0.7034,-0.6783,-0.6559,-0.6383,-0.6274,-0.6264,-0.6261,-0.6261,-0.6261,-0.6261,-0.6261,-0.6261,-0.6264,-1.5825,-1.5825,-1.5825,-1.5825,-1.5737,-1.5432,-1.5439,-1.5704,-1.521,-1.5599,-1.6522,-1.6372,-1.6067,-1.5831,-1.5401,-1.4001,-1.2145,-1.1466,-1.0778,-0.9657,-0.8794,-0.7925,-0.7228,-0.7139,-0.7139,-0.7132,-0.7095,-0.7085,-0.7082,-0.7027,-0.6956,-0.6865,-0.6766,-0.6637,-0.6485,-0.6396,-0.6305,-0.6268,-0.6338,-0.6338,-0.6261,-0.6261,-0.618,-0.5789,-0.4373,-0.3359,-0.2501,-0.1175,-0.0392,-0.0471,-0.1019,-0.1825,-0.335,-0.4233,-0.5347,-0.6628,-0.7092,-0.7139,-0.7139,-0.7139,-0.7139,-0.7139,-0.7139,-0.7139,-0.7139,-0.7177,-0.7255,-0.7343,-0.7461,-0.7584,-0.776,-0.7851,-0.7875,-0.7885,-0.795,-0.8014,-0.8001,-0.794,-0.7872,-0.7865,-0.7787,-0.7672,-0.7563,-0.7506,-0.7455,-0.7322,-0.7251,-0.7214,-0.7214,-0.7204,-0.7139,-0.7139,-0.7139,-0.7139,-0.7139,-0.7139,-0.7139,-0.7139,-0.7139,-0.7139,-0.7095,-0.6954,-0.6919,-0.6729,-0.6536,-0.6356,-0.6291,-0.6261,-0.6261,-0.6261,-0.6261,-0.6261,-0.6261,-0.6261,-0.6261,-1.5825,-1.5825,-1.5825,-1.5825,-1.5825,-1.5825,-1.5758,-1.5631,-1.5478,-1.5506,-1.5665,-1.5526,-1.5262,-1.5075,-1.4977,-1.4035,-1.2492,-1.2322,-1.1638,-1.0524,-0.9405,-0.8277,-0.7404,-0.7139,-0.7139,-0.7139,-0.7139,-0.7139,-0.7136,-0.7139,-0.7092,-0.7021,-0.6929,-0.681,-0.6685,-0.659,-0.6464,-0.638,-0.6346,-0.6407,-0.6342,-0.6261,-0.5944,-0.5473,-0.3982,-0.2968,-0.2345,-0.1254,-0.0706,-0.0784,-0.1334,-0.2304,-0.3928,-0.4646,-0.5684,-0.6817,-0.7099,-0.7139,-0.7139,-0.7139,-0.7139,-0.7139,-0.7139,-0.7139,-0.7139,-0.7143,-0.7193,-0.7255,-0.7329,-0.7485,-0.7668,-0.7773,-0.7777,-0.7743,-0.7804,-0.7855,-0.7855,-0.777,-0.7729,-0.7702,-0.7648,-0.7539,-0.7394,-0.7373,-0.7292,-0.7197,-0.717,-0.7153,-0.7149,-0.7139,-0.7139,-0.7139,-0.7139,-0.7139,-0.7139,-0.7139,-0.7139,-0.7139,-0.7139,-0.7139,-0.7068,-0.699,-0.6848,-0.6774,-0.6508,-0.6445,-0.6535,-0.649,-0.6261,-0.6261,-0.6261,-0.6261,-0.6338,-0.6261,-0.6261,-1.5825,-1.5825,-1.5825,-1.5825,-1.5825,-1.5825,-1.5712,-1.5484,-1.5364,-1.5064,-1.4751,-1.4516,-1.4467,-1.4088,-1.4328,-1.3555,-1.2589,-1.2674,-1.1901,-1.0869,-0.9753,-0.8623,-0.7577,-0.7228,-0.7139,-0.7139,-0.7139,-0.7139,-0.7139,-0.7139,-0.7126,-0.7078,-0.7075,-0.7021,-0.6851,-0.6844,-0.6742,-0.6536,-0.6461,-0.6403,-0.6393,-0.6281,-0.5944,-0.5234,-0.4139,-0.2968,-0.2271,-0.1807,-0.1891,-0.1968,-0.1965,-0.3139,-0.4914,-0.5121,-0.5905,-0.6792,-0.7129,-0.7139,-0.7139,-0.7139,-0.7139,-0.7139,-0.7139,-0.7139,-0.7139,-0.7143,-0.7149,-0.7166,-0.7272,-0.7397,-0.7546,-0.7685,-0.7675,-0.759,-0.7573,-0.7553,-0.7556,-0.7567,-0.7573,-0.757,-0.7567,-0.7478,-0.74,-0.7336,-0.7288,-0.7173,-0.7139,-0.7139,-0.7139,-0.7139,-0.7139,-0.7139,-0.7139,-0.7139,-0.7139,-0.7139,-0.7139,-0.7139,-0.7139,-0.7122,-0.7041,-0.6943,-0.6888,-0.6898,-0.7075,-0.7171,-0.7204,-0.7022,-0.6795,-0.6641,-0.6868,-0.6567,-0.6338,-0.6338,-0.6261,-1.5825,-1.5825,-1.5825,-1.5825,-1.5825,-1.5825,-1.5792,-1.5685,-1.5244,-1.4983,-1.4776,-1.4389,-1.4162,-1.4088,-1.4088,-1.3913,-1.3724,-1.3717,-1.3118,-1.1901,-1.0783,-0.9662,-0.8536,-0.7753,-0.7139,-0.7139,-0.7139,-0.7139,-0.7139,-0.7132,-0.7082,-0.6997,-0.7007,-0.6909,-0.68,-0.6807,-0.6736,-0.6637,-0.6546,-0.6478,-0.642,-0.6335,-0.6132,-0.5733,-0.4862,-0.3832,-0.3061,-0.2943,-0.3374,-0.3939,-0.4196,-0.4524,-0.5352,-0.6087,-0.6605,-0.6906,-0.7139,-0.7139,-0.7139,-0.7139,-0.7139,-0.7139,-0.7139,-0.7139,-0.7139,-0.7139,-0.7139,-0.7143,-0.7177,-0.7272,-0.74,-0.7444,-0.7458,-0.7421,-0.7333,-0.7265,-0.7265,-0.7353,-0.7414,-0.74,-0.7326,-0.7227,-0.72,-0.7207,-0.7177,-0.7143,-0.7139,-0.7139,-0.7139,-0.7139,-0.7139,-0.7139,-0.7139,-0.7139,-0.7139,-0.7139,-0.7139,-0.7139,-0.7139,-0.7132,-0.7048,-0.7221,-0.7355,-0.7525,-0.7749,-0.7828,-0.7953,-0.8237,-0.8161,-0.7859,-0.7326,-0.6949,-0.6567,-0.649,-0.6261,-1.5825,-1.5825,-1.5825,-1.5825,-1.5825,-1.5825,-1.5752,-1.5558,-1.5164,-1.4883,-1.4683,-1.4269,-1.4095,-1.4088,-1.4082,-1.4328,-1.4894,-1.5387,-1.5039,-1.384,-1.2729,-1.1627,-1.026,-0.8794,-0.7753,-0.7228,-0.7139,-0.7139,-0.7139,-0.7136,-0.7105,-0.7034,-0.7027,-0.7014,-0.6922,-0.6898,-0.6881,-0.6814,-0.6732,-0.6654,-0.6573,-0.6512,-0.6141,-0.5814,-0.5167,-0.4598,-0.4125,-0.4162,-0.4794,-0.5499,-0.5856,-0.5907,-0.6108,-0.6586,-0.6917,-0.7109,-0.7139,-0.7139,-0.7139,-0.7139,-0.7139,-0.7139,-0.7139,-0.7139,-0.7139,-0.7139,-0.7139,-0.7139,-0.7146,-0.7183,-0.7258,-0.735,-0.7343,-0.7261,-0.7193,-0.7143,-0.7156,-0.7217,-0.7261,-0.7251,-0.72,-0.7166,-0.7143,-0.7139,-0.7139,-0.7139,-0.7139,-0.7139,-0.7139,-0.7139,-0.7139,-0.7139,-0.7139,-0.7139,-0.7139,-0.7139,-0.7139,-0.7139,-0.7139,-0.7132,-0.7092,-0.744,-0.7947,-0.8135,-0.8352,-0.8718,-0.8856,-0.9155,-0.9145,-0.8161,-0.7557,-0.7176,-0.6795,-0.6493,-0.6338,-1.5825,-1.5825,-1.5825,-1.5825,-1.5825,-1.5825,-1.5705,-1.5458,-1.5097,-1.485,-1.4549,-1.4249,-1.4088,-1.4088,-1.4088,-1.4734,-1.5703,-1.6601,-1.6347,-1.5681,-1.4559,-1.3471,-1.2128,-1.0504,-0.8786,-0.7489,-0.7139,-0.7139,-0.7139,-0.7139,-0.7132,-0.7132,-0.7136,-0.7105,-0.7126,-0.7041,-0.6974,-0.6966,-0.6905,-0.6841,-0.6739,-0.6695,-0.6242,-0.5735,-0.5567,-0.5402,-0.5322,-0.5449,-0.5849,-0.683,-0.6949,-0.6959,-0.6959,-0.6966,-0.6917,-0.7136,-0.7139,-0.7139,-0.7139,-0.7139,-0.7139,-0.7139,-0.7139,-0.7139,-0.7139,-0.7139,-0.7316,-0.7577,-0.7753,-0.7925,-0.7672,-0.8031,-0.8046,-0.7797,-0.7669,-0.7401,-0.7316,-0.7228,-0.7156,-0.7153,-0.7156,-0.7146,-0.7139,-0.7139,-0.7139,-0.7139,-0.7139,-0.7139,-0.7139,-0.7139,-0.7139,-0.7139,-0.7139,-0.7139,-0.7139,-0.7132,-0.7136,-0.7099,-0.7109,-0.7176,-0.7334,-0.8279,-0.8809,-0.8779,-0.9001,-0.9468,-0.9949,-1.0282,-0.982,-0.8537,-0.8012,-0.7859,-0.733,-0.6493,-0.6338,-1.5825,-1.5825,-1.5825,-1.5825,-1.5825,-1.5825,-1.5792,-1.5671,-1.517,-1.4943,-1.4816,-1.4329,-1.4088,-1.4088,-1.4088,-1.4734,-1.5861,-1.7001,-1.7415,-1.6911,-1.5957,-1.4946,-1.3723,-1.2433,-1.0651,-0.879,-0.7921,-0.757,-0.7139,-0.7139,-0.7139,-0.7139,-0.7139,-0.7139,-0.7139,-0.7139,-0.7129,-0.7071,-0.7,-0.6926,-0.6881,-0.68,-0.6659,-0.6319,-0.6328,-0.6319,-0.6415,-0.6486,-0.6731,-0.685,-0.7041,-0.7088,-0.7004,-0.7092,-0.7109,-0.7129,-0.7139,-0.7139,-0.7139,-0.7139,-0.7139,-0.7139,-0.7139,-0.7139,-0.7139,-0.7139,-0.7489,-0.8448,-0.9231,-0.9918,-1.0005,-0.9717,-0.9878,-0.9749,-0.8969,-0.8452,-0.8189,-0.7665,-0.7139,-0.7139,-0.7139,-0.7139,-0.7139,-0.7139,-0.7139,-0.7139,-0.7139,-0.7139,-0.7139,-0.7139,-0.7139,-0.7139,-0.7139,-0.7139,-0.7139,-0.7132,-0.7119,-0.7048,-0.7114,-0.7426,-0.7912,-0.9217,-0.9708,-0.9157,-0.9879,-1.0939,-1.1335,-1.1384,-1.087,-0.989,-0.9291,-0.8694,-0.771,-0.6795,-0.6338,-1.5825,-1.5825,-1.5825,-1.5738,-1.5645,-1.5772,-1.5738,-1.5558,-1.5157,-1.506,-1.4796,-1.4369,-1.4088,-1.4088,-1.4088,-1.4977,-1.6519,-1.8301,-1.863,-1.8123,-1.7527,-1.6782,-1.5644,-1.4511,-1.3096,-1.1588,-1.0393,-0.8595,-0.7224,-0.7139,-0.7139,-0.7139,-0.7139,-0.7139,-0.7139,-0.7139,-0.7139,-0.7119,-0.7071,-0.7034,-0.7034,-0.6949,-0.6929,-0.6922,-0.6919,-0.6929,-0.6939,-0.698,-0.695,-0.7054,-0.7105,-0.7132,-0.7139,-0.7139,-0.7139,-0.7139,-0.7139,-0.7139,-0.7139,-0.7139,-0.7139,-0.7139,-0.7139,-0.7139,-0.7139,-0.7228,-0.7753,-0.8798,-0.9927,-1.0611,-1.0524,-1.0697,-1.0351,-0.9749,-0.9231,-0.8715,-0.8105,-0.7489,-0.7228,-0.7139,-0.7139,-0.7139,-0.7139,-0.7139,-0.7139,-0.7139,-0.7139,-0.7139,-0.7139,-0.7139,-0.7139,-0.7139,-0.7139,-0.7139,-0.7139,-0.7136,-0.7061,-0.6983,-0.7056,-0.7364,-0.7824,-0.8875,-0.905,-0.8742,-1.0072,-1.1642,-1.2024,-1.1781,-1.1471,-1.0938,-0.9814,-0.8765,-0.7859,-0.7176,-0.6563,-1.5825,-1.5825,-1.5825,-1.5658,-1.5471,-1.5705,-1.5658,-1.5378,-1.509,-1.506,-1.4883,-1.4376,-1.4088,-1.425,-1.4741,-1.5794,-1.7496,-1.9511,-1.9913,-1.9432,-1.9195,-1.8709,-1.7632,-1.67,-1.5517,-1.3858,-1.2765,-1.0722,-0.8177,-0.7577,-0.7404,-0.7139,-0.7139,-0.7139,-0.7139,-0.7139,-0.7139,-0.7139,-0.7404,-0.7489,-0.7749,-0.7837,-0.7837,-0.7837,-0.7834,-0.7906,-0.8059,-0.7724,-0.7647,-0.7474,-0.7312,-0.7139,-0.7139,-0.7139,-0.7139,-0.7139,-0.7139,-0.7139,-0.7139,-0.7139,-0.7139,-0.7139,-0.7139,-0.7139,-0.7401,-0.7749,-0.8356,-0.9231,-1.0945,-1.1724,-1.1815,-1.1632,-1.1031,-1.0096,-0.9579,-0.889,-0.8017,-0.7404,-0.7228,-0.7139,-0.7139,-0.7139,-0.7139,-0.7139,-0.7139,-0.7139,-0.7139,-0.7139,-0.7139,-0.7139,-0.7139,-0.7139,-0.7139,-0.7139,-0.7139,-0.7139,-0.7024,-0.6871,-0.6991,-0.7268,-0.7624,-0.8225,-0.83,-0.8684,-0.9856,-1.1248,-1.1715,-1.1848,-1.1168,-1.0415,-0.9593,-0.8765,-0.7936,-0.7099,-0.6412,-1.5825,-1.5825,-1.5818,-1.5658,-1.5451,-1.5691,-1.5658,-1.5364,-1.5077,-1.506,-1.493,-1.4369,-1.4088,-1.458,-1.6124,-1.6935,-1.7989,-1.9432,-2.0479,-2.0157,-2.0167,-1.9756,-1.8957,-1.8709,-1.726,-1.5778,-1.4455,-1.1855,-0.9566,-0.8882,-0.8013,-0.7312,-0.7139,-0.7139,-0.7139,-0.7139,-0.7139,-0.7312,-0.8189,-0.9144,-0.9831,-0.9918,-0.9918,-1.0005,-0.9918,-0.9831,-0.9657,-0.9056,-0.8711,-0.8536,-0.7665,-0.7228,-0.7139,-0.7139,-0.7139,-0.7139,-0.7139,-0.7139,-0.7139,-0.7139,-0.7139,-0.7139,-0.7139,-0.7139,-0.7489,-0.8882,-0.9918,-1.0438,-1.299,-1.4028,-1.3626,-1.4371,-1.3756,-1.214,-1.0524,-0.9666,-0.8627,-0.7404,-0.7139,-0.7139,-0.7139,-0.7139,-0.7139,-0.7139,-0.7139,-0.7139,-0.7139,-0.7139,-0.7139,-0.7139,-0.7139,-0.7139,-0.7139,-0.7139,-0.7139,-0.7139,-0.6997,-0.6807,-0.6932,-0.7062,-0.7344,-0.7737,-0.8418,-0.895,-0.9954,-1.0081,-0.9834,-0.9895,-1.0115,-0.9814,-0.9064,-0.8461,-0.7936,-0.7099,-0.6338,-1.5431,-1.5571,-1.5411,-1.5271,-1.5197,-1.5464,-1.5424,-1.517,-1.5023,-1.506,-1.4856,-1.4349,-1.4412,-1.5228,-1.6683,-1.7666,-1.847,-1.9923,-2.0566,-2.0576,-2.0566,-2.0323,-2.0001,-1.9844,-1.8912,-1.7607,-1.63,-1.4636,-1.2116,-0.974,-0.8277,-0.7316,-0.7139,-0.7139,-0.7139,-0.7139,-0.7577,-0.8273,-0.9231,-1.0096,-1.0443,-1.0611,-1.0611,-1.0611,-1.0697,-1.0697,-1.0524,-1.0265,-0.9836,-0.9662,-0.8711,-0.8105,-0.7929,-0.7577,-0.7139,-0.7139,-0.7139,-0.7139,-0.7139,-0.7139,-0.7139,-0.7139,-0.7139,-0.7139,-0.7577,-0.9139,-1.0611,-1.0611,-1.3749,-1.4963,-1.4573,-1.5137,-1.3678,-1.231,-1.1037,-0.9657,-0.8536,-0.7841,-0.7139,-0.7139,-0.7139,-0.7139,-0.7139,-0.7139,-0.7139,-0.7139,-0.7139,-0.7139,-0.7139,-0.7139,-0.7139,-0.7139,-0.7139,-0.7139,-0.7139,-0.7132,-0.689,-0.6746,-0.6841,-0.6989,-0.6937,-0.7388,-0.7844,-0.8115,-0.8347,-0.8258,-0.7944,-0.8618,-0.9442,-0.9069,-0.8542,-0.8012,-0.748,-0.6949,-0.6362,-1.4983,-1.5157,-1.5023,-1.506,-1.4983,-1.5204,-1.5124,-1.4863,-1.4843,-1.485,-1.4723,-1.4408,-1.4734,-1.5779,-1.6764,-1.7819,-1.9036,-2.0089,-2.0489,-2.0576,-2.0576,-2.0566,-2.0489,-2.0411,-2.0157,-1.9362,-1.8132,-1.6293,-1.4038,-1.177,-0.9648,-0.7665,-0.7228,-0.7139,-0.7139,-0.7228,-0.7661,-0.9318,-1.0438,-1.1214,-1.1563,-1.1649,-1.1649,-1.1563,-1.1477,-1.1477,-1.1472,-1.1123,-1.1037,-1.0869,-0.9923,-0.9318,-0.9144,-0.8707,-0.8101,-0.7925,-0.7753,-0.7489,-0.7316,-0.7139,-0.7139,-0.7139,-0.7139,-0.7139,-0.7401,-0.9139,-1.0611,-1.0611,-1.3743,-1.4706,-1.465,-1.5054,-1.4015,-1.2395,-1.0869,-0.9314,-0.8013,-0.7401,-0.7051,-0.7139,-0.7139,-0.7139,-0.7139,-0.7139,-0.7139,-0.7139,-0.7139,-0.7139,-0.7051,-0.6962,-0.6694,-0.6605,-0.6425,-0.6425,-0.6419,-0.6555,-0.65,-0.657,-0.658,-0.6636,-0.6568,-0.6565,-0.6867,-0.6976,-0.7087,-0.7064,-0.7099,-0.8012,-0.877,-0.8012,-0.748,-0.7403,-0.7099,-0.6648,-0.6424,-1.4563,-1.4603,-1.485,-1.4943,-1.495,-1.4983,-1.483,-1.4589,-1.4569,-1.4569,-1.4509,-1.4321,-1.4741,-1.5786,-1.6846,-1.79,-1.9036,-2.0079,-2.0489,-2.0576,-2.0576,-2.0576,-2.0576,-2.0566,-2.0489,-2.0167,-1.9116,-1.7438,-1.5681,-1.3794,-1.1434,-0.9144,-0.8013,-0.7404,-0.7316,-0.7577,-0.8703,-1.0265,-1.1643,-1.2687,-1.3215,-1.3476,-1.3561,-1.3646,-1.3737,-1.3822,-1.3737,-1.2772,-1.2157,-1.2157,-1.1128,-1.0524,-1.0438,-1.0005,-0.9401,-0.8973,-0.854,-0.8101,-0.7665,-0.7228,-0.7139,-0.7139,-0.7139,-0.7139,-0.7228,-0.9309,-1.0438,-1.095,-1.3749,-1.488,-1.4817,-1.472,-1.4266,-1.2656,-1.1037,-0.9836,-0.8448,-0.7224,-0.6962,-0.7051,-0.7051,-0.6871,-0.7139,-0.7139,-0.7139,-0.7139,-0.7051,-0.7051,-0.6786,-0.6605,-0.6157,-0.5802,-0.5536,-0.5442,-0.5435,-0.546,-0.5462,-0.5602,-0.5716,-0.5903,-0.5943,-0.5993,-0.6006,-0.6224,-0.6349,-0.6342,-0.6416,-0.7249,-0.7553,-0.6795,-0.649,-0.6718,-0.6817,-0.6528,-0.651,-1.5347,-1.5426,-1.4788,-1.4529,-1.4696,-1.4689,-1.4623,-1.4529,-1.4516,-1.4409,-1.4255,-1.4226,-1.4734,-1.5786,-1.6846,-1.7908,-1.9036,-2.0079,-2.0489,-2.0576,-2.0576,-2.0576,-2.0576,-2.0576,-2.0566,-2.0401,-1.9511,-1.8301,-1.6643,-1.5058,-1.3224,-1.1026,-0.9139,-0.7841,-0.7665,-0.8532,-1.0086,-1.1386,-1.2687,-1.3737,-1.3913,-1.4088,-1.4088,-1.4088,-1.4088,-1.4088,-1.3997,-1.3646,-1.347,-1.3118,-1.2248,-1.1815,-1.1558,-1.1128,-1.0524,-0.9923,-0.9405,-0.8715,-0.8105,-0.7577,-0.7139,-0.7139,-0.7139,-0.7139,-0.7228,-0.9226,-1.0351,-1.1632,-1.3497,-1.4796,-1.4496,-1.4894,-1.4775,-1.2826,-1.1295,-1.0183,-0.8882,-0.757,-0.6605,-0.6694,-0.6425,-0.6248,-0.6694,-0.7139,-0.7139,-0.7139,-0.7051,-0.6871,-0.6517,-0.5891,-0.5354,-0.473,-0.4374,-0.4289,-0.4285,-0.432,-0.4346,-0.4584,-0.4806,-0.4846,-0.4959,-0.5168,-0.5176,-0.5473,-0.5864,-0.6103,-0.6335,-0.6641,-0.6641,-0.6412,-0.6338,-0.6335,-0.6362,-0.6322,-0.6481,-1.5587,-1.5432,-1.4501,-1.4255,-1.4496,-1.4429,-1.4389,-1.4396,-1.4382,-1.4289,-1.4095,-1.4247,-1.4726,-1.5816,-1.6846,-1.7908,-1.9036,-2.0001,-2.0489,-2.0576,-2.0576,-2.0576,-2.0576,-2.0576,-2.0566,-2.0401,-1.9835,-1.8789,-1.7163,-1.5659,-1.3988,-1.2219,-1.0778,-0.9483,-0.8965,-1.0,-1.1552,-1.2419,-1.3385,-1.4088,-1.4088,-1.4088,-1.4088,-1.4088,-1.4088,-1.4088,-1.4088,-1.3997,-1.3997,-1.373,-1.3294,-1.2942,-1.2595,-1.2163,-1.1563,-1.0869,-1.0091,-0.9323,-0.8715,-0.7841,-0.7139,-0.7139,-0.7139,-0.7139,-0.7661,-0.8969,-0.9923,-1.0783,-1.3074,-1.4455,-1.3913,-1.465,-1.472,-1.3027,-1.1386,-1.0183,-0.8956,-0.7735,-0.6861,-0.6248,-0.5802,-0.5265,-0.616,-0.6694,-0.6962,-0.6782,-0.6428,-0.616,-0.5802,-0.5176,-0.4192,-0.3657,-0.3124,-0.304,-0.3042,-0.2996,-0.3118,-0.3888,-0.3963,-0.3716,-0.3722,-0.401,-0.4533,-0.4999,-0.5392,-0.5867,-0.6257,-0.6486,-0.6412,-0.6335,-0.6261,-0.6261,-0.6295,-0.6342,-0.6498,-1.5144,-1.4173,-1.4179,-1.4249,-1.4449,-1.4215,-1.4115,-1.4142,-1.4135,-1.4115,-1.4115,-1.4322,-1.4794,-1.5748,-1.6683,-1.7827,-1.8798,-2.0001,-2.0576,-2.0576,-2.0576,-2.0576,-2.0576,-2.0576,-2.0576,-2.0576,-2.0245,-1.9274,-1.7504,-1.7155,-1.5321,-1.3419,-1.2242,-1.1386,-1.0697,-1.1638,-1.2242,-1.2498,-1.3646,-1.3997,-1.4088,-1.4088,-1.4088,-1.4088,-1.4088,-1.4088,-1.4088,-1.4088,-1.4088,-1.3997,-1.3913,-1.373,-1.3646,-1.3646,-1.3124,-1.2248,-1.1123,-1.0009,-0.889,-0.7749,-0.7228,-0.7139,-0.7139,-0.7139,-0.7312,-0.836,-0.941,-1.0269,-1.1975,-1.3105,-1.3555,-1.4166,-1.399,-1.3385,-1.1735,-1.0351,-0.9213,-0.6929,-0.588,-0.5445,-0.4641,-0.4105,-0.5265,-0.616,-0.6694,-0.6517,-0.5894,-0.5447,-0.4912,-0.4196,-0.3213,-0.2412,-0.1789,-0.1791,-0.1787,-0.176,-0.1986,0.0,-0.2974,-0.2518,-0.255,-0.291,-0.3522,-0.4297,-0.4921,-0.5392,-0.5864,-0.6257,-0.6257,-0.6261,-0.6261,-0.6268,-0.6302,-0.6386,-0.6552,-1.6116,-1.5144,-1.4412,-1.4142,-1.4215,-1.4135,-1.4088,-1.4088,-1.4088,-1.4088,-1.4102,-1.4208,-1.4365,-1.5082,-1.6363,-1.7496,-1.8149,-1.9923,-2.0576,-2.0576,-2.0576,-2.0576,-2.0576,-2.0576,-2.0576,-2.0576,-2.0489,-1.9923,-1.8479,-1.831,-1.6993,-1.5094,-1.3613,-1.2857,-1.2077,-1.2242,-1.2583,-1.3379,-1.3913,-1.4088,-1.4088,-1.3997,-1.3997,-1.3913,-1.3913,-1.3997,-1.3997,-1.3997,-1.4088,-1.4088,-1.4088,-1.4088,-1.4088,-1.4088,-1.3906,-1.3033,-1.1821,-0.9657,-0.836,-0.7228,-0.7139,-0.7139,-0.7139,-0.7139,-0.7228,-0.8193,-0.8978,-0.9753,-1.1209,-1.2248,-1.2851,-1.373,-1.3906,-1.3561,-1.226,-1.1047,-0.9383,-0.6216,-0.4283,-0.4463,-0.4018,-0.4018,-0.4732,-0.4999,-0.5442,-0.5622,-0.5001,-0.402,-0.3395,-0.2861,-0.1968,-0.1165,-0.0628,-0.0628,0.0,0.0,0.0,0.0,0.0,-0.0827,-0.1136,-0.182,-0.2275,-0.2895,-0.3906,-0.4844,-0.5332,-0.5814,-0.6187,-0.6261,-0.6268,-0.6268,-0.6281,-0.642,-0.663,-1.669,-1.5621,-1.4573,-1.4088,-1.4088,-1.4088,-1.4088,-1.4108,-1.4182,-1.4188,-1.4128,-1.4188,-1.4175,-1.4699,-1.5794,-1.709,-1.7423,-1.9116,-2.0489,-2.0489,-2.0576,-2.0576,-2.0576,-2.0576,-2.0576,-2.0576,-2.0489,-2.001,-1.8966,-1.8966,-1.7649,-1.5861,-1.4977,-1.4048,-1.3275,-1.3112,-1.3288,-1.373,-1.373,-1.3385,-1.3215,-1.3039,-1.2784,-1.2869,-1.3039,-1.3379,-1.3561,-1.3822,-1.4088,-1.4088,-1.4088,-1.4088,-1.4088,-1.4088,-1.4088,-1.3476,-1.1912,-0.9749,-0.836,-0.7228,-0.7139,-0.7139,-0.7139,-0.7139,-0.7139,-0.7753,-0.8364,-0.9318,-1.0697,-1.1643,-1.2328,-1.3294,-1.3822,-1.3476,-1.2345,-1.1042,-0.9639,-0.6477,-0.3748,-0.3929,-0.3129,-0.3307,-0.3842,-0.3927,-0.4014,-0.4105,-0.4018,-0.2949,-0.1969,-0.1522,0.0,0.0,0.0,0.0,0.0,0.0,0.0,0.0,0.0,0.0,-0.0163,-0.0875,-0.1185,-0.149,-0.2582,-0.368,-0.481,-0.5448,-0.6054,-0.6285,-0.6369,-0.6362,-0.6349,-0.6437,-0.6661,-1.669,-1.5621,-1.4573,-1.4088,-1.4088,-1.4088,-1.4088,-1.4115,-1.4369,-1.4329,-1.4102,-1.4349,-1.4295,-1.4355,-1.5296,-1.6355,-1.7423,-1.8638,-1.9678,-2.0333,-2.0576,-2.0576,-2.0576,-2.0576,-2.0576,-2.0576,-2.0489,-2.0167,-1.9204,-1.9045,-1.7819,-1.6519,-1.5951,-1.5123,-1.4468,-1.4146,-1.4153,-1.3899,-1.3203,-1.2766,-1.2595,-1.1643,-1.1305,-1.1477,-1.1992,-1.2504,-1.2942,-1.347,-1.3913,-1.4088,-1.4088,-1.4088,-1.4088,-1.4088,-1.4088,-1.3385,-1.1735,-1.0183,-0.8798,-0.7753,-0.7228,-0.7139,-0.7139,-0.7139,-0.7139,-0.7316,-0.7753,-0.8623,-0.9749,-1.095,-1.1986,-1.2942,-1.3822,-1.2954,-1.1821,-1.0778,-0.9904,-0.7442,-0.4541,-0.3038,-0.1523,-0.1345,-0.2326,-0.2592,-0.2502,-0.2681,-0.2683,-0.2058,-0.1254,-0.0808,0.0,0.0,0.0,0.0,0.0,0.0,0.0,0.0,0.0,0.0,0.0,0.0,-0.0559,-0.103,-0.1493,-0.2589,-0.4332,-0.5445,-0.6155,-0.6308,-0.6373,-0.6404,-0.64,-0.6461,-0.6651,-1.6675,-1.5621,-1.4573,-1.4088,-1.4088,-1.4088,-1.4088,-1.4108,-1.4188,-1.4148,-1.4088,-1.4175,-1.4175,-1.4166,-1.5213,-1.6273,-1.7334,-1.847,-1.9599,-2.0245,-2.0576,-2.0576,-2.0576,-2.0576,-2.0576,-2.0576,-2.0566,-2.0401,-2.0001,-1.952,-1.8957,-1.8141,-1.7163,-1.6273,-1.5628,-1.5213,-1.4734,-1.3977,-1.293,-1.2242,-1.1809,-1.095,-1.0524,-1.0605,-1.1381,-1.1895,-1.2248,-1.3294,-1.3822,-1.3997,-1.4082,-1.4088,-1.4088,-1.4082,-1.3906,-1.2772,-1.1386,-1.0096,-0.8978,-0.7753,-0.7139,-0.7139,-0.7139,-0.7139,-0.7139,-0.7139,-0.7312,-0.8101,-0.8973,-1.0091,-1.1209,-1.2163,-1.3124,-1.2948,-1.1821,-1.0692,-0.9552,-0.7004,-0.4188,-0.2503,-0.0897,-0.0359,-0.1253,-0.0985,-0.0985,-0.1254,-0.1165,-0.0717,-0.0538,-0.018,0.0,0.0,0.0,0.0,0.0,0.0,0.0,0.0,0.0,0.0,0.0,0.0,0.0,-0.0721,-0.1666,-0.2915,-0.4396,-0.5425,-0.6298,-0.6366,-0.6355,-0.641,-0.64,-0.6525,-0.6668,-1.7577,-1.6838,-1.5387,-1.4489,-1.4088,-1.4088,-1.4088,-1.4088,-1.4088,-1.4088,-1.4088,-1.4095,-1.4088,-1.4166,-1.4817,-1.5794,-1.7334,-1.7908,-1.9027,-2.0401,-2.0576,-2.0576,-2.0576,-2.0576,-2.0576,-2.0576,-2.0576,-2.0566,-2.0411,-2.0089,-1.952,-1.8798,-1.8141,-1.7415,-1.6519,-1.5869,-1.5296,-1.4203,-1.3008,-1.198,-1.1123,-1.0173,-0.9396,-0.9566,-1.0433,-1.0956,-1.13,-1.2431,-1.3294,-1.3555,-1.3646,-1.4328,-1.4573,-1.4727,-1.4643,-1.3594,-1.1638,-1.0605,-0.9488,-0.8013,-0.7401,-0.7139,-0.7139,-0.7139,-0.7139,-0.7139,-0.7139,-0.7489,-0.8364,-0.9323,-1.0265,-1.13,-1.2248,-1.3203,-1.1992,-1.0697,-0.8495,-0.6036,-0.4009,-0.2235,-0.1075,-0.0269,0.0,0.0448,0.0896,0.1073,0.1072,0.1074,0.0627,0.018,0.0,0.0,0.0,0.0,0.0,0.0,0.0,0.0,0.0,0.0,0.0,0.0,0.0,-0.1137,-0.2083,-0.3346,-0.4604,-0.5581,-0.6352,-0.6355,-0.6376,-0.6346,-0.643,-0.6556,-0.6705,-1.8966,-1.8709,-1.6667,-1.5296,-1.4412,-1.4496,-1.4412,-1.4257,-1.4328,-1.4173,-1.4173,-1.4088,-1.4088,-1.4166,-1.4573,-1.5711,-1.7009,-1.7827,-1.8957,-2.0566,-2.0576,-2.0576,-2.0576,-2.0576,-2.0576,-2.0576,-2.0576,-2.0576,-2.0576,-2.0333,-1.9923,-1.9125,-1.9116,-1.855,-1.7496,-1.6519,-1.5869,-1.5032,-1.2741,-1.0869,-1.0178,-0.8707,-0.7139,-0.7489,-0.836,-0.9148,-0.9666,-1.0697,-1.2237,-1.2674,-1.3281,-1.4307,-1.5213,-1.5779,-1.5696,-1.4768,-1.2729,-1.1289,-1.0086,-0.8619,-0.7577,-0.7228,-0.7139,-0.7139,-0.7139,-0.7139,-0.7139,-0.7139,-0.7929,-0.8627,-0.9575,-1.0351,-1.13,-1.1649,-1.1042,-0.9908,-0.8408,-0.559,-0.2676,-0.1074,-0.009,0.0717,0.152,0.1969,0.2058,0.2857,0.3035,0.2681,0.2058,0.0986,0.0,0.0,0.0,0.0,0.0,0.0,0.0,0.0,0.0,0.0,0.0,0.0,0.0,-0.1483,-0.2516,-0.3555,-0.4746,-0.5635,-0.6298,-0.641,-0.6352,-0.6376,-0.6468,-0.6614,-0.6739,-1.9045,-1.8877,-1.7496,-1.6772,-1.6527,-1.6527,-1.6034,-1.5296,-1.5296,-1.4817,-1.4166,-1.4088,-1.4166,-1.425,-1.4894,-1.6034,-1.7261,-1.8149,-1.9362,-2.0245,-2.0576,-2.0576,-2.0576,-2.0576,-2.0576,-2.0576,-2.0576,-2.0576,-2.0576,-2.0566,-2.0566,-2.0245,-2.0089,-1.952,-1.839,-1.7326,-1.6437,-1.553,-1.2601,-1.0733,-1.0299,-0.8627,-0.7139,-0.7496,-0.8113,-0.8727,-0.9244,-1.0096,-1.1381,-1.2242,-1.2504,-1.3769,-1.553,-1.6429,-1.6429,-1.5516,-1.3988,-1.2298,-1.06,-0.9139,-0.8101,-0.7316,-0.7139,-0.7139,-0.7139,-0.7139,-0.7139,-0.7228,-0.7489,-0.8101,-0.8711,-0.9492,-1.0096,-1.0096,-0.9913,-0.9026,-0.8055,-0.4791,-0.143,-0.0089,0.1075,0.1878,0.2769,0.3215,0.3304,0.3393,0.3481,0.3304,0.2858,0.2057,0.0807,0.0,0.0,0.0,0.0,0.0,0.0,0.0,0.0,0.0,0.0,0.0,-0.1197,-0.2089,-0.3044,-0.4175,-0.5023,-0.5717,-0.6169,-0.6396,-0.6444,-0.6481,-0.6593,-0.6736,-0.6827,-1.9678,-1.9608,-1.855,-1.7738,-1.7342,-1.7342,-1.6683,-1.5779,-1.5696,-1.5054,-1.4166,-1.4173,-1.4334,-1.4741,-1.5462,-1.6764,-1.7908,-1.863,-1.9599,-2.0323,-2.0576,-2.0576,-2.0576,-2.0576,-2.0576,-2.0576,-2.0576,-2.0576,-2.0576,-2.0566,-2.0566,-2.0576,-2.0566,-2.0079,-1.8957,-1.79,-1.6764,-1.5621,-1.2307,-1.0917,-1.0489,-0.8653,-0.7331,-0.7506,-0.7771,-0.8186,-0.846,-0.9231,-1.0356,-1.2225,-1.349,-1.492,-1.6593,-1.7496,-1.7415,-1.6339,-1.4823,-1.2977,-1.1112,-0.9575,-0.8452,-0.7577,-0.7139,-0.7139,-0.7139,-0.7139,-0.7139,-0.7139,-0.7139,-0.7665,-0.8017,-0.8711,-0.9231,-0.9492,-0.8507,-0.7355,-0.5681,-0.312,-0.0626,0.0984,0.1879,0.2593,0.3484,0.4376,0.4643,0.5442,0.5174,0.4105,0.3659,0.2769,0.1612,0.0,0.0,0.0,0.0,0.0,0.0,0.0,0.0,0.0,0.0,0.0,-0.2007,-0.3072,-0.4022,-0.4801,-0.5635,-0.6115,-0.6291,-0.6536,-0.6573,-0.66,-0.6725,-0.6834,-0.6898,-2.0566,-2.0489,-1.9599,-1.8638,-1.7827,-1.7738,-1.7172,-1.6273,-1.6026,-1.5462,-1.4741,-1.4496,-1.4894,-1.5372,-1.6191,-1.7496,-1.863,-1.9274,-2.0001,-2.0411,-2.0566,-2.0576,-2.0576,-2.0576,-2.0576,-2.0576,-2.0576,-2.0576,-2.0576,-2.0576,-2.0576,-2.0576,-2.0411,-2.0079,-1.8948,-1.79,-1.6764,-1.5173,-1.2918,-1.1102,-0.9899,-0.8655,-0.7738,-0.7377,-0.736,-0.7285,-0.7542,-0.8101,-0.9231,-1.1787,-1.44,-1.6167,-1.7407,-1.8301,-1.7989,-1.7155,-1.5823,-1.3471,-1.1198,-0.9836,-0.8536,-0.7577,-0.7228,-0.7139,-0.7139,-0.7139,-0.7139,-0.7139,-0.7139,-0.7228,-0.758,-0.7753,-0.8364,-0.8265,-0.6926,-0.5593,-0.3565,-0.17,-0.0089,0.1611,0.2325,0.3038,0.4109,0.5092,0.5805,0.6694,0.6425,0.5442,0.4372,0.3127,0.1879,0.0987,0.0,0.0,0.0,0.0,0.0,0.0,0.0,0.0,-0.152,-0.2488,-0.3439,-0.4359,-0.5318,-0.5742,-0.6093,-0.6433,-0.6634,-0.6664,-0.6712,-0.6742,-0.679,-0.6888,-0.6946,-2.0576,-2.0566,-2.0323,-2.0157,-1.9923,-1.9913,-1.9344,-1.8301,-1.7334,-1.6854,-1.6363,-1.5703,-1.5621,-1.5854,-1.773,-1.8877,-1.9116,-1.9766,-2.0167,-2.0566,-2.0576,-2.0576,-2.0576,-2.0576,-2.0576,-2.0576,-2.0576,-2.0576,-2.0576,-2.0576,-2.0566,-2.0489,-2.0566,-2.0001,-1.8877,-1.7738,-1.6445,-1.4692,-1.276,-1.085,-1.0269,-0.9075,-0.7742,-0.7431,-0.737,-0.7272,-0.7272,-0.7323,-0.8707,-1.1268,-1.4643,-1.6667,-1.806,-1.8948,-1.8868,-1.79,-1.6569,-1.4219,-1.2031,-1.0519,-0.9222,-0.7316,-0.7139,-0.7139,-0.7139,-0.7139,-0.7139,-0.7139,-0.7139,-0.7139,-0.7316,-0.7136,-0.7397,-0.659,-0.5432,-0.3922,-0.2235,-0.0986,0.0269,0.1254,0.1968,0.3127,0.4643,0.5267,0.5534,0.6068,0.5888,0.4907,0.4285,0.3217,0.1969,0.0,0.0,0.0,0.0,0.0,0.0,0.0,0.0,0.0,-0.2415,-0.3842,-0.4879,-0.5545,-0.6016,-0.6537,-0.6807,-0.6759,-0.6736,-0.6763,-0.6841,-0.6892,-0.6919,-0.6953,-0.7017]}]]